Date StartTime U_cm/s V_cm/s W_cm/s Ustd_cm/s Vstd_cm/s Wstd_cm/s Uvar_(cm/s)^2 Vvar_(cm/s)^2 Wvar_(cm/s)^2 KE_(m/s)^2 TurbulentKE_(m/s)^2 HorizWindSpeed_cm/s FrictionSpeec_cm/s DragCoef SpeedOfSound_m/s SonicTemperature_C Pressure_mb 
01/05/2014  00:00:00      -57.273      -13.631       -9.921       16.852       15.982       10.166      283.986      255.416      103.344        0.210        0.032       58.873        7.262        0.015      330.980       -1.300      869.309
01/05/2014  00:01:00      -48.856      -15.587      -10.415       19.520       22.977       14.808      381.039      527.923      219.289        0.193        0.056       51.282       12.290        0.057      331.044       -1.193      869.310
01/05/2014  00:02:00      -62.116      -15.835      -15.579       12.418       12.584       10.102      154.200      158.347      102.050        0.238        0.021       64.102        7.173        0.013      330.980       -1.300      869.320
01/05/2014  00:03:00      -64.954      -23.848      -16.020       14.385       14.721        9.563      206.930      216.722       91.457        0.278        0.026       69.194        8.828        0.016      330.960       -1.334      869.331
01/05/2014  00:04:00      -64.308      -24.383      -16.451       14.349       13.290       10.667      205.896      176.611      113.793        0.275        0.025       68.775        5.662        0.007      330.882       -1.460      869.340
01/05/2014  00:05:00      -92.075      -18.754      -11.313       23.858       13.720       12.105      569.203      188.243      146.542        0.493        0.045       93.965        9.955        0.011      330.830       -1.546      869.351
01/05/2014  00:06:00     -105.700      -25.882      -16.479       22.852       21.822       14.530      522.219      476.216      211.115        0.666        0.060      108.822        9.118        0.007      330.782       -1.626      869.358
01/05/2014  00:07:00     -119.367       -3.068      -16.029       29.125       18.234       17.510      848.276      332.487      306.590        0.800        0.074      119.406       10.447        0.008      330.801       -1.594      869.370
01/05/2014  00:08:00      -78.358        0.448      -11.140       44.095       27.484       23.287     1944.376      755.367      542.306        0.475        0.162       78.359       22.994        0.086      330.938       -1.369      869.376
01/05/2014  00:09:00     -122.739       -1.246      -14.157       34.974       26.156       26.218     1223.176      684.156      687.372        0.893        0.130      122.745       25.397        0.043      330.767       -1.649      869.377
01/05/2014  00:10:00     -100.542        5.047       -5.048       35.163       28.361       24.275     1236.403      804.351      589.282        0.639        0.132      100.669       20.944        0.043      330.670       -1.809      869.374
01/05/2014  00:11:00     -110.231       -0.554       -8.810       30.591       25.235       19.959      935.798      636.826      398.380        0.710        0.099      110.233       17.480        0.025      330.711       -1.742      869.370
01/05/2014  00:12:00     -113.555        2.600      -10.146       27.463       25.618       17.214      754.234      656.285      296.335        0.736        0.085      113.584       11.507        0.010      330.671       -1.807      869.381
01/05/2014  00:13:00     -123.223       -4.538      -12.584       28.047       22.167       18.945      786.623      491.378      358.908        0.850        0.082      123.307        9.544        0.006      330.683       -1.787      869.407
01/05/2014  00:14:00     -143.248        9.462      -16.824       27.284       21.857       16.975      744.397      477.732      288.154        1.120        0.076      143.561       14.323        0.010      330.637       -1.862      869.431
01/05/2014  00:15:00      -78.719        0.872       -4.126       43.372       18.175       21.035     1881.108      330.316      442.460        0.443        0.133       78.724       22.583        0.082      330.675       -1.799      869.452
01/05/2014  00:16:00      -85.238       -4.571       -8.347       37.415       21.279       14.396     1399.876      452.798      207.248        0.471        0.103       85.361       16.409        0.037      330.733       -1.705      869.473
01/05/2014  00:17:00      -76.507      -27.058      -12.556       16.051       24.822       12.794      257.627      616.118      163.679        0.389        0.052       81.151        9.444        0.014      330.801       -1.593      869.496
01/05/2014  00:18:00      -42.626      -24.994       -0.103       34.563       25.718       13.771     1194.570      661.428      189.654        0.224        0.102       49.413       14.379        0.085      330.781       -1.627      869.512
01/05/2014  00:19:00      -11.252      -21.399       -8.190       22.885       11.434       11.843      523.713      130.748      140.251        0.072        0.040       24.177       10.350        0.183      330.815       -1.570      869.513
01/05/2014  00:20:00      -65.753      -21.566        0.181       14.664       15.836       11.481      215.021      250.787      131.802        0.269        0.030       69.199        8.678        0.016      330.755       -1.670      869.511
01/05/2014  00:21:00      -77.108      -29.190      -20.541       10.800       11.632        9.728      116.634      135.299       94.633        0.378        0.017       82.448        4.308        0.003      330.761       -1.659      869.520
01/05/2014  00:22:00      -87.500      -28.037      -19.968       18.909       21.057       13.248      357.558      443.399      175.508        0.491        0.049       91.882       12.274        0.018      330.754       -1.672      869.531
01/05/2014  00:23:00      -94.821      -32.943      -15.483       18.153       17.889       11.380      329.520      320.009      129.513        0.555        0.039      100.381        4.872        0.002      330.749       -1.679      869.544
01/05/2014  00:24:00      -83.486      -39.591      -17.386       14.195       14.114        7.811      201.507      199.212       61.007        0.465        0.023       92.398        3.571        0.001      330.693       -1.769      869.552
01/05/2014  00:25:00      -50.520      -32.766       -6.723       20.642       13.227       11.331      426.109      174.952      128.398        0.220        0.036       60.215        4.822        0.006      330.692       -1.773      869.567
01/05/2014  00:26:00      -75.457      -48.052      -12.693       16.969       10.792       13.638      287.954      116.458      185.999        0.438        0.030       89.458       11.637        0.017      330.693       -1.770      869.578
01/05/2014  00:27:00      -97.296      -33.145      -15.569       13.764       12.339        7.903      189.439      152.245       62.457        0.561        0.020      102.786        2.815        0.001      330.741       -1.693      869.589
01/05/2014  00:28:00     -100.987      -20.730      -10.364       11.690       11.968        9.090      136.665      143.237       82.629        0.555        0.018      103.092        6.406        0.004      330.773       -1.642      869.588
01/05/2014  00:29:00      -76.621      -26.152      -11.352       13.901       12.437        8.887      193.249      154.670       78.980        0.356        0.021       80.961        5.007        0.004      330.806       -1.588      869.591
01/05/2014  00:30:00      -70.065      -36.446       -8.996        8.984       16.499       10.054       80.721      272.204      101.088        0.339        0.023       78.977        5.395        0.005      330.838       -1.533      869.592
01/05/2014  00:31:00      -67.038      -55.984      -11.849       10.011       10.311        7.561      100.218      106.317       57.171        0.402        0.013       87.340        4.341        0.002      330.892       -1.444      869.598
01/05/2014  00:32:00      -64.921      -38.257      -17.500       10.308        8.879        8.909      106.260       78.845       79.371        0.312        0.013       75.355        4.423        0.003      330.829       -1.549      869.597
01/05/2014  00:33:00      -68.042      -14.296      -11.885       12.438       16.522        8.469      154.705      272.976       71.731        0.274        0.025       69.528        2.327        0.001      330.842       -1.527      869.593
01/05/2014  00:34:00      -73.719      -27.959       -8.862       15.530       14.474        8.413      241.176      209.499       70.776        0.341        0.026       78.843        4.097        0.003      330.851       -1.512      869.600
01/05/2014  00:35:00      -78.872      -20.962      -16.849       16.734       13.651        8.726      280.017      186.357       76.137        0.374        0.027       81.611        5.840        0.005      330.853       -1.506      869.611
01/05/2014  00:36:00      -73.347      -27.460      -13.508       12.085       11.955        6.985      146.041      142.914       48.796        0.333        0.017       78.319        6.131        0.006      330.862       -1.492      869.638
01/05/2014  00:37:00      -73.649      -30.850      -12.551       11.519       10.059        8.516      132.698      101.183       72.530        0.342        0.015       79.849        3.011        0.001      330.783       -1.625      869.662
01/05/2014  00:38:00      -66.420      -25.204       -7.498       15.069       10.671        7.331      227.061      113.864       53.743        0.275        0.020       71.041        4.277        0.004      330.760       -1.663      869.672
01/05/2014  00:39:00      -23.744      -23.743       -4.920       23.324       12.007        9.497      544.006      144.163       90.196        0.096        0.039       33.579        7.784        0.054      330.788       -1.615      869.683
01/05/2014  00:40:00      -14.317       -0.948        2.737       17.826        7.293        8.155      317.754       53.182       66.509        0.033        0.022       14.348        6.392        0.198      330.772       -1.642      869.698
01/05/2014  00:41:00      -56.113      -11.289       -3.667        8.928       11.659        6.747       79.717      135.925       45.525        0.178        0.013       57.237        5.183        0.008      330.738       -1.696      869.707
01/05/2014  00:42:00      -54.635      -22.350       -6.379       17.362       12.039        8.461      301.428      144.929       71.581        0.202        0.026       59.030        4.608        0.006      330.744       -1.688      869.711
01/05/2014  00:43:00      -45.681      -32.783       -6.043       26.360       13.386       14.883      694.858      179.195      221.512        0.215        0.055       56.227       10.223        0.033      330.739       -1.696      869.714
01/05/2014  00:44:00      -41.588      -44.357        3.028       32.647       26.400       19.646     1065.842      696.982      385.977        0.293        0.107       60.804       18.771        0.095      330.629       -1.876      869.730
01/05/2014  00:45:00      -76.815      -60.521        1.163       29.908       25.674       18.895      894.470      659.129      357.035        0.574        0.096       97.792       12.577        0.017      330.628       -1.877      869.746
01/05/2014  00:46:00     -102.469      -65.611       -9.564       22.705       20.959       16.852      515.512      439.281      283.991        0.807        0.062      121.675        7.082        0.003      330.609       -1.910      869.768
01/05/2014  00:47:00      -96.067      -41.364       -1.265       21.856       19.116       15.631      477.706      365.416      244.326        0.601        0.054      104.594        8.443        0.007      330.584       -1.949      869.792
01/05/2014  00:48:00      -84.855      -40.400       -4.991       24.751       23.022       13.642      612.633      530.012      186.093        0.509        0.066       93.982       14.888        0.025      330.501       -2.086      869.810
01/05/2014  00:49:00      -94.573      -44.643      -12.493       10.545       11.322        9.138      111.195      128.193       83.497        0.571        0.016      104.580        5.630        0.003      330.533       -2.032      869.831
01/05/2014  00:50:00      -89.202      -44.488      -16.524       13.452       11.292        9.065      180.945      127.504       82.177        0.530        0.020       99.680        8.657        0.008      330.541       -2.020      869.852
01/05/2014  00:51:00     -108.610      -51.833      -17.636        9.930       13.293        8.880       98.609      176.702       78.858        0.757        0.018      120.345        5.619        0.002      330.456       -2.160      869.862
01/05/2014  00:52:00     -109.020      -41.565       -9.112       19.770       15.045       11.192      390.871      226.348      125.271        0.722        0.037      116.675        5.362        0.002      330.442       -2.182      869.871
01/05/2014  00:53:00     -110.473      -45.650      -12.402       17.874       17.815       10.602      319.465      317.359      112.402        0.760        0.037      119.533        5.632        0.002      330.402       -2.249      869.868
01/05/2014  00:54:00     -100.321      -45.303       -8.277       23.650       17.097       14.544      559.334      292.299      211.537        0.662        0.053      110.076       13.173        0.014      330.428       -2.206      869.872
01/05/2014  00:55:00      -69.056      -48.725       -4.314       36.470       20.023       16.204     1330.051      400.922      262.567        0.458        0.100       84.515       15.624        0.034      330.370       -2.300      869.880
01/05/2014  00:56:00      -66.869      -49.113       -7.424       38.583       22.670       14.128     1488.682      513.926      199.588        0.457        0.110       82.967        9.783        0.014      330.423       -2.214      869.887
01/05/2014  00:57:00     -117.431      -54.210       -9.343       13.886       14.893       14.342      192.831      221.814      205.688        0.872        0.031      129.340        8.449        0.004      330.357       -2.320      869.891
01/05/2014  00:58:00      -98.257      -30.352      -13.265       11.381       12.043        9.259      129.532      145.028       85.728        0.556        0.018      102.838        3.016        0.001      330.350       -2.334      869.898
01/05/2014  00:59:00      -76.417      -23.052      -10.616       10.028       10.923        9.568      100.553      119.303       91.545        0.340        0.016       79.819        4.615        0.003      330.380       -2.284      869.915
01/05/2014  01:00:00      -60.195      -24.149       -7.609       10.159       10.260        6.174      103.212      105.277       38.116        0.226        0.012       64.858        5.978        0.008      330.421       -2.217      869.933
01/05/2014  01:01:00      -66.212      -28.460      -11.090        9.398        8.821        6.197       88.327       77.804       38.403        0.276        0.010       72.069        2.890        0.002      330.446       -2.176      869.938
01/05/2014  01:02:00      -89.754      -16.701      -15.346       11.513       10.722        6.494      132.544      114.955       42.172        0.443        0.014       91.295        5.229        0.003      330.434       -2.196      869.945
01/05/2014  01:03:00      -75.194      -15.015       -7.335       14.060       11.707        7.192      197.696      137.044       51.728        0.316        0.019       76.678        5.942        0.006      330.393       -2.264      869.958
01/05/2014  01:04:00      -58.448      -32.762      -12.107       10.039       13.908       10.542      100.780      193.428      111.137        0.252        0.020       67.004        7.273        0.012      330.492       -2.102      869.979
01/05/2014  01:05:00      -67.920      -32.443      -14.465       11.882        8.358        8.409      141.192       69.855       70.720        0.308        0.014       75.271        4.390        0.003      330.443       -2.180      869.990
01/05/2014  01:06:00      -88.890      -42.733      -13.386       11.671        8.514        8.563      136.215       72.484       73.319        0.509        0.014       98.628        6.227        0.004      330.413       -2.233      870.002
01/05/2014  01:07:00      -93.907      -31.223      -15.870       10.025       10.851        9.528      100.495      117.743       90.780        0.518        0.015       98.962        3.580        0.001      330.351       -2.332      870.015
01/05/2014  01:08:00      -91.142      -22.947      -16.471        9.890       10.097        7.967       97.813      101.941       63.466        0.468        0.013       93.987        3.063        0.001      330.402       -2.249      870.024
01/05/2014  01:09:00      -74.228      -26.689       -6.344       14.336       15.153       12.177      205.523      229.627      148.283        0.342        0.029       78.881        5.631        0.005      330.473       -2.130      870.023
01/05/2014  01:10:00      -69.634      -24.740      -10.097       11.328       11.353        9.825      128.335      128.883       96.532        0.296        0.018       73.899        8.482        0.013      330.443       -2.182      870.018
01/05/2014  01:11:00      -73.940      -15.052       -9.699       10.280        8.898        7.274      105.679       79.180       52.904        0.301        0.012       75.456        5.767        0.006      330.476       -2.128      870.010
01/05/2014  01:12:00      -60.489      -11.648       -6.938        9.588       10.446        9.508       91.925      109.119       90.409        0.207        0.015       61.600        5.735        0.009      330.466       -2.143      869.994
01/05/2014  01:13:00      -63.417       -4.783       -8.385        9.778       11.272        6.490       95.615      127.047       42.122        0.219        0.013       63.597        2.587        0.002      330.434       -2.195      869.996
01/05/2014  01:14:00      -76.397       -9.545       -9.832        7.627        7.157        6.628       58.170       51.218       43.928        0.309        0.008       76.991        1.243        0.000      330.494       -2.096      870.008
01/05/2014  01:15:00      -76.349      -12.762      -10.002       12.027       11.725        8.626      144.656      137.485       74.411        0.322        0.018       77.408        4.778        0.004      330.504       -2.080      870.021
01/05/2014  01:16:00      -85.118      -26.501       -7.287       11.199       11.340        9.077      125.428      128.605       82.391        0.417        0.017       89.148        3.287        0.001      330.383       -2.278      870.035
01/05/2014  01:17:00      -91.406      -34.214      -10.667       10.360       13.663        8.817      107.334      186.677       77.739        0.501        0.019       97.599        4.669        0.002      330.331       -2.364      870.052
01/05/2014  01:18:00     -101.099      -34.815       -8.751       14.593       14.112        8.473      212.958      199.156       71.798        0.600        0.024      106.925        6.174        0.003      330.285       -2.440      870.070
01/05/2014  01:19:00      -88.251      -51.854       -4.859       17.201       20.834       13.040      295.879      434.047      170.035        0.570        0.045      102.358        8.531        0.007      330.260       -2.483      870.083
01/05/2014  01:20:00      -87.243      -35.516       -6.886       14.686       16.323       10.944      215.675      266.439      119.777        0.476        0.030       94.195        7.480        0.006      330.225       -2.538      870.093
01/05/2014  01:21:00      -79.011      -43.915       -5.686       33.546       16.239       14.688     1125.355      263.693      215.745        0.490        0.080       90.395       14.152        0.025      330.199       -2.581      870.112
01/05/2014  01:22:00      -51.255      -54.029        4.321       43.517       41.348       21.382     1893.721     1709.697      457.199        0.481        0.203       74.472       28.702        0.149      330.230       -2.530      870.129
01/05/2014  01:23:00      -86.947      -59.681       -8.054       37.531       35.173       20.725     1408.612     1237.148      429.537        0.713        0.154      105.459       19.114        0.033      330.242       -2.511      870.137
01/05/2014  01:24:00     -122.391      -53.619        0.619       29.850       23.081       20.083      891.021      532.718      403.329        0.984        0.091      133.621       13.353        0.010      330.293       -2.426      870.138
01/05/2014  01:25:00     -108.745      -72.204       -0.013       33.793       35.387       21.101     1141.983     1252.257      445.248        0.994        0.142      130.533       17.108        0.017      330.280       -2.448      870.132
01/05/2014  01:26:00     -100.415      -53.099        6.447       53.402       42.937       27.211     2851.816     1843.579      740.460        0.919        0.272      113.589       27.439        0.058      330.246       -2.505      870.139
01/05/2014  01:27:00      -73.220      -41.886        8.006       55.586       31.742       21.733     3089.774     1007.577      472.339        0.587        0.228       84.354       24.326        0.083      330.246       -2.504      870.137
01/05/2014  01:28:00      -81.766      -37.234        7.100       39.310       29.698       22.248     1545.307      881.949      494.994        0.552        0.146       89.844       20.144        0.050      330.279       -2.450      870.128
01/05/2014  01:29:00     -100.102      -45.476        1.183       29.455       21.294       15.059      867.606      453.450      226.763        0.682        0.077      109.948       17.122        0.024      330.264       -2.474      870.117
01/05/2014  01:30:00      -88.503      -28.718       -6.535       16.024       21.322       12.524      256.770      454.633      156.853        0.478        0.043       93.046        8.717        0.009      330.321       -2.381      870.108
01/05/2014  01:31:00      -79.218      -19.924       -4.988       19.667       15.666       12.996      386.797      245.436      168.884        0.375        0.040       81.685       10.321        0.016      330.318       -2.385      870.115
01/05/2014  01:32:00      -82.802      -10.352       -6.229       19.001       17.978       16.657      361.019      323.216      277.468        0.398        0.048       83.447       10.841        0.017      330.291       -2.430      870.118
01/05/2014  01:33:00     -102.551      -11.415       -9.938       12.595       19.868        8.004      158.644      394.756       64.067        0.568        0.031      103.184        5.746        0.003      330.341       -2.347      870.125
01/05/2014  01:34:00      -75.020      -21.521      -15.141       11.379       18.555       11.786      129.476      344.270      138.899        0.347        0.031       78.046        9.526        0.015      330.331       -2.365      870.138
01/05/2014  01:35:00      -63.122      -25.127       -7.506       10.953        8.888        8.076      119.976       79.000       65.223        0.247        0.013       67.940        4.451        0.004      330.366       -2.307      870.163
01/05/2014  01:36:00      -59.469      -26.908       -4.769       12.315       10.329        7.556      151.659      106.695       57.089        0.230        0.016       65.273        6.585        0.010      330.387       -2.274      870.182
01/05/2014  01:37:00      -63.644      -25.202       -7.810       16.421       10.694        8.690      269.652      114.352       75.518        0.260        0.023       68.452        5.069        0.005      330.326       -2.373      870.194
01/05/2014  01:38:00      -56.973      -23.113      -11.702       23.132       14.494        9.044      535.084      210.079       81.803        0.237        0.041       61.483       10.147        0.027      330.296       -2.422      870.211
01/05/2014  01:39:00      -49.695      -18.896       -8.326        8.644       12.897        8.226       74.722      166.329       67.670        0.160        0.015       53.167        6.738        0.016      330.352       -2.331      870.216
01/05/2014  01:40:00      -31.457      -12.481      -10.133       15.129       10.931        6.080      228.899      119.489       36.967        0.082        0.019       33.842        4.969        0.022      330.363       -2.312      870.210
01/05/2014  01:41:00       -5.936       -6.281       -8.767       14.580       14.746        7.135      212.575      217.454       50.912        0.032        0.024        8.642        5.714        0.437      330.413       -2.230      870.190
01/05/2014  01:42:00      -24.058      -11.356       -2.711        7.928        9.773       10.398       62.857       95.512      108.120        0.049        0.013       26.603        6.338        0.057      330.496       -2.094      870.177
01/05/2014  01:43:00      -29.236      -14.751       -9.416        9.775        7.096        6.219       95.553       50.355       38.673        0.067        0.009       32.746        4.849        0.022      330.482       -2.117      870.168
01/05/2014  01:44:00      -36.363      -14.709       -3.641       12.635        9.631        9.292      159.649       92.752       86.345        0.095        0.017       39.225        8.891        0.051      330.319       -2.384      870.174
01/05/2014  01:45:00      -45.444      -23.327       -6.679        9.411       10.242        8.926       88.573      104.897       79.676        0.146        0.014       51.081        4.795        0.009      330.243       -2.510      870.185
01/05/2014  01:46:00       -8.951      -17.113        1.703       15.721       13.627       10.173      247.156      185.686      103.491        0.046        0.027       19.313        5.188        0.072      330.290       -2.432      870.198
01/05/2014  01:47:00       -5.280      -29.502       -2.557       14.302       12.585       12.191      204.556      158.377      148.624        0.071        0.026       29.971        9.071        0.092      330.367       -2.306      870.220
01/05/2014  01:48:00      -50.081      -25.735       -3.323       13.264       10.667        9.937      175.940      113.788       98.743        0.178        0.019       56.306        3.283        0.003      330.312       -2.395      870.239
01/05/2014  01:49:00      -69.860      -21.543       -4.693       11.661        8.009        6.997      135.989       64.148       48.960        0.281        0.012       73.106        5.296        0.005      330.160       -2.644      870.260
01/05/2014  01:50:00      -73.542      -23.313       -7.720       12.939        8.937        5.470      167.416       79.875       29.918        0.314        0.014       77.149        2.538        0.001      330.149       -2.664      870.287
01/05/2014  01:51:00      -80.755      -10.058      -15.553       14.364       12.401       10.335      206.333      153.786      106.803        0.367        0.023       81.378        6.390        0.006      330.175       -2.621      870.300
01/05/2014  01:52:00      -62.404       -4.699       -6.198       11.604       10.121        8.163      134.650      102.437       66.633        0.213        0.015       62.580        4.750        0.006      330.131       -2.693      870.316
01/05/2014  01:53:00      -62.977      -10.791      -11.055        5.228        6.536        5.869       27.334       42.717       34.440        0.215        0.005       63.895        2.908        0.002      330.208       -2.565      870.318
01/05/2014  01:54:00      -54.197      -12.624      -11.621        6.305       10.032        7.554       39.759      100.642       57.056        0.171        0.010       55.648        5.878        0.011      330.310       -2.400      870.322
01/05/2014  01:55:00      -56.945      -25.737      -13.949        8.243        8.174        5.682       67.954       66.818       32.289        0.213        0.008       62.491        3.863        0.004      330.344       -2.343      870.314
01/05/2014  01:56:00      -64.059      -33.951       -7.984       12.222        7.847        5.739      149.388       61.579       32.941        0.278        0.012       72.500        3.315        0.002      330.395       -2.261      870.319
01/05/2014  01:57:00      -76.032      -46.949       -8.960       16.517       13.228       11.210      272.818      174.982      125.665        0.432        0.029       89.359        3.904        0.002      330.336       -2.357      870.322
01/05/2014  01:58:00      -86.157      -82.375       -7.674       35.138       24.780       19.789     1234.689      614.034      391.598        0.825        0.112      119.200       14.606        0.015      330.240       -2.514      870.329
01/05/2014  01:59:00      -82.632      -70.578      -11.362       26.150       40.823       23.130      683.834     1666.548      535.001        0.741        0.144      108.671       20.200        0.035      330.182       -2.609      870.338
01/05/2014  02:00:00      -49.198      -52.435        1.818       41.780       27.947       19.996     1745.570      781.013      399.826        0.405        0.146       71.902       18.441        0.066      330.163       -2.640      870.353
01/05/2014  02:01:00      -71.908      -47.802       -2.309       25.265       20.033       18.563      638.319      401.310      344.570        0.442        0.069       86.347       13.368        0.024      330.061       -2.808      870.375
01/05/2014  02:02:00      -72.445      -47.178       -3.432       28.385       16.423       15.212      805.728      269.707      231.409        0.440        0.065       86.453       12.980        0.023      330.023       -2.869      870.387
01/05/2014  02:03:00      -41.553      -56.383        2.442       27.468       26.683       14.654      754.498      711.994      214.743        0.330        0.084       70.041       15.740        0.051      330.026       -2.865      870.384
01/05/2014  02:04:00      -60.772      -54.915        0.565       25.103       36.448       16.335      630.168     1328.440      266.838        0.447        0.111       81.908       10.397        0.016      329.985       -2.932      870.391
01/05/2014  02:05:00      -61.567      -75.275       -3.883       18.276       20.057       12.737      334.010      402.285      162.225        0.519        0.045       97.246       10.102        0.011      329.997       -2.912      870.399
01/05/2014  02:06:00      -49.043      -45.956       -0.876       25.641       18.131       16.052      657.442      328.729      257.660        0.288        0.062       67.210       15.047        0.050      330.040       -2.842      870.399
01/05/2014  02:07:00      -36.366      -33.412        8.927       36.128       15.350       15.280     1305.221      235.608      233.481        0.215        0.089       49.385        5.384        0.012      330.032       -2.856      870.403
01/05/2014  02:08:00      -39.090      -24.279        0.770       31.715       14.093        9.958     1005.859      198.610       99.152        0.171        0.065       46.016        3.465        0.006      329.934       -3.015      870.400
01/05/2014  02:09:00      -59.472      -24.777       -0.684       36.642       16.494       12.257     1342.669      272.045      150.243        0.296        0.088       64.427       10.759        0.028      329.907       -3.059      870.401
01/05/2014  02:10:00      -65.589      -34.268       -6.602       16.995       10.930        9.259      288.816      119.469       85.733        0.301        0.025       74.002        5.146        0.005      329.866       -3.127      870.406
01/05/2014  02:11:00      -38.353      -27.617       -0.146       14.493       13.375       13.646      210.033      178.890      186.219        0.140        0.029       47.262        9.990        0.045      329.940       -3.005      870.420
01/05/2014  02:12:00      -53.940      -44.471       -5.302       17.028       15.667       14.138      289.969      245.459      199.890        0.283        0.037       69.909        6.986        0.010      329.998       -2.911      870.426
01/05/2014  02:13:00      -76.724      -34.110       -3.903       13.165       15.966       11.552      173.329      254.920      133.453        0.381        0.028       83.964        6.310        0.006      329.950       -2.990      870.436
01/05/2014  02:14:00      -99.121      -39.316       -6.125       19.440       16.700       14.008      377.923      278.899      196.230        0.613        0.043      106.633       10.721        0.010      329.926       -3.029      870.439
01/05/2014  02:15:00     -101.380      -44.619       -9.359       18.231       14.228       10.212      332.370      202.441      104.277        0.650        0.032      110.765        7.170        0.004      329.935       -3.014      870.442
01/05/2014  02:16:00     -110.745      -45.832       -9.231       23.313       16.905       15.291      543.475      285.789      233.807        0.776        0.053      119.855       12.167        0.010      329.856       -3.143      870.445
01/05/2014  02:17:00      -67.043      -54.315        4.533       38.107       32.054       18.422     1452.131     1027.472      339.369        0.514        0.141       86.284       17.797        0.043      329.905       -3.063      870.447
01/05/2014  02:18:00      -68.779      -77.463       -0.991       41.136       39.073       23.330     1692.166     1526.660      544.306        0.725        0.188      103.591       24.674        0.057      329.977       -2.944      870.450
01/05/2014  02:19:00     -114.458     -113.474       -8.331       57.534       43.644       31.677     3310.135     1904.812     1003.456        1.613        0.311      161.174       26.777        0.028      329.949       -2.992      870.447
01/05/2014  02:20:00      -16.297      -35.636       21.603       52.394       43.044       34.930     2745.160     1852.793     1220.117        0.391        0.291       39.185       30.588        0.609      329.800       -3.233      870.444
01/05/2014  02:21:00     -121.929      -98.604       -7.685       61.146       43.541       39.007     3738.826     1895.833     1521.509        1.590        0.358      156.810       29.059        0.034      329.721       -3.364      870.432
01/05/2014  02:22:00     -126.502     -101.830      -10.376       37.381       40.316       18.480     1397.348     1625.369      341.518        1.492        0.168      162.395       13.323        0.007      329.685       -3.423      870.424
01/05/2014  02:23:00     -122.988      -98.598      -10.605       47.240       28.424       23.003     2231.603      807.948      529.142        1.426        0.178      157.631       22.891        0.021      329.699       -3.399      870.411
01/05/2014  02:24:00      -54.904      -46.289        9.935       54.246       42.051       25.950     2942.673     1768.301      673.382        0.532        0.269       71.813       31.349        0.191      329.704       -3.391      870.406
01/05/2014  02:25:00      -59.760      -51.382        2.589       47.778       30.532       17.491     2282.712      932.194      305.942        0.487        0.176       78.812       18.543        0.055      329.769       -3.285      870.417
01/05/2014  02:26:00      -82.649      -60.451        1.550       32.505       25.115       17.363     1056.579      630.749      301.465        0.624        0.099      102.397       13.369        0.017      329.738       -3.336      870.419
01/05/2014  02:27:00     -100.244      -56.928        4.243       38.583       30.938       21.274     1488.679      957.162      452.593        0.810        0.145      115.281       20.204        0.031      329.667       -3.452      870.425
01/05/2014  02:28:00     -103.756      -55.531       -2.204       31.294       33.368       17.222      979.291     1113.397      296.586        0.812        0.119      117.682       17.457        0.022      329.681       -3.428      870.455
01/05/2014  02:29:00     -131.328      -30.786      -13.435       17.046       16.295       13.010      290.575      265.521      169.248        0.955        0.036      134.888        6.366        0.002      329.631       -3.511      870.483
01/05/2014  02:30:00     -121.796      -55.274      -10.141       21.439       22.237       14.730      459.628      494.470      216.979        0.958        0.059      133.751       12.718        0.009      329.629       -3.514      870.494
01/05/2014  02:31:00     -111.405      -32.098       -0.264       27.778       21.065       17.423      771.597      443.735      303.563        0.748        0.076      115.937       14.725        0.016      329.616       -3.536      870.492
01/05/2014  02:32:00     -111.008      -34.323       -3.452       23.621       16.150       13.388      557.941      260.810      179.230        0.726        0.050      116.193       11.902        0.010      329.659       -3.465      870.480
01/05/2014  02:33:00     -101.492      -29.813      -13.817       10.582        9.147        6.578      111.972       83.675       43.269        0.581        0.012      105.780        5.565        0.003      329.666       -3.455      870.471
01/05/2014  02:34:00      -80.119      -33.827       -8.832       15.876       18.848       13.904      252.049      355.265      193.313        0.422        0.040       86.967        9.151        0.011      329.659       -3.467      870.460
01/05/2014  02:35:00      -88.663      -22.441      -10.365       16.158       17.231       10.216      261.087      296.903      104.373        0.457        0.033       91.459        7.759        0.007      329.682       -3.428      870.459
01/05/2014  02:36:00      -78.570      -54.321       -8.824       14.400       16.903       10.940      207.361      285.707      119.690        0.491        0.031       95.520        5.921        0.004      329.704       -3.391      870.469
01/05/2014  02:37:00      -75.008      -47.673       -8.845       13.060       14.535       10.481      170.562      211.260      109.861        0.423        0.025       88.876        6.741        0.006      329.676       -3.438      870.483
01/05/2014  02:38:00      -65.673      -32.836      -10.345       12.830       14.228        8.624      164.618      202.443       74.381        0.297        0.022       73.425        2.208        0.001      329.635       -3.506      870.501
01/05/2014  02:39:00      -30.170      -13.643       -7.267       18.425       12.908        9.596      339.464      166.624       92.087        0.087        0.030       33.112        6.639        0.040      329.620       -3.530      870.545
01/05/2014  02:40:00      -42.543      -11.607       -7.059       12.553       12.108        8.677      157.566      146.610       75.295        0.119        0.019       44.098        7.167        0.026      329.788       -3.254      870.576
01/05/2014  02:41:00      -43.034      -12.617       -7.031       10.037       10.548        9.080      100.751      111.254       82.452        0.118        0.015       44.845        8.225        0.034      329.827       -3.189      870.594
01/05/2014  02:42:00      -41.542      -20.089       -5.891       14.747       13.745       13.749      217.478      188.915      189.034        0.138        0.030       46.144        4.970        0.012      329.819       -3.203      870.597
01/05/2014  02:43:00      -43.733      -13.899       -7.109       19.946       18.088       13.015      397.848      327.184      169.402        0.153        0.045       45.889        6.700        0.021      329.764       -3.294      870.589
01/05/2014  02:44:00      -38.668      -22.237       -2.522        8.846       13.988       10.479       78.256      195.660      109.809        0.119        0.019       44.606        7.830        0.031      329.778       -3.268      870.578
01/05/2014  02:45:00      -34.697      -22.305        2.169        8.224       11.483        8.562       67.639      131.868       73.300        0.099        0.014       41.248        5.785        0.020      329.803       -3.230      870.572
01/05/2014  02:46:00      -41.867      -29.743       -2.439       11.717        9.537        7.324      137.288       90.946       53.636        0.146        0.014       51.357        4.050        0.006      329.829       -3.187      870.568
01/05/2014  02:47:00      -63.460      -35.180      -13.052        9.151       11.798        9.360       83.739      139.201       87.607        0.287        0.016       72.559        6.798        0.009      329.818       -3.206      870.561
01/05/2014  02:48:00      -65.726      -38.912      -10.941       13.081       13.132       11.448      171.122      172.440      131.066        0.321        0.024       76.381        7.953        0.011      329.700       -3.399      870.573
01/05/2014  02:49:00      -62.630      -55.009      -10.927       15.799       16.589       16.158      249.616      275.182      261.084        0.393        0.039       83.358       11.231        0.018      329.683       -3.426      870.583
01/05/2014  02:50:00      -88.226      -10.429      -16.292       15.784       22.827       10.469      249.141      521.078      109.595        0.452        0.044       88.841        7.386        0.007      329.642       -3.493      870.576
01/05/2014  02:51:00     -105.606        1.512      -20.959       10.435       11.267       12.639      108.880      126.945      159.749        0.599        0.020      105.617        6.652        0.004      329.815       -3.211      870.561
01/05/2014  02:52:00      -89.908      -20.135      -14.797       22.110       20.859       15.164      488.866      435.091      229.959        0.493        0.058       92.135       14.948        0.026      329.584       -3.589      870.547
01/05/2014  02:53:00      -69.396      -19.724      -16.707        9.719       12.001        9.791       94.466      144.034       95.868        0.291        0.017       72.144        5.733        0.006      329.589       -3.578      870.538
01/05/2014  02:54:00      -97.482       -4.754      -17.556       11.620        9.631        7.805      135.021       92.765       60.913        0.506        0.014       97.598        5.013        0.003      329.701       -3.395      870.544
01/05/2014  02:55:00      -92.219       -1.778      -17.518       13.614       12.857       12.312      185.351      165.313      151.585        0.466        0.025       92.236        6.505        0.005      329.713       -3.377      870.556
01/05/2014  02:56:00     -103.045       -6.922      -20.654       17.470       10.854        7.930      305.208      117.804       62.889        0.579        0.024      103.277        4.830        0.002      329.769       -3.286      870.563
01/05/2014  02:57:00      -77.839       -6.477      -11.718       19.420       16.006       13.349      377.119      256.185      178.200        0.352        0.041       78.108        9.205        0.014      329.697       -3.403      870.558
01/05/2014  02:58:00      -57.003      -19.324       -9.217       23.612       17.820       13.866      557.535      317.543      192.253        0.239        0.053       60.190       14.206        0.056      329.694       -3.408      870.566
01/05/2014  02:59:00      -31.986      -31.094       -3.332       23.068       14.978       15.402      532.124      224.353      237.222        0.150        0.050       44.609       14.033        0.099      329.740       -3.332      870.571
01/05/2014  03:00:00      -63.758      -24.835       -8.081       26.886       22.642       15.083      722.846      512.639      227.502        0.310        0.073       68.424       12.751        0.035      329.641       -3.496      870.586
01/05/2014  03:01:00      -99.757      -20.718      -11.713       25.350       22.452       14.610      642.607      504.098      213.456        0.594        0.068      101.886       10.289        0.010      329.532       -3.673      870.589
01/05/2014  03:02:00      -78.074      -19.716       -7.051       23.565       27.589       13.820      555.326      761.152      190.985        0.402        0.075       80.525        5.978        0.006      329.548       -3.646      870.578
01/05/2014  03:03:00     -120.534      -24.017      -13.641       39.598       26.656       21.040     1568.026      710.526      442.667        0.901        0.136      122.904       15.808        0.017      329.449       -3.809      870.566
01/05/2014  03:04:00     -112.332      -21.375       -7.878       29.244       27.940       15.204      855.210      780.663      231.150        0.750        0.093      114.348       12.172        0.011      329.469       -3.775      870.552
01/05/2014  03:05:00     -103.814      -43.155      -12.256       25.984       25.265       17.147      675.163      638.302      294.028        0.720        0.080      112.426       10.230        0.008      329.464       -3.784      870.539
01/05/2014  03:06:00     -105.892      -51.283      -13.066       20.591       21.363       14.848      423.999      456.371      220.477        0.756        0.055      117.656        7.700        0.004      329.522       -3.691      870.543
01/05/2014  03:07:00     -102.572      -33.394       -9.654       20.873       17.606       13.855      435.698      309.964      191.953        0.633        0.047      107.871        6.030        0.003      329.566       -3.617      870.544
01/05/2014  03:08:00      -87.509      -49.574      -10.629       27.565       18.846       15.463      759.855      355.182      239.116        0.579        0.068      100.575       12.832        0.016      329.575       -3.603      870.545
01/05/2014  03:09:00     -104.639      -38.257      -14.435       12.324       13.063        9.456      151.889      170.652       89.423        0.652        0.021      111.414        4.449        0.002      329.600       -3.563      870.548
01/05/2014  03:10:00      -80.816      -40.655       -6.359       21.248       15.349       17.079      451.490      235.583      291.678        0.460        0.049       90.466        6.368        0.005      329.602       -3.558      870.550
01/05/2014  03:11:00      -88.371      -33.405      -15.634        9.791       13.211        8.721       95.868      174.536       76.048        0.476        0.017       94.473        5.961        0.004      329.530       -3.675      870.547
01/05/2014  03:12:00      -73.641      -12.322      -11.274       13.179       12.643       10.143      173.698      159.844      102.881        0.307        0.022       74.665        6.333        0.007      329.576       -3.601      870.546
01/05/2014  03:13:00      -73.730       -8.784      -11.584       10.607        9.944        8.209      112.518       98.876       67.394        0.296        0.014       74.252        4.574        0.004      329.588       -3.581      870.545
01/05/2014  03:14:00      -71.695      -12.385      -13.253        8.772        7.861        5.654       76.945       61.792       31.968        0.282        0.009       72.757        1.066        0.000      329.554       -3.638      870.542
01/05/2014  03:15:00      -84.980      -13.693      -12.423       16.144        9.340        7.558      260.624       87.232       57.123        0.398        0.020       86.076        2.685        0.001      329.673       -3.443      870.538
01/05/2014  03:16:00      -91.911      -27.017      -14.669       18.289       14.362        9.915      334.485      206.264       98.314        0.502        0.032       95.800        8.161        0.007      329.692       -3.412      870.534
01/05/2014  03:17:00      -48.948      -36.561       -9.238       22.467       21.616       12.926      504.752      467.273      167.086        0.248        0.057       61.095        4.057        0.004      329.713       -3.378      870.546
01/05/2014  03:18:00      -54.196      -31.759       -3.123       17.548       29.657       20.275      307.934      879.524      411.056        0.278        0.080       62.816       18.002        0.082      329.637       -3.501      870.563
01/05/2014  03:19:00      -26.734      -30.716       -0.201       39.051       17.554       15.162     1524.966      308.147      229.881        0.186        0.103       40.721       18.314        0.202      329.589       -3.579      870.581
01/05/2014  03:20:00      -53.625      -21.206       -2.009       26.423       13.649       12.130      698.192      186.286      147.125        0.218        0.052       57.666       11.923        0.043      329.456       -3.797      870.608
01/05/2014  03:21:00      -95.931      -63.441        3.049       45.926       27.204       19.528     2109.242      740.047      381.341        0.823        0.162      115.011        9.690        0.007      329.503       -3.719      870.625
01/05/2014  03:22:00     -103.474      -75.172       -7.796       36.272       33.926       19.137     1315.629     1150.988      366.241        0.963        0.142      127.898       15.849        0.015      329.450       -3.806      870.629
01/05/2014  03:23:00      -99.608      -96.573       -6.967       49.184       41.393       24.318     2419.073     1713.400      591.358        1.201        0.236      138.737       25.475        0.034      329.344       -3.981      870.641
01/05/2014  03:24:00     -138.498     -114.929       -6.353       44.828       43.495       30.388     2009.572     1891.806      923.420        1.863        0.241      179.973       25.357        0.020      329.270       -4.103      870.649
01/05/2014  03:25:00     -136.970      -86.875        4.342       39.448       42.164       24.020     1556.130     1777.832      576.960        1.512        0.196      162.198       19.711        0.015      329.317       -4.025      870.651
01/05/2014  03:26:00     -133.004      -71.589       -5.415       34.417       31.551       23.794     1184.522      995.456      566.145        1.279        0.137      151.047       15.508        0.011      329.332       -4.000      870.651
01/05/2014  03:27:00     -123.583      -54.814       -6.561       28.935       25.690       12.611      837.216      659.964      159.037        0.999        0.083      135.194       12.075        0.008      329.333       -3.999      870.650
01/05/2014  03:28:00      -94.786      -55.238       -4.370       23.137       22.198       13.825      535.306      492.769      191.125        0.664        0.061      109.707       10.040        0.008      329.340       -3.985      870.667
01/05/2014  03:29:00      -93.967      -45.845      -11.353       39.509       20.915       17.428     1560.945      437.454      303.719        0.668        0.115      104.555       13.613        0.017      329.333       -3.998      870.680
01/05/2014  03:30:00      -69.601      -47.900        0.407       35.558       19.598       17.519     1264.389      384.094      306.920        0.455        0.098       84.491       15.945        0.036      329.382       -3.919      870.683
01/05/2014  03:31:00      -91.859      -59.327       -6.429       23.115       26.243       17.948      534.323      688.692      322.118        0.677        0.077      109.352       12.945        0.014      329.318       -4.023      870.686
01/05/2014  03:32:00      -99.590      -22.531      -11.489       19.555       21.955       14.571      382.403      482.036      212.324        0.582        0.054      102.107       10.009        0.010      329.305       -4.044      870.695
01/05/2014  03:33:00     -123.469       -1.157      -16.766       14.725       13.447       12.968      216.827      180.821      168.179        0.805        0.028      123.474        6.953        0.003      329.199       -4.217      870.678
01/05/2014  03:34:00     -119.085       -2.035      -13.864       26.708       18.283       14.884      713.306      334.272      221.541        0.782        0.063      119.103       11.920        0.010      329.137       -4.318      870.655
01/05/2014  03:35:00      -64.273        4.160       -6.503       34.819       20.431       20.616     1212.370      417.436      425.032        0.312        0.103       64.407       16.598        0.066      329.230       -4.166      870.638
01/05/2014  03:36:00      -58.993        3.652      -13.558       18.505       15.860        9.576      342.438      251.553       91.693        0.218        0.034       59.106        6.686        0.013      329.298       -4.057      870.622
01/05/2014  03:37:00      -43.949       -7.643      -10.132       14.762       18.957       14.145      217.927      359.358      200.083        0.143        0.039       44.608       11.699        0.069      329.390       -3.904      870.621
01/05/2014  03:38:00      -17.098       -8.922       -3.728       13.600        9.996        7.604      184.964       99.917       57.823        0.036        0.017       19.286        1.642        0.007      329.442       -3.821      870.642
01/05/2014  03:39:00      -37.415      -10.919      -10.215       22.160       10.666        7.681      491.064      113.768       58.991        0.114        0.033       38.976        4.301        0.012      329.498       -3.728      870.669
01/05/2014  03:40:00      -62.243      -11.510       -4.815       20.432       19.530       13.145      417.456      381.426      172.781        0.250        0.049       63.299        9.273        0.021      329.371       -3.937      870.679
01/05/2014  03:41:00      -52.655       -9.340       -4.374       10.822       14.116       14.041      117.118      199.259      197.162        0.170        0.026       53.477        8.269        0.024      329.305       -4.045      870.687
01/05/2014  03:42:00      -39.272      -12.969       -0.747       17.548       14.305       11.584      307.918      204.634      134.186        0.118        0.032       41.358        5.160        0.016      329.282       -4.082      870.696
01/05/2014  03:43:00      -74.965       -6.277      -11.311       14.716       15.330       10.535      216.571      235.018      110.978        0.317        0.028       75.227        4.763        0.004      329.241       -4.148      870.697
01/05/2014  03:44:00      -79.738       -4.488       -9.528       15.598       13.877       11.007      243.313      192.561      121.150        0.351        0.028       79.864        4.274        0.003      329.337       -3.992      870.701
01/05/2014  03:45:00      -73.821      -11.891       -9.607       20.489       15.750       15.896      419.813      248.052      252.685        0.330        0.046       74.772       14.444        0.037      329.291       -4.068      870.695
01/05/2014  03:46:00      -87.875      -11.954      -13.462        9.321       10.228       10.187       86.888      104.612      103.784        0.417        0.015       88.684        5.457        0.004      329.268       -4.103      870.698
01/05/2014  03:47:00      -84.241       -9.791      -17.483       11.629        7.524        9.537      135.243       56.616       90.948        0.389        0.014       84.808        5.743        0.005      329.275       -4.093      870.704
01/05/2014  03:48:00      -91.542      -25.360      -11.177       15.439       21.693       12.548      238.361      470.582      157.461        0.501        0.043       94.990       11.250        0.014      329.285       -4.078      870.702
01/05/2014  03:49:00     -126.255      -32.388      -16.307       15.930       12.381       11.316      253.780      153.286      128.058        0.890        0.027      130.343        4.558        0.001      329.231       -4.165      870.706
01/05/2014  03:50:00     -114.984      -51.154      -11.328       19.216       18.776        9.861      369.252      352.520       97.243        0.839        0.041      125.850        8.321        0.004      329.319       -4.021      870.718
01/05/2014  03:51:00     -108.368      -64.843      -10.653       24.608       17.658       14.316      605.558      311.796      204.962        0.859        0.056      126.286       13.205        0.011      329.290       -4.068      870.742
01/05/2014  03:52:00      -81.831      -67.016        0.190       37.593       27.330       20.446     1413.271      746.929      418.046        0.688        0.129      105.771       18.468        0.030      329.374       -3.932      870.769
01/05/2014  03:53:00      -70.245      -40.076        5.480       39.610       21.282       16.179     1568.954      452.920      261.772        0.443        0.114       80.873       18.354        0.052      329.380       -3.922      870.791
01/05/2014  03:54:00      -74.558      -46.177        4.812       28.568       18.559       15.297      816.110      344.451      234.009        0.455        0.070       87.699       11.334        0.017      329.332       -4.000      870.798
01/05/2014  03:55:00      -70.537      -14.004       -6.050       10.264       14.012       10.097      105.358      196.341      101.946        0.281        0.020       71.914        6.364        0.008      329.310       -4.037      870.808
01/05/2014  03:56:00      -72.629       -6.021       -7.895       14.019       12.131       10.489      196.538      147.162      110.012        0.291        0.023       72.879        7.718        0.011      329.347       -3.976      870.801
01/05/2014  03:57:00     -103.834        1.865      -13.679       17.800       12.282       10.110      316.824      150.848      102.219        0.577        0.028      103.851        7.511        0.005      329.301       -4.050      870.778
01/05/2014  03:58:00     -107.129      -23.043      -17.871       13.879       15.061       10.290      192.628      226.843      105.885        0.643        0.026      109.579        7.586        0.005      329.303       -4.047      870.760
01/05/2014  03:59:00      -68.438      -25.290      -13.269       22.505       14.922        6.866      506.472      222.664       47.148        0.314        0.039       72.961        7.126        0.010      329.313       -4.030      870.763
01/05/2014  04:00:00       -5.745      -31.698        1.488       17.332       18.631       12.264      300.412      347.115      150.411        0.092        0.040       32.215       13.440        0.174      329.381       -3.921      870.784
01/05/2014  04:01:00      -29.583      -25.924       -2.427       32.794       16.152       17.602     1075.474      260.889      309.847        0.160        0.082       39.335       19.369        0.242      329.441       -3.821      870.805
01/05/2014  04:02:00      -58.637      -43.624      -13.136       12.847       17.872       14.549      165.041      319.399      211.681        0.310        0.035       73.085       10.003        0.019      329.333       -3.999      870.828
01/05/2014  04:03:00      -90.246      -36.255       -9.998       15.109       17.907       10.618      228.274      320.664      112.736        0.511        0.033       97.256        7.362        0.006      329.296       -4.058      870.842
01/05/2014  04:04:00      -84.982      -27.598      -10.049       10.652       10.885        7.976      113.458      118.488       63.621        0.419        0.015       89.351        4.963        0.003      329.296       -4.058      870.867
01/05/2014  04:05:00      -78.208      -19.962       -8.425        8.276       16.490        9.747       68.485      271.927       94.996        0.351        0.022       80.715        7.707        0.009      329.343       -3.984      870.879
01/05/2014  04:06:00      -87.740      -32.391       -9.225       11.844       15.029       11.567      140.287      225.863      133.794        0.467        0.025       93.528        5.349        0.003      329.395       -3.896      870.878
01/05/2014  04:07:00      -98.301      -39.795      -10.117       11.635       12.951        8.630      135.380      167.733       74.475        0.586        0.019      106.051        5.527        0.003      329.295       -4.059      870.878
01/05/2014  04:08:00     -100.390      -36.907      -12.941        7.964        7.311        9.263       63.426       53.457       85.809        0.591        0.010      106.960        2.834        0.001      329.314       -4.029      870.875
01/05/2014  04:09:00      -74.629      -38.729       -7.330       17.113       11.333        8.851      292.851      128.428       78.342        0.381        0.025       84.080        8.189        0.009      329.310       -4.037      870.882
01/05/2014  04:10:00      -62.575      -28.029      -10.380       12.874       10.295        7.886      165.732      105.978       62.196        0.257        0.017       68.566        5.563        0.007      329.371       -3.936      870.887
01/05/2014  04:11:00      -78.772      -16.870      -13.169       10.970        9.088        8.377      120.336       82.596       70.178        0.347        0.014       80.558        5.493        0.005      329.369       -3.940      870.890
01/05/2014  04:12:00      -85.833      -15.523      -16.664       16.352       10.004       10.569      267.401      100.073      111.703        0.418        0.024       87.225        8.648        0.010      329.354       -3.964      870.884
01/05/2014  04:13:00      -92.864      -18.803      -17.845       12.498        8.613        6.858      156.212       74.185       47.038        0.479        0.014       94.748        4.304        0.002      329.381       -3.921      870.875
01/05/2014  04:14:00      -91.929       -9.839      -16.729       12.209       13.365       10.531      149.061      178.632      110.897        0.463        0.022       92.454        4.661        0.003      329.337       -3.993      870.865
01/05/2014  04:15:00      -36.748      -16.891        1.716       20.073       14.835       14.028      402.939      220.087      196.779        0.123        0.041       40.444        8.376        0.043      329.307       -4.041      870.859
01/05/2014  04:16:00      -32.091       -9.847       -5.398       12.226       11.650        9.824      149.477      135.716       96.514        0.077        0.019       33.568        7.647        0.052      329.513       -3.705      870.849
01/05/2014  04:17:00      -38.798      -13.671       -6.839       14.915        5.444        5.525      222.456       29.640       30.531        0.101        0.014       41.137        5.252        0.016      329.495       -3.733      870.837
01/05/2014  04:18:00      -59.902      -14.375       -9.089       10.031        6.540        5.267      100.628       42.774       27.739        0.202        0.009       61.602        4.554        0.005      329.341       -3.986      870.834
01/05/2014  04:19:00      -53.850      -18.983       -9.473       10.709        9.772        8.629      114.678       95.500       74.461        0.182        0.014       57.098        4.064        0.005      329.387       -3.912      870.841
01/05/2014  04:20:00      -51.086      -16.222       -9.044       11.003        8.258        6.717      121.071       68.201       45.111        0.159        0.012       53.600        4.167        0.006      329.373       -3.933      870.851
01/05/2014  04:21:00      -63.321      -20.329       -8.962        9.273        8.255        7.787       85.997       68.149       60.637        0.236        0.011       66.504        4.516        0.005      329.416       -3.862      870.859
01/05/2014  04:22:00      -84.189      -31.196      -11.129       10.088        9.287        8.576      101.765       86.247       73.550        0.422        0.013       89.783        4.919        0.003      329.252       -4.130      870.848
01/05/2014  04:23:00      -88.225      -26.256      -16.667       11.945        8.048        8.766      142.691       64.771       76.847        0.452        0.014       92.049        6.091        0.004      329.263       -4.112      870.826
01/05/2014  04:24:00      -67.169      -29.805       -4.698       16.103       13.692        9.922      259.302      187.464       98.439        0.298        0.027       73.485        7.310        0.010      329.351       -3.969      870.821
01/05/2014  04:25:00      -53.358      -23.264       -4.377       11.915       11.442        7.423      141.977      130.909       55.095        0.187        0.016       58.209        4.737        0.007      329.416       -3.863      870.822
01/05/2014  04:26:00      -40.828      -13.197       -0.413        6.134        5.925        6.494       37.630       35.106       42.176        0.098        0.006       42.908        3.716        0.007      329.567       -3.617      870.821
01/05/2014  04:27:00      -41.910      -17.223       -7.276       10.452        8.231        5.891      109.245       67.752       34.709        0.116        0.011       45.310        4.006        0.008      329.556       -3.634      870.813
01/05/2014  04:28:00      -54.152      -19.880       -4.639        7.190        7.139        7.601       51.693       50.963       57.783        0.175        0.008       57.686        4.930        0.007      329.384       -3.914      870.806
01/05/2014  04:29:00      -40.357      -27.676       -5.917       20.112        9.081        6.025      404.502       82.461       36.304        0.148        0.026       48.935        3.474        0.005      329.364       -3.948      870.813
01/05/2014  04:30:00      -69.896      -20.900      -12.856        5.713        6.678        6.602       32.643       44.598       43.585        0.280        0.006       72.954        3.821        0.003      329.306       -4.043      870.822
01/05/2014  04:31:00      -59.024      -22.539      -12.708        8.777        8.284        6.733       77.032       68.632       45.330        0.217        0.010       63.181        4.076        0.004      329.351       -3.970      870.828
01/05/2014  04:32:00      -17.440      -18.269       -3.059       15.955       10.067       11.007      254.559      101.337      121.152        0.056        0.024       25.257        9.860        0.152      329.395       -3.897      870.838
01/05/2014  04:33:00      -19.776       -9.444       -4.229        9.844        8.775        6.780       96.913       76.995       45.972        0.036        0.011       21.915        5.129        0.055      329.420       -3.858      870.833
01/05/2014  04:34:00      -46.530       -7.460       -8.343       10.991        9.263        6.033      120.806       85.797       36.396        0.127        0.012       47.124        3.696        0.006      329.455       -3.799      870.825
01/05/2014  04:35:00      -66.256      -16.298      -10.551        7.818        9.388        8.503       61.127       88.126       72.296        0.249        0.011       68.231        4.038        0.004      329.274       -4.095      870.826
01/05/2014  04:36:00      -54.337      -31.370      -10.602       15.593        8.177        8.483      243.139       66.868       71.966        0.222        0.019       62.742        3.789        0.004      329.302       -4.051      870.830
01/05/2014  04:37:00      -73.305      -31.892       -6.245        8.690        9.512        6.655       75.518       90.484       44.291        0.332        0.011       79.942        2.894        0.001      329.235       -4.158      870.845
01/05/2014  04:38:00      -81.038      -29.592      -12.805       10.889       11.765        8.598      118.565      138.415       73.925        0.397        0.017       86.272        6.457        0.006      329.200       -4.217      870.849
01/05/2014  04:39:00      -91.884      -20.716      -15.404       10.660       10.943        8.327      113.642      119.740       69.341        0.471        0.015       94.191        3.959        0.002      329.173       -4.260      870.847
01/05/2014  04:40:00      -81.265      -32.752       -7.380        9.277       15.649        8.450       86.068      244.899       71.399        0.407        0.020       87.616        5.446        0.004      329.175       -4.257      870.839
01/05/2014  04:41:00      -89.509      -35.269      -11.744       10.088       11.609        7.493      101.772      134.773       56.138        0.484        0.015       96.207        2.860        0.001      329.179       -4.249      870.834
01/05/2014  04:42:00      -96.455      -53.301      -11.068       16.321       12.013        8.972      266.384      144.315       80.497        0.638        0.025      110.202        6.381        0.003      329.129       -4.331      870.846
01/05/2014  04:43:00      -90.367      -75.471       -5.439       31.139       28.407       20.904      969.619      806.976      436.973        0.805        0.111      117.737       13.882        0.014      329.085       -4.404      870.863
01/05/2014  04:44:00     -107.554      -66.860        3.945       31.810       24.775       20.871     1011.900      613.782      435.582        0.906        0.103      126.642       18.457        0.021      329.138       -4.316      870.876
01/05/2014  04:45:00      -97.322      -54.575        4.646       44.078       23.244       21.005     1942.842      540.263      441.220        0.770        0.146      111.580       24.464        0.048      329.073       -4.422      870.884
01/05/2014  04:46:00      -98.511      -53.567       -1.985       33.373       23.572       22.321     1113.727      555.636      498.229        0.737        0.108      112.133       21.595        0.037      329.044       -4.472      870.883
01/05/2014  04:47:00      -81.769      -52.662       -1.028       41.719       27.607       20.572     1740.492      762.128      423.208        0.619        0.146       97.260       18.944        0.038      329.100       -4.379      870.881
01/05/2014  04:48:00      -97.429      -47.712      -12.326       19.404       17.584       15.445      376.499      309.190      238.545        0.642        0.046      108.484        6.948        0.004      329.053       -4.456      870.871
01/05/2014  04:49:00      -82.309      -45.990       -9.500       24.807       18.061       13.401      615.410      326.190      179.599        0.505        0.056       94.285       10.622        0.013      329.091       -4.393      870.861
01/05/2014  04:50:00      -91.396      -17.836      -15.054       15.562       16.220       12.187      242.189      263.095      148.532        0.478        0.033       93.120        7.612        0.007      328.985       -4.567      870.859
01/05/2014  04:51:00     -109.661      -20.909       -7.557       27.879       17.163       13.277      777.211      294.585      176.286        0.688        0.062      111.637       12.230        0.012      329.030       -4.494      870.855
01/05/2014  04:52:00     -107.837      -35.250       -2.974       26.673       17.343       16.446      711.469      300.779      270.483        0.708        0.064      113.452       14.968        0.017      329.001       -4.542      870.835
01/05/2014  04:53:00     -149.224      -45.998       -7.585       18.178       18.240       14.040      330.439      332.701      197.113        1.265        0.043      156.153       12.217        0.006      329.051       -4.459      870.829
01/05/2014  04:54:00     -125.940      -62.849       -3.436       29.824       30.905       17.957      889.495      955.126      322.438        1.099        0.108      140.751       16.440        0.014      329.071       -4.427      870.824
01/05/2014  04:55:00     -100.409      -48.102      -12.500       19.926       26.373       14.991      397.030      695.526      224.727        0.693        0.066      111.336        9.043        0.007      328.993       -4.553      870.828
01/05/2014  04:56:00     -102.895      -49.280      -18.316       18.744       22.286       12.312      351.341      496.681      151.592        0.718        0.050      114.088        4.033        0.001      328.989       -4.560      870.847
01/05/2014  04:57:00     -121.883      -43.361       -4.913       15.989       19.826       12.395      255.643      393.063      153.640        0.878        0.040      129.367        8.841        0.005      328.948       -4.628      870.866
01/05/2014  04:58:00      -94.971      -52.619       -5.976       25.665       17.829       16.955      658.712      317.878      287.485        0.654        0.063      108.574        3.505        0.001      328.974       -4.585      870.890
01/05/2014  04:59:00      -92.043      -45.672       -8.147       21.417       15.004       13.724      458.667      225.133      188.352        0.575        0.044      102.751        9.984        0.009      328.967       -4.596      870.921
01/05/2014  05:00:00      -80.092      -48.994       -4.993       17.150       14.874       11.462      294.120      221.248      131.380        0.474        0.032       93.889       10.187        0.012      328.999       -4.544      870.942
01/05/2014  05:01:00      -84.630      -38.363       -6.826       12.434       12.335        8.463      154.616      152.152       71.625        0.453        0.019       92.919        6.341        0.005      329.029       -4.494      870.966
01/05/2014  05:02:00      -82.836      -35.987       -3.486       16.878       16.644       10.523      284.854      277.033      110.731        0.442        0.034       90.315        8.803        0.009      329.021       -4.507      870.979
01/05/2014  05:03:00      -91.230      -39.710       -5.732       14.661       14.730       10.234      214.943      216.978      104.743        0.523        0.027       99.498        7.257        0.005      329.058       -4.448      870.990
01/05/2014  05:04:00      -87.979      -35.521      -11.185       21.465       12.967       10.873      460.726      168.130      118.218        0.494        0.037       94.880        9.957        0.011      329.013       -4.523      871.019
01/05/2014  05:05:00      -71.650      -40.817       -3.525       18.984       18.483       13.274      360.402      341.612      176.202        0.384        0.044       82.460        7.280        0.008      329.066       -4.435      871.034
01/05/2014  05:06:00      -69.518      -42.897       -0.922       18.919       25.683       17.071      357.920      659.624      291.404        0.399        0.065       81.687        6.552        0.006      329.016       -4.515      871.042
01/05/2014  05:07:00      -87.866      -20.518       -8.485       22.559       17.587       11.198      508.917      309.312      125.389        0.458        0.047       90.230        9.906        0.012      329.005       -4.535      871.042
01/05/2014  05:08:00      -63.792      -26.018       -6.255       27.303       19.890       11.348      745.434      395.604      128.782        0.303        0.063       68.894       10.963        0.025      329.043       -4.473      871.042
01/05/2014  05:09:00      -92.148      -38.337      -12.291       21.234       22.587       15.819      450.897      510.184      250.248        0.566        0.061       99.805       14.090        0.020      329.025       -4.500      871.043
01/05/2014  05:10:00      -57.495      -22.454      -14.620       18.823       18.871       14.806      354.289      356.126      219.232        0.248        0.046       61.724       10.203        0.027      329.081       -4.409      871.048
01/05/2014  05:11:00      -50.056      -10.910       -4.563       16.340       16.350       16.963      266.993      267.320      287.743        0.173        0.041       51.231        6.400        0.016      329.079       -4.411      871.049
01/05/2014  05:12:00      -61.964      -11.311      -12.185       18.510       11.008       10.370      342.625      121.166      107.541        0.234        0.029       62.988        5.932        0.009      329.037       -4.481      871.044
01/05/2014  05:13:00      -49.311      -20.072      -13.205       17.457       16.016       11.361      304.741      256.525      129.081        0.185        0.035       53.240        9.882        0.034      329.093       -4.390      871.040
01/05/2014  05:14:00      -46.884      -21.456       -8.307       18.709       19.597       18.538      350.019      384.049      343.670        0.190        0.054       51.560       13.685        0.070      329.240       -4.150      871.043
01/05/2014  05:15:00      -39.202      -23.366       -3.658       15.981       19.605       11.625      255.396      384.344      135.147        0.144        0.039       45.637        6.968        0.023      329.192       -4.228      871.047
01/05/2014  05:16:00      -74.296      -12.235      -10.215       19.092       16.120       13.698      364.491      259.839      187.630        0.329        0.041       75.297       10.115        0.018      329.053       -4.455      871.049
01/05/2014  05:17:00      -84.035       -5.535      -11.944       20.695       11.596       11.455      428.285      134.476      131.216        0.396        0.035       84.218       10.518        0.016      329.050       -4.463      871.045
01/05/2014  05:18:00      -60.342       -7.552       -0.789       21.869       16.444       14.662      478.263      270.421      214.961        0.233        0.048       60.812       14.030        0.053      328.998       -4.546      871.042
01/05/2014  05:19:00      -71.075      -26.526       -8.481       21.293       15.970       11.722      453.400      255.045      137.395        0.334        0.042       75.864        9.705        0.016      329.069       -4.429      871.034
01/05/2014  05:20:00      -63.399      -34.817      -11.497       17.777       11.698        9.727      316.010      136.848       94.611        0.296        0.027       72.330        5.359        0.005      329.136       -4.321      871.027
01/05/2014  05:21:00      -75.266      -28.125      -16.157       15.203       12.041        8.101      231.135      144.977       65.628        0.358        0.022       80.350        6.670        0.007      329.106       -4.369      871.021
01/05/2014  05:22:00      -83.665      -31.987      -12.805        9.619       13.040       10.399       92.520      170.054      108.146        0.428        0.019       89.571        4.883        0.003      329.131       -4.329      871.020
01/05/2014  05:23:00      -89.209      -46.338      -11.833       10.188       14.167        8.873      103.798      200.711       78.733        0.531        0.019      100.526        5.987        0.004      329.125       -4.339      871.011
01/05/2014  05:24:00      -85.151      -37.969      -10.686       13.564        9.368        9.172      183.986       87.768       84.129        0.458        0.018       93.232        4.444        0.002      329.132       -4.328      871.002
01/05/2014  05:25:00      -92.598      -39.561       -9.800       16.222       15.077       11.692      263.152      227.309      136.694        0.543        0.031      100.694        8.795        0.008      329.087       -4.400      871.003
01/05/2014  05:26:00      -61.746      -36.240        2.226       31.959       28.563       18.684     1021.380      815.833      349.109        0.366        0.109       71.595       18.003        0.063      329.045       -4.467      871.010
01/05/2014  05:27:00      -55.468      -31.559       -2.010       18.824       17.789       11.096      354.360      316.441      123.130        0.244        0.040       63.818        8.907        0.019      329.023       -4.504      871.023
01/05/2014  05:28:00      -49.880      -34.789       -1.588       24.163       14.608       14.131      583.836      213.406      199.675        0.235        0.050       60.813       14.052        0.053      328.993       -4.554      871.035
01/05/2014  05:29:00      -66.200      -26.639       -1.445       28.684       15.940       10.854      822.753      254.083      117.811        0.314        0.060       71.359       12.051        0.029      328.962       -4.605      871.048
01/05/2014  05:30:00      -48.930      -42.677        3.626       39.045       26.166       19.518     1524.510      684.678      380.954        0.341        0.130       64.927       18.175        0.078      328.952       -4.620      871.054
01/05/2014  05:31:00      -49.238      -28.586        4.986       32.551       23.519       16.539     1059.540      553.162      273.540        0.258        0.094       56.934       16.228        0.081      328.919       -4.674      871.060
01/05/2014  05:32:00      -42.646      -33.086        1.740       30.256       22.260       18.378      915.396      495.529      337.746        0.233        0.087       53.976       10.035        0.035      329.015       -4.519      871.066
01/05/2014  05:33:00      -52.478      -28.759        6.015       44.184       28.985       20.658     1952.218      840.154      426.736        0.342        0.161       59.842       22.448        0.141      329.045       -4.470      871.074
01/05/2014  05:34:00      -21.525       -6.735        6.934       23.741       19.101       18.640      563.643      364.857      347.462        0.092        0.064       22.554       12.356        0.300      329.017       -4.515      871.085
01/05/2014  05:35:00      -62.865      -47.073        6.737       50.735       35.202       18.173     2574.003     1239.151      330.260        0.518        0.207       78.536       24.252        0.095      328.921       -4.671      871.094
01/05/2014  05:36:00      -98.311      -73.068       -2.626       61.044       63.870       35.352     3726.412     4079.401     1249.783        1.203        0.453      122.491       33.451        0.075      328.782       -4.899      871.093
01/05/2014  05:37:00     -165.811     -122.114       -7.871       48.795       49.305       32.644     2380.930     2430.958     1065.631        2.417        0.294      205.925       11.153        0.003      328.682       -5.065      871.087
01/05/2014  05:38:00     -151.674     -112.110       -3.587       66.516       41.669       37.656     4424.441     1736.313     1417.968        2.158        0.379      188.610       33.527        0.032      328.658       -5.102      871.073
01/05/2014  05:39:00     -123.812      -89.693        0.912       54.629       45.336       31.640     2984.371     2055.342     1001.109        1.471        0.302      152.886       27.265        0.032      328.647       -5.120      871.073
01/05/2014  05:40:00     -126.145      -74.464       -3.329       57.522       54.937       31.399     3308.811     3018.112      985.921        1.439        0.366      146.484       28.782        0.039      328.674       -5.074      871.058
01/05/2014  05:41:00     -108.280      -59.285       -2.506       54.771       38.843       27.417     2999.854     1508.754      751.718        1.025        0.263      123.448       26.014        0.044      328.699       -5.033      871.045
01/05/2014  05:42:00     -152.743      -88.963      -11.287       45.014       28.410       24.617     2026.243      807.151      606.001        1.741        0.172      176.762       19.684        0.012      328.701       -5.031      871.046
01/05/2014  05:43:00     -126.117      -69.513       -5.569       50.939       35.971       24.043     2594.769     1293.899      578.080        1.262        0.223      144.005       23.913        0.028      328.738       -4.970      871.062
01/05/2014  05:44:00     -121.963      -53.445       -5.444       37.260       36.704       20.664     1388.319     1347.195      426.980        1.046        0.158      133.159       21.280        0.026      328.765       -4.926      871.069
01/05/2014  05:45:00      -95.457      -35.545        4.669       44.745       35.271       23.595     2002.077     1244.026      556.740        0.710        0.190      101.860       27.180        0.071      328.747       -4.955      871.073
01/05/2014  05:46:00     -121.860      -40.859       -7.190       34.885       29.992       20.893     1216.928      899.490      436.520        0.956        0.128      128.527       21.016        0.027      328.845       -4.795      871.076
01/05/2014  05:47:00     -128.255      -33.398       -8.367       14.340       24.175       14.606      205.639      584.448      213.348        0.932        0.050      132.532       10.058        0.006      328.834       -4.813      871.096
01/05/2014  05:48:00     -136.752      -11.460      -11.706       20.220       17.035       15.576      408.849      290.180      242.596        0.996        0.047      137.231       10.288        0.006      328.774       -4.911      871.100
01/05/2014  05:49:00     -112.278      -11.156       -4.102       29.421       22.658       18.239      865.608      513.388      332.650        0.723        0.086      112.830       17.301        0.024      328.812       -4.847      871.099
01/05/2014  05:50:00      -81.074       -8.700       -1.374       28.516       32.471       17.805      813.170     1054.395      317.031        0.442        0.109       81.539       16.021        0.039      328.779       -4.903      871.100
01/05/2014  05:51:00      -56.337      -31.849        0.455       33.202       26.569       17.018     1102.350      705.921      289.604        0.314        0.105       64.716       21.508        0.110      328.879       -4.740      871.108
01/05/2014  05:52:00      -49.174      -24.415       -0.305       21.727       16.112       14.562      472.055      259.609      212.040        0.198        0.047       54.901       11.595        0.045      328.857       -4.775      871.114
01/05/2014  05:53:00      -17.963      -14.009        3.367       16.545       16.216       12.502      273.731      262.953      156.301        0.061        0.035       22.780       12.344        0.294      328.939       -4.642      871.126
01/05/2014  05:54:00      -29.460       -9.011       -2.445       23.919       13.170       12.412      572.136      173.449      154.054        0.093        0.045       30.807       11.891        0.149      328.917       -4.679      871.142
01/05/2014  05:55:00      -27.326      -18.511        6.421       11.684        8.620        9.745      136.517       74.308       94.961        0.072        0.015       33.006        5.864        0.032      328.934       -4.650      871.149
01/05/2014  05:56:00      -27.886      -18.830       -4.770       13.676        9.465        7.944      187.024       89.579       63.113        0.075        0.017       33.648        6.420        0.036      328.967       -4.596      871.173
01/05/2014  05:57:00      -35.139      -27.300       -6.978       16.886       13.034       11.076      285.143      169.894      122.679        0.130        0.029       44.498        7.758        0.030      328.986       -4.565      871.215
01/05/2014  05:58:00      -45.186      -16.963       -9.584       11.459        9.643        9.007      131.314       92.997       81.134        0.136        0.015       48.265        2.654        0.003      328.909       -4.691      871.246
01/05/2014  05:59:00      -58.039      -23.445       -9.275       11.258        9.957        8.375      126.740       99.138       70.143        0.215        0.015       62.596        5.656        0.008      328.796       -4.875      871.263
01/05/2014  06:00:00      -65.359      -12.100      -10.507       10.475        7.564        7.782      109.735       57.220       60.564        0.238        0.011       66.470        1.817        0.001      328.750       -4.950      871.269
01/05/2014  06:01:00      -67.941      -11.080      -10.940       10.155        9.000        5.750      103.122       81.000       33.067        0.254        0.011       68.839        3.951        0.003      328.815       -4.845      871.265
01/05/2014  06:02:00      -59.265      -24.537      -10.163        7.743        7.622        9.903       59.958       58.099       98.078        0.222        0.011       64.143        4.428        0.005      328.735       -4.975      871.271
01/05/2014  06:03:00      -35.494      -25.337      -13.523       18.300       11.673        7.112      334.895      136.261       50.581        0.130        0.026       43.609        4.166        0.009      328.839       -4.806      871.287
01/05/2014  06:04:00      -31.244      -26.792       -8.580       20.174       12.986       11.405      406.997      168.646      130.072        0.124        0.035       41.158        4.867        0.014      328.887       -4.727      871.289
01/05/2014  06:05:00      -51.854      -20.251       -9.515       18.985        9.328        8.148      360.423       87.012       66.397        0.185        0.026       55.668        6.288        0.013      328.715       -5.007      871.299
01/05/2014  06:06:00      -68.566      -25.390      -12.176       11.699       11.468        9.465      136.857      131.512       89.589        0.293        0.018       73.116        5.230        0.005      328.729       -4.986      871.303
01/05/2014  06:07:00      -77.825      -16.030      -16.863       12.487       14.481        6.707      155.919      209.697       44.988        0.350        0.021       79.459        4.803        0.004      328.669       -5.081      871.309
01/05/2014  06:08:00      -81.180       -6.858       -8.280       13.900       15.850       11.258      193.206      251.208      126.754        0.364        0.029       81.469        5.990        0.005      328.679       -5.067      871.324
01/05/2014  06:09:00      -72.544       -7.320      -14.827       13.224       14.583        9.461      174.863      212.670       89.514        0.301        0.024       72.912        6.734        0.009      328.713       -5.011      871.338
01/05/2014  06:10:00      -73.325       -2.079      -13.666       18.447        9.925       11.527      340.286       98.497      132.873        0.307        0.029       73.355       10.906        0.022      328.637       -5.134      871.365
01/05/2014  06:11:00      -57.944       -7.756       -2.979       12.631       12.044        9.931      159.555      145.048       98.632        0.191        0.020       58.461        7.396        0.016      328.714       -5.010      871.393
01/05/2014  06:12:00      -48.048      -14.108       -5.279        9.904       10.253        9.048       98.094      105.129       81.875        0.141        0.014       50.077        4.588        0.008      328.787       -4.891      871.422
01/05/2014  06:13:00      -34.094      -12.829       -8.315        8.435        7.910        5.734       71.141       62.573       32.882        0.078        0.008       36.428        2.411        0.004      328.820       -4.836      871.447
01/05/2014  06:14:00       -1.329       -2.613       -0.394       12.279       10.908        9.884      150.785      118.993       97.694        0.019        0.018        2.932        6.988        5.681      328.970       -4.591      871.461
01/05/2014  06:15:00       16.251       32.354        3.054       12.241       35.374        8.507      149.851     1251.331       72.373        0.140        0.074       36.206       15.673        0.187      329.101       -4.379      871.476
01/05/2014  06:16:00        3.129       84.613       -7.678       11.487       12.596        6.668      131.955      158.654       44.464        0.378        0.017       84.671        5.301        0.004      329.277       -4.090      871.490
01/05/2014  06:17:00        7.578       88.278      -11.191        7.949       10.351        5.337       63.187      107.141       28.488        0.409        0.010       88.603        3.976        0.002      329.188       -4.236      871.503
01/05/2014  06:18:00        6.586       97.064      -11.911       10.899       13.768        8.107      118.783      189.558       65.727        0.499        0.019       97.287        6.990        0.005      329.197       -4.220      871.517
01/05/2014  06:19:00       -0.811      104.986      -11.874        8.648       11.594        6.212       74.780      134.413       38.588        0.571        0.012      104.989        3.663        0.001      329.201       -4.213      871.529
01/05/2014  06:20:00       -0.716      109.563      -13.300       13.459       12.423        8.551      181.147      154.336       73.122        0.629        0.020      109.565        7.511        0.005      329.176       -4.255      871.536
01/05/2014  06:21:00       -7.412      111.055      -14.652       15.017       15.531       10.974      225.522      241.201      120.419        0.659        0.029      111.302        9.249        0.007      329.198       -4.218      871.549
01/05/2014  06:22:00       -9.516      114.748      -17.494       14.451       19.588       10.047      208.838      383.686      100.941        0.713        0.035      115.142        7.153        0.004      329.299       -4.055      871.556
01/05/2014  06:23:00       -7.572      115.654      -16.247       14.420       14.407       11.696      207.938      207.566      136.786        0.712        0.028      115.902        6.100        0.003      329.417       -3.861      871.553
01/05/2014  06:24:00       -2.578       68.037       -5.134       28.234       25.002       13.276      797.182      625.121      176.258        0.313        0.080       68.086       11.703        0.030      329.353       -3.965      871.561
01/05/2014  06:25:00      -20.613       45.021       -4.878       24.077       26.537       12.341      579.680      704.201      152.294        0.196        0.072       49.516        9.144        0.034      329.226       -4.172      871.570
01/05/2014  06:26:00        9.568       39.140       -4.647       18.870       24.186       13.235      356.087      584.983      175.177        0.138        0.056       40.293        7.388        0.034      329.278       -4.089      871.575
01/05/2014  06:27:00      -41.878      -16.394       -1.104       24.989       16.190        9.414      624.468      262.101       88.614        0.150        0.049       44.972        9.606        0.046      328.775       -4.909      871.579
01/05/2014  06:28:00      -60.354       -7.417       -9.717       11.724        7.478        8.604      137.451       55.915       74.037        0.203        0.013       60.808        3.273        0.003      328.744       -4.960      871.582
01/05/2014  06:29:00      -67.258       -6.696       -7.487       11.949       10.554        9.663      142.772      111.381       93.378        0.249        0.017       67.591        6.117        0.008      328.601       -5.194      871.586
01/05/2014  06:30:00      -58.814       -1.907       -6.382       15.518        8.395       12.545      240.800       70.470      157.373        0.199        0.023       58.845        6.205        0.011      328.649       -5.114      871.597
01/05/2014  06:31:00      -64.721      -21.956      -11.857       14.762       11.993       11.340      217.923      143.834      128.601        0.265        0.025       68.343        8.582        0.016      328.659       -5.101      871.601
01/05/2014  06:32:00     -105.483      -16.615      -20.882       12.766       11.915        9.370      162.970      141.979       87.806        0.612        0.020      106.783        3.931        0.001      328.473       -5.404      871.607
01/05/2014  06:33:00      -97.373       -7.543      -14.504       18.819       14.603       10.623      354.166      213.241      112.841        0.521        0.034       97.665        7.636        0.006      328.482       -5.387      871.609
01/05/2014  06:34:00     -104.652      -14.357      -16.574       14.299       19.208       11.321      204.472      368.941      128.162        0.607        0.035      105.632        8.178        0.006      328.476       -5.399      871.613
01/05/2014  06:35:00     -101.818      -29.958      -12.490       18.374       16.798       12.133      337.598      282.156      147.213        0.609        0.038      106.134        8.761        0.007      328.498       -5.362      871.615
01/05/2014  06:36:00      -99.434      -19.752       -8.341       29.846       15.590       18.973      890.780      243.060      359.968        0.592        0.075      101.377       18.773        0.034      328.544       -5.287      871.617
01/05/2014  06:37:00      -98.366      -24.992       -9.661       17.148       16.988       12.713      294.057      288.588      161.611        0.557        0.037      101.492        8.364        0.007      328.555       -5.268      871.616
01/05/2014  06:38:00      -82.830      -18.927       -7.959       23.437       19.037       15.015      549.290      362.404      225.438        0.421        0.057       84.965       12.561        0.022      328.616       -5.168      871.614
01/05/2014  06:39:00     -106.722      -33.342      -13.268       16.310       12.090       12.149      266.018      146.170      147.607        0.662        0.028      111.809        9.023        0.007      328.611       -5.176      871.606
01/05/2014  06:40:00      -96.109      -41.727      -15.979       11.843       10.263        8.065      140.266      105.322       65.051        0.577        0.016      104.776        4.019        0.001      328.591       -5.210      871.601
01/05/2014  06:41:00      -91.832      -35.392       -9.718       19.250       12.518       13.766      370.544      156.700      189.497        0.525        0.036       98.416       11.110        0.013      328.587       -5.214      871.595
01/05/2014  06:42:00     -113.550      -25.310      -13.174       21.206       15.303       13.028      449.683      234.192      169.740        0.728        0.043      116.337        5.504        0.002      328.618       -5.165      871.592
01/05/2014  06:43:00     -109.370      -24.600       -7.316       23.453       17.886       12.986      550.038      319.898      168.635        0.683        0.052      112.102       12.854        0.013      328.630       -5.146      871.584
01/05/2014  06:44:00     -105.308      -22.854      -11.201       19.234       19.530       13.669      369.957      381.403      186.851        0.634        0.047      107.759        7.726        0.005      328.602       -5.190      871.578
01/05/2014  06:45:00     -125.019      -11.725      -17.246       28.976       22.564       17.277      839.601      509.140      298.489        0.886        0.082      125.568       14.391        0.013      328.579       -5.231      871.569
01/05/2014  06:46:00     -113.972      -39.548      -11.019       18.991       20.167       14.436      360.673      406.720      208.397        0.783        0.049      120.639        8.355        0.005      328.543       -5.288      871.569
01/05/2014  06:47:00     -119.620      -43.103       -8.448       19.527       26.725       13.860      381.296      714.204      192.097        0.876        0.064      127.149        4.957        0.002      328.592       -5.208      871.573
01/05/2014  06:48:00     -115.193      -64.128      -11.859       31.727       23.891       15.799     1006.607      570.784      249.617        0.967        0.091      131.840       10.620        0.006      328.534       -5.302      871.566
01/05/2014  06:49:00      -97.396      -61.541        2.198       46.298       31.649       26.875     2143.534     1001.680      722.266        0.857        0.193      115.209       27.451        0.057      328.528       -5.313      871.561
01/05/2014  06:50:00      -66.940      -61.680        7.118       48.565       33.507       25.227     2358.558     1122.705      636.423        0.623        0.206       91.024       26.038        0.082      328.544       -5.288      871.560
01/05/2014  06:51:00     -102.603      -53.741        4.151       50.565       25.391       18.701     2556.774      644.693      349.741        0.849        0.178      115.826       18.510        0.026      328.516       -5.332      871.567
01/05/2014  06:52:00      -49.130      -38.884        7.284       50.972       26.514       22.273     2598.107      703.001      496.094        0.389        0.190       62.655       21.355        0.116      328.555       -5.268      871.576
01/05/2014  06:53:00      -40.555      -31.361        6.771       50.722       29.142       21.094     2572.695      849.258      444.947        0.327        0.193       51.266       28.616        0.312      328.551       -5.275      871.584
01/05/2014  06:54:00     -100.134      -48.461       -5.487       25.069       25.151       16.586      628.442      632.595      275.100        0.697        0.077      111.245       11.911        0.011      328.509       -5.344      871.591
01/05/2014  06:55:00      -79.672      -49.566        0.498       54.247       32.465       22.899     2942.773     1053.981      524.370        0.666        0.226       93.832       22.403        0.057      328.505       -5.350      871.589
01/05/2014  06:56:00      -78.733      -53.188       -0.315       39.115       26.737       24.663     1529.948      714.858      608.249        0.594        0.143       95.015       21.809        0.053      328.418       -5.491      871.592
01/05/2014  06:57:00     -103.453      -46.225       -3.076       27.436       24.825       13.371      752.734      616.272      178.779        0.720        0.077      113.310       13.206        0.014      328.455       -5.431      871.594
01/05/2014  06:58:00      -85.590      -40.718       -1.986       32.410       20.099       12.774     1050.430      403.981      163.178        0.530        0.081       94.782       11.496        0.015      328.440       -5.455      871.589
01/05/2014  06:59:00      -77.367      -38.864       -2.169       27.937       18.618       12.285      780.474      346.628      150.912        0.439        0.064       86.580        7.678        0.008      328.533       -5.303      871.586
01/05/2014  07:00:00      -43.205      -22.686        5.294       33.137       20.651       14.056     1098.039      426.448      197.578        0.207        0.086       48.799       11.503        0.056      328.456       -5.430      871.587
01/05/2014  07:01:00      -89.767      -52.799       -2.465       28.458       18.952       18.336      809.874      359.174      336.204        0.618        0.075      104.143       17.873        0.029      328.525       -5.317      871.585
01/05/2014  07:02:00      -74.881      -62.657       -0.935       28.944       20.404       17.610      837.728      416.321      310.128        0.555        0.078       97.637       13.234        0.018      328.524       -5.319      871.579
01/05/2014  07:03:00      -77.282      -51.805       -2.777       25.503       22.890       16.797      650.391      523.957      282.138        0.506        0.073       93.039       14.981        0.026      328.489       -5.376      871.578
01/05/2014  07:04:00      -86.459      -50.075       -6.890       16.590       16.656       12.714      275.225      277.418      161.651        0.537        0.036       99.913        8.032        0.006      328.489       -5.375      871.584
01/05/2014  07:05:00      -99.142      -44.481      -10.780       12.925       13.058        8.921      167.045      170.519       79.578        0.617        0.021      108.663        4.862        0.002      328.599       -5.196      871.596
01/05/2014  07:06:00      -86.007      -40.704       -8.727       18.899       12.189        9.964      357.164      148.573       99.289        0.487        0.030       95.153       10.400        0.012      328.548       -5.281      871.601
01/05/2014  07:07:00      -67.530      -45.631       -8.756       18.444       18.620        8.495      340.177      346.696       72.164        0.374        0.038       81.501        6.649        0.007      328.591       -5.209      871.611
01/05/2014  07:08:00      -80.029      -29.961       -8.498       13.419        8.779        8.681      180.057       77.067       75.353        0.385        0.017       85.454        5.803        0.005      328.589       -5.213      871.614
01/05/2014  07:09:00      -67.018      -42.856       -5.153       18.215       16.540       11.184      331.773      273.565      125.086        0.354        0.037       79.549        8.650        0.012      328.650       -5.114      871.614
01/05/2014  07:10:00      -71.815      -25.186       -4.486       15.779       12.271        8.217      248.979      150.586       67.515        0.314        0.023       76.104        5.923        0.006      328.664       -5.091      871.613
01/05/2014  07:11:00      -67.537      -46.533       -2.665       15.788       14.118        9.203      249.276      199.311       84.688        0.363        0.027       82.015        4.841        0.003      328.720       -5.000      871.622
01/05/2014  07:12:00      -88.780      -12.560       -9.894       13.191       12.960        8.213      174.007      167.961       67.456        0.427        0.020       89.664        5.930        0.004      328.676       -5.071      871.625
01/05/2014  07:13:00     -109.557      -15.157      -11.918       15.210       14.768       10.246      231.349      218.084      104.971        0.646        0.028      110.601        8.119        0.005      328.630       -5.146      871.631
01/05/2014  07:14:00     -102.582      -23.687       -4.662       24.540       15.922       12.640      602.202      253.499      159.768        0.606        0.051      105.281       11.666        0.012      328.611       -5.177      871.641
01/05/2014  07:15:00      -71.626      -25.253        5.319       28.533       15.868       12.345      814.104      251.806      152.398        0.351        0.061       75.947       10.930        0.021      328.554       -5.272      871.655
01/05/2014  07:16:00      -54.687      -29.264        5.859       26.000       19.053       13.474      675.981      363.005      181.551        0.255        0.061       62.024       12.558        0.041      328.599       -5.196      871.668
01/05/2014  07:17:00      -79.104      -31.033       -2.147       17.739       12.388        9.634      314.679      153.462       92.812        0.389        0.028       84.974        6.533        0.006      328.590       -5.211      871.691
01/05/2014  07:18:00      -65.381      -26.992       -1.600       15.618       13.314        7.628      243.924      177.267       58.194        0.274        0.024       70.733        6.970        0.010      328.619       -5.164      871.719
01/05/2014  07:19:00      -62.434       -9.434       -1.773       19.982       13.865        9.416      399.271      192.243       88.653        0.233        0.034       63.142       10.281        0.027      328.516       -5.332      871.738
01/05/2014  07:20:00      -65.145       -5.320       -6.240       15.163       10.302        9.541      229.927      106.137       91.025        0.237        0.021       65.362        7.767        0.014      328.524       -5.318      871.759
01/05/2014  07:21:00      -43.543       -1.672       -5.612        8.449        6.653        6.593       71.390       44.267       43.469        0.104        0.008       43.575        4.169        0.009      328.587       -5.214      871.794
01/05/2014  07:22:00      -31.992       11.965       -3.727       13.484        9.755        7.463      181.825       95.151       55.692        0.076        0.017       34.156        8.341        0.060      328.609       -5.180      871.819
01/05/2014  07:23:00      -50.438        2.212       -3.114       18.663       12.335        9.401      348.326      152.162       88.374        0.157        0.029       50.486        2.902        0.003      328.640       -5.132      871.838
01/05/2014  07:24:00      -41.543      -13.080       -6.523        8.477        6.895        7.977       71.857       47.547       63.634        0.106        0.009       43.553        3.849        0.008      328.663       -5.092      871.847
01/05/2014  07:25:00      -27.238      -10.882       -2.409       12.234        9.477        5.864      149.662       89.808       34.390        0.057        0.014       29.332        3.518        0.014      328.621       -5.161      871.853
01/05/2014  07:26:00      -60.977      -18.059       -9.780        9.848        9.005        7.956       96.976       81.093       63.303        0.219        0.012       63.595        6.378        0.010      328.572       -5.241      871.855
01/05/2014  07:27:00      -38.760       -6.562       -5.056       10.761        6.367        6.033      115.791       40.535       36.394        0.088        0.010       39.311        4.105        0.011      328.524       -5.319      871.867
01/05/2014  07:28:00      -23.218       -5.842       -4.144        8.030        8.504        7.806       64.484       72.321       60.936        0.039        0.010       23.942        5.752        0.058      328.596       -5.202      871.882
01/05/2014  07:29:00       -5.460       -3.413        7.140        8.388        8.049        5.560       70.352       64.782       30.912        0.013        0.008        6.439        3.605        0.314      328.644       -5.124      871.888
01/05/2014  07:30:00       -3.129        3.948        2.476        6.833        6.618        9.198       46.687       43.794       84.599        0.010        0.009        5.038        6.171        1.501      328.686       -5.055      871.885
01/05/2014  07:31:00       -7.244       -1.920        0.712        7.269        2.915        3.701       52.834        8.495       13.700        0.007        0.004        7.494        2.757        0.135      328.690       -5.049      871.886
01/05/2014  07:32:00      -11.631       -6.976        9.534        7.690        7.944        4.763       59.129       63.115       22.685        0.021        0.007       13.562        4.225        0.097      328.746       -4.957      871.916
01/05/2014  07:33:00      -11.093      -11.913        4.143       14.099        8.315        5.876      198.788       69.146       34.522        0.029        0.015       16.278        5.099        0.098      328.853       -4.781      871.945
01/05/2014  07:34:00      -41.181      -14.112       -7.761        9.333        9.446        5.042       87.097       89.234       25.425        0.108        0.010       43.532        2.077        0.002      328.640       -5.130      871.969
01/05/2014  07:35:00      -55.329      -26.772      -11.366        8.089        6.496        7.473       65.438       42.194       55.843        0.204        0.008       61.466        1.793        0.001      328.612       -5.175      871.978
01/05/2014  07:36:00      -56.267      -26.350       -6.295       20.017        9.937        7.672      400.696       98.740       58.864        0.223        0.028       62.131        6.501        0.011      328.495       -5.366      871.972
01/05/2014  07:37:00      -64.784      -34.942       -9.917       16.033       11.071        9.519      257.046      122.572       90.616        0.299        0.024       73.606        6.019        0.007      328.510       -5.340      871.984
01/05/2014  07:38:00      -56.622      -44.517       -8.499       13.797       10.148        9.367      190.367      102.981       87.739        0.282        0.019       72.026        3.958        0.003      328.505       -5.350      872.018
01/05/2014  07:39:00      -57.126      -23.464       -8.174       16.927       13.185        7.054      286.523      173.846       49.759        0.220        0.026       61.757        3.161        0.003      328.710       -5.015      872.052
01/05/2014  07:40:00      -83.991      -25.008      -13.837       10.038        9.353        8.147      100.754       87.478       66.372        0.406        0.013       87.635        5.268        0.004      328.610       -5.177      872.088
01/05/2014  07:41:00      -90.256      -42.816      -13.088       18.756       12.099       12.319      351.775      146.390      151.753        0.540        0.032       99.897        9.186        0.008      328.598       -5.198      872.113
01/05/2014  07:42:00     -111.744      -43.410       -8.646       20.431       12.329        8.788      417.419      152.005       77.233        0.755        0.032      119.880        6.188        0.003      328.587       -5.217      872.134
01/05/2014  07:43:00      -95.849      -49.151       -5.877       21.458       23.920       13.587      460.439      572.179      184.616        0.643        0.061      107.717        9.985        0.009      328.545       -5.286      872.151
01/05/2014  07:44:00     -105.449      -19.596      -10.777       14.625       15.877       10.150      213.905      252.084      103.016        0.609        0.028      107.254        3.938        0.001      328.512       -5.338      872.170
01/05/2014  07:45:00     -107.253      -15.072      -11.214       13.863       10.862        7.658      192.190      117.992       58.647        0.611        0.018      108.307        4.831        0.002      328.559       -5.263      872.188
01/05/2014  07:46:00      -92.545      -30.163       -8.412       12.912       10.160       10.953      166.707      103.235      119.972        0.497        0.019       97.336        7.396        0.006      328.673       -5.075      872.208
01/05/2014  07:47:00      -78.100      -35.610       -7.203        8.348        8.787        5.615       69.688       77.219       31.526        0.380        0.009       85.836        2.090        0.001      328.706       -5.021      872.217
01/05/2014  07:48:00      -83.253      -34.577       -9.102        9.819        8.079        7.817       96.411       65.269       61.106        0.422        0.011       90.148        3.635        0.002      328.769       -4.921      872.225
01/05/2014  07:49:00      -94.309      -31.783      -10.530        8.594       12.402        7.430       73.852      153.810       55.208        0.515        0.014       99.521        5.069        0.003      328.814       -4.846      872.227
01/05/2014  07:50:00      -82.264      -53.754       -7.731       14.262       11.398        8.945      203.401      129.919       80.008        0.506        0.021       98.270        3.672        0.001      328.853       -4.783      872.229
01/05/2014  07:51:00      -51.301      -32.585       -7.993       23.055       11.058       11.870      531.545      122.282      140.908        0.228        0.040       60.775        8.748        0.021      328.854       -4.781      872.225
01/05/2014  07:52:00      -61.512      -34.154       -8.212        9.842        8.168        5.448       96.857       66.717       29.681        0.261        0.010       70.357        3.180        0.002      328.890       -4.723      872.239
01/05/2014  07:53:00      -66.729      -20.028      -10.095        9.633        7.541        7.763       92.794       56.865       60.267        0.258        0.010       69.670        3.523        0.003      328.894       -4.716      872.245
01/05/2014  07:54:00      -53.823      -15.491       -6.650        9.653        7.346        8.203       93.180       53.959       67.287        0.170        0.011       56.007        3.639        0.004      328.835       -4.811      872.273
01/05/2014  07:55:00      -54.061      -21.905       -6.177       10.976        9.684        6.339      120.471       93.789       40.185        0.185        0.013       58.330        3.722        0.004      328.820       -4.837      872.299
01/05/2014  07:56:00      -62.900      -31.282       -7.923       13.044       11.109        8.666      170.155      123.414       75.094        0.268        0.018       70.250        3.813        0.003      328.840       -4.804      872.335
01/05/2014  07:57:00      -71.352      -37.900       -3.031       12.216       13.396       12.154      149.224      179.466      147.719        0.351        0.024       80.793        7.642        0.009      328.785       -4.894      872.364
01/05/2014  07:58:00      -56.281      -32.757       -2.461       17.029       13.157       11.674      290.001      173.108      136.286        0.242        0.030       65.120        2.530        0.002      328.789       -4.885      872.372
01/05/2014  07:59:00      -62.973      -38.581       -5.884       26.116       15.182       12.081      682.065      230.488      145.954        0.327        0.053       73.852        9.951        0.018      328.736       -4.974      872.380
01/05/2014  08:00:00      -86.304      -43.882      -10.876       22.387       13.044       10.952      501.180      170.140      119.946        0.514        0.040       96.819        9.355        0.009      328.725       -4.990      872.390
01/05/2014  08:01:00      -72.582      -45.662       -2.745       25.970       17.895       14.191      674.466      320.248      201.396        0.428        0.060       85.750        7.030        0.007      328.784       -4.895      872.406
01/05/2014  08:02:00      -49.252      -29.530       -2.985       27.343       19.559       15.519      747.628      382.550      240.835        0.234        0.069       57.426        9.476        0.027      328.872       -4.750      872.415
01/05/2014  08:03:00      -54.489      -41.421        4.267       41.246       22.390       15.835     1701.199      501.309      250.743        0.358        0.123       68.445       14.332        0.044      328.964       -4.601      872.422
01/05/2014  08:04:00      -81.694      -50.285       -6.220       32.113       18.006       19.446     1031.235      324.214      378.165        0.549        0.087       95.930        9.005        0.009      328.925       -4.665      872.433
01/05/2014  08:05:00      -82.459      -62.307       -2.161       29.852       19.516       21.067      891.133      380.862      443.818        0.620        0.086      103.352       18.167        0.031      328.911       -4.687      872.440
01/05/2014  08:06:00      -82.160      -52.313       -1.465       29.772       23.190       17.965      886.359      537.785      322.731        0.562        0.087       97.401       12.168        0.016      328.968       -4.595      872.439
01/05/2014  08:07:00     -106.671      -52.924       -7.421       22.461       17.975       13.333      504.481      323.108      177.766        0.762        0.050      119.078        8.152        0.005      328.936       -4.646      872.438
01/05/2014  08:08:00     -114.261      -52.237       -5.579       14.658       12.892        9.620      214.856      166.208       92.553        0.814        0.024      125.636        8.763        0.005      328.978       -4.577      872.423
01/05/2014  08:09:00     -113.842      -50.962       -8.514       14.683       15.817        9.868      215.585      250.164       97.368        0.810        0.028      124.728        8.407        0.005      329.050       -4.462      872.418
01/05/2014  08:10:00     -109.010      -55.612       -7.730       22.090       18.001       13.316      487.954      324.042      177.315        0.801        0.049      122.376       11.335        0.009      329.056       -4.451      872.419
01/05/2014  08:11:00     -110.259      -55.349       -9.921       14.442       14.087       12.744      208.574      198.448      162.407        0.794        0.028      123.371        6.655        0.003      329.153       -4.294      872.430
01/05/2014  08:12:00     -100.025      -54.617       -8.508       24.920       25.829       14.979      620.981      667.126      224.385        0.729        0.076      113.965       13.885        0.015      329.128       -4.334      872.442
01/05/2014  08:13:00     -108.706      -41.102      -10.964       13.645       14.114        9.564      186.174      199.205       91.466        0.705        0.024      116.217        6.787        0.003      329.125       -4.339      872.447
01/05/2014  08:14:00     -116.152      -50.735       -3.730       18.469       16.453       15.894      341.120      270.703      252.607        0.847        0.043      126.749       11.699        0.009      329.193       -4.228      872.465
01/05/2014  08:15:00      -88.237      -41.377        0.774       28.027       24.423       16.441      785.504      596.501      270.316        0.557        0.083       97.456       15.529        0.025      329.250       -4.136      872.473
01/05/2014  08:16:00      -80.724      -48.014       -8.025       24.478       14.545       13.008      599.195      211.546      169.218        0.493        0.049       93.924        9.132        0.009      329.301       -4.052      872.480
01/05/2014  08:17:00      -92.977      -32.914       -3.092       12.549       12.910       10.739      157.473      166.667      115.329        0.509        0.022       98.631        7.488        0.006      329.389       -3.907      872.481
01/05/2014  08:18:00      -83.663      -35.159       -8.334       17.274       18.814       12.165      298.401      353.968      147.992        0.455        0.040       90.751        7.123        0.006      329.518       -3.694      872.482
01/05/2014  08:19:00      -81.852      -25.625        1.715       30.655       22.763       14.149      939.719      518.151      200.186        0.451        0.083       85.770       15.976        0.035      329.575       -3.603      872.486
01/05/2014  08:20:00      -65.318      -39.553        0.278       29.930       17.873       18.223      895.831      319.437      332.077        0.369        0.077       76.360       19.259        0.064      329.631       -3.510      872.498
01/05/2014  08:21:00      -90.617      -45.968       -8.241       13.407       14.168        9.441      179.751      200.723       89.127        0.543        0.023      101.610        7.265        0.005      329.637       -3.501      872.508
01/05/2014  08:22:00     -100.268      -41.298       -7.224       20.265       18.886       10.274      410.687      356.695      105.545        0.634        0.044      108.440        5.513        0.003      329.730       -3.348      872.516
01/05/2014  08:23:00      -95.035      -38.554       -4.868       17.017       16.989       10.027      289.583      288.622      100.542        0.561        0.034      102.558        6.352        0.004      329.741       -3.331      872.519
01/05/2014  08:24:00      -87.928      -42.411       -0.445       19.225       19.155       14.961      369.616      366.919      223.842        0.525        0.048       97.622       10.283        0.011      329.734       -3.342      872.521
01/05/2014  08:25:00      -94.981      -37.053       -0.992       29.895       18.724       16.769      893.715      350.606      281.212        0.596        0.076      101.952       17.648        0.030      329.775       -3.275      872.534
01/05/2014  08:26:00     -120.144      -51.789       -3.719       17.141       14.386       12.523      293.806      206.962      156.836        0.889        0.033      130.831       11.641        0.008      329.807       -3.223      872.543
01/05/2014  08:27:00     -102.405      -54.149       -2.832       22.662       16.277       16.299      513.555      264.952      265.654        0.724        0.052      115.840       14.716        0.016      329.792       -3.246      872.564
01/05/2014  08:28:00     -110.779      -28.115       -6.064       11.652       17.231        8.890      135.773      296.920       79.041        0.681        0.026      114.291        6.057        0.003      329.845       -3.161      872.573
01/05/2014  08:29:00      -93.413      -11.763       -4.198       27.249       17.848       16.105      742.494      318.555      259.371        0.510        0.066       94.150       15.134        0.026      329.910       -3.056      872.588
01/05/2014  08:30:00      -66.060      -35.373        1.464       28.511       18.068       13.785      812.895      326.455      190.033        0.347        0.066       74.935       10.735        0.021      329.947       -2.992      872.604
01/05/2014  08:31:00      -80.024       -4.605       -2.533       30.134       19.072       17.010      908.074      363.723      289.328        0.400        0.078       80.157       16.498        0.042      329.973       -2.950      872.620
01/05/2014  08:32:00      -84.430      -15.667      -12.459       24.666       16.422       11.878      608.404      269.688      141.089        0.427        0.051       85.871       10.959        0.016      330.013       -2.885      872.632
01/05/2014  08:33:00      -70.258       -1.991       -5.634       21.800        9.827        8.739      475.241       96.560       76.372        0.281        0.032       70.286        4.692        0.004      330.031       -2.855      872.640
01/05/2014  08:34:00      -67.377      -23.911      -12.459       15.363       12.433        9.490      236.009      154.584       90.063        0.287        0.024       71.494        5.472        0.006      330.119       -2.713      872.643
01/05/2014  08:35:00      -42.645      -46.990       -1.501       20.824       21.389       16.431      433.622      457.471      269.973        0.259        0.058       63.456       11.851        0.035      330.173       -2.624      872.655
01/05/2014  08:36:00      -54.559      -61.275        1.679       36.705       35.921       19.720     1347.290     1290.349      388.888        0.488        0.151       82.044       19.484        0.056      330.249       -2.498      872.668
01/05/2014  08:37:00      -30.142      -30.210        4.107       23.476       23.007       16.905      551.108      529.299      285.769        0.160        0.068       42.675       10.186        0.057      330.351       -2.332      872.681
01/05/2014  08:38:00      -35.143       -6.972       -3.398       14.034       13.510       10.272      196.952      182.516      105.524        0.089        0.024       35.827        7.359        0.042      330.298       -2.418      872.689
01/05/2014  08:39:00      -50.737        1.587       -3.371       21.597       23.120       16.344      466.440      534.514      267.124        0.193        0.063       50.762       14.872        0.086      330.300       -2.414      872.689
01/05/2014  08:40:00      -17.718      -22.274        8.870       28.324       25.849       16.874      802.224      668.174      284.718        0.132        0.088       28.461       15.418        0.293      330.582       -1.954      872.683
01/05/2014  08:41:00      -66.528      -28.412       -3.073       24.607       21.197       17.334      605.505      449.312      300.463        0.330        0.068       72.341       10.914        0.023      330.287       -2.436      872.697
01/05/2014  08:42:00      -44.431      -39.244       -9.214       21.318       22.073       15.041      454.443      487.210      226.242        0.238        0.058       59.281       10.954        0.034      330.268       -2.468      872.705
01/05/2014  08:43:00      -54.070       -9.603       -2.362       23.347       16.308       15.237      545.063      265.964      232.178        0.203        0.052       54.916        8.896        0.026      330.327       -2.371      872.726
01/05/2014  08:44:00      -33.405        7.576       -5.735       16.673       30.922       13.220      278.000      956.149      174.756        0.131        0.070       34.254       11.285        0.109      330.344       -2.343      872.743
01/05/2014  08:45:00      -28.950       -9.918        8.825       23.482       28.267       18.385      551.426      799.009      338.003        0.135        0.084       30.601       17.980        0.345      330.602       -1.919      872.752
01/05/2014  08:46:00      -59.997      -25.425      -14.706       13.340       21.304       15.479      177.948      453.861      239.599        0.267        0.044       65.162        5.496        0.007      330.259       -2.484      872.760
01/05/2014  08:47:00      -57.000      -13.064       -7.837       29.381       14.027       12.458      863.236      196.746      155.205        0.235        0.061       58.478       10.800        0.034      330.275       -2.456      872.757
01/05/2014  08:48:00      -45.784      -31.831       -3.163       29.521       27.677       19.625      871.491      766.031      385.153        0.257        0.101       55.761        7.350        0.017      330.316       -2.388      872.755
01/05/2014  08:49:00      -35.221       -8.565       -9.700       25.317       19.337       12.016      640.925      373.902      144.387        0.128        0.058       36.247       12.582        0.120      330.398       -2.256      872.772
01/05/2014  08:50:00      -36.485      -51.507       11.028       21.890       23.061       15.983      479.157      531.830      255.456        0.269        0.063       63.120        9.174        0.021      330.448       -2.173      872.787
01/05/2014  08:51:00      -47.024      -23.741       21.625       30.530       37.261       21.564      932.094     1388.353      465.020        0.301        0.139       52.677       16.048        0.093      330.475       -2.129      872.796
01/05/2014  08:52:00      -51.993      -13.828       -5.897       26.849       20.117       11.041      720.854      404.706      121.904        0.209        0.062       53.801        8.935        0.028      330.419       -2.221      872.802
01/05/2014  08:53:00       -0.466       23.893       16.521       24.836       21.479       21.598      616.816      461.349      466.456        0.119        0.077       23.897        8.445        0.125      330.821       -1.560      872.808
01/05/2014  08:54:00      -12.262       27.887       26.058       20.389       19.921       21.641      415.708      396.840      468.322        0.144        0.064       30.464       12.720        0.174      330.889       -1.450      872.825
01/05/2014  08:55:00       -1.807      -21.567       17.313       23.628       32.013       22.494      558.271     1024.821      505.988        0.143        0.104       21.643       18.730        0.749      330.976       -1.306      872.841
01/05/2014  08:56:00       -4.307      -12.409       35.908       13.005       33.065       15.983      169.142     1093.286      255.464        0.149        0.076       13.136       18.148        1.909      331.254       -0.850      872.850
01/05/2014  08:57:00      -19.460       16.478       34.177       17.401       25.405       14.123      302.784      645.439      199.463        0.148        0.057       25.499        9.198        0.130      331.002       -1.263      872.854
01/05/2014  08:58:00       10.931       28.804       43.092       18.434       28.588       14.960      339.805      817.280      223.789        0.209        0.069       30.809        9.386        0.093      331.135       -1.044      872.852
01/05/2014  08:59:00       31.968       49.911       50.069       29.982       22.529       21.872      898.898      507.558      478.394        0.395        0.094       59.271       14.857        0.063      330.843       -1.526      872.842
01/05/2014  09:00:00       -0.385       38.406       47.174       16.940       33.741       22.728      286.960     1138.453      516.557        0.282        0.097       38.408       13.730        0.128      331.028       -1.221      872.836
01/05/2014  09:01:00       18.580       48.884       60.737       37.233       33.196       31.601     1386.291     1101.989      998.609        0.495        0.174       52.295       28.941        0.306      330.985       -1.292      872.842
01/05/2014  09:02:00       54.931       53.403       55.731       23.381       25.178       21.825      546.655      633.954      476.343        0.532        0.083       76.611       10.954        0.020      330.707       -1.748      872.857
01/05/2014  09:03:00       34.322       48.802       41.485       40.980       30.354       24.810     1679.400      921.370      615.515        0.425        0.161       59.662       18.868        0.100      330.952       -1.346      872.853
01/05/2014  09:04:00        3.958       40.566       61.793       31.529       30.070       26.623      994.075      904.183      708.771        0.404        0.130       40.758       20.618        0.256      331.187       -0.960      872.839
01/05/2014  09:05:00       24.676       53.701       53.062       28.860       33.988       25.237      832.892     1155.195      636.898        0.447        0.131       59.099       23.176        0.154      331.028       -1.221      872.835
01/05/2014  09:06:00        1.333       21.451       49.531       18.399       29.450       18.513      338.506      867.280      342.727        0.223        0.077       21.493       14.562        0.459      331.322       -0.738      872.829
01/05/2014  09:07:00       69.474       82.711       66.492       43.495       24.041       26.966     1891.795      577.956      727.162        0.964        0.160      108.017       22.686        0.044      330.746       -1.683      872.831
01/05/2014  09:08:00       92.495       77.615       48.266       33.331       29.887       38.748     1110.935      893.210     1501.418        1.021        0.175      120.745       25.339        0.044      330.771       -1.642      872.851
01/05/2014  09:09:00       21.922       42.575       47.082       35.925       30.142       30.247     1290.611      908.552      914.855        0.381        0.156       47.887       31.086        0.421      331.034       -1.211      872.850
01/05/2014  09:10:00       52.404       68.238       75.274       48.637       28.687       30.327     2365.599      822.960      919.737        0.859        0.205       86.039       29.721        0.119      330.852       -1.509      872.855
01/05/2014  09:11:00       53.103       39.891       34.744       60.751       28.228       36.015     3690.691      796.829     1297.052        0.570        0.289       66.417       37.022        0.311      330.897       -1.435      872.863
01/05/2014  09:12:00        2.295       60.978       70.440       40.448       37.552       44.522     1636.010     1410.118     1982.203        0.686        0.251       61.021       35.342        0.335      331.278       -0.810      872.857
01/05/2014  09:13:00       23.430       84.377       93.121       35.646       35.198       27.134     1270.669     1238.880      736.242        0.979        0.162       87.570       24.875        0.081      330.927       -1.387      872.859
01/05/2014  09:14:00       38.117       53.531       47.803       39.013       31.968       31.867     1521.976     1021.953     1015.534        0.508        0.178       65.716       25.275        0.148      331.130       -1.052      872.855
01/05/2014  09:15:00       61.101       54.025       24.416       38.824       27.501       35.964     1507.300      756.307     1293.393        0.540        0.178       81.560       18.056        0.049      331.074       -1.144      872.855
01/05/2014  09:16:00       45.875       43.531       22.257       38.760       34.289       28.981     1502.329     1175.707      839.872        0.401        0.176       63.241       20.953        0.110      331.167       -0.993      872.846
01/05/2014  09:17:00       59.170       72.978       -8.530       39.482       32.769       29.076     1558.828     1073.837      845.432        0.619        0.174       93.951       19.720        0.044      331.102       -1.099      872.834
01/05/2014  09:18:00       78.012       55.625       -5.250       34.269       38.999       35.267     1174.358     1520.961     1243.776        0.657        0.197       95.812       13.278        0.019      331.087       -1.124      872.824
01/05/2014  09:19:00      129.815       80.128       19.915       29.482       21.773       31.236      869.207      474.076      975.705        1.299        0.116      152.553       18.783        0.015      330.738       -1.697      872.821
01/05/2014  09:20:00       86.464       55.122       -1.716       24.591       18.505       20.885      604.729      342.428      436.203        0.595        0.069      102.540       11.467        0.013      330.830       -1.546      872.819
01/05/2014  09:21:00       56.149       77.174        4.739       32.896       34.657       30.006     1082.140     1201.122      900.365        0.616        0.159       95.439       19.682        0.043      331.132       -1.050      872.830
01/05/2014  09:22:00       -2.804       36.113       67.563       24.896       48.461       26.292      619.810     2348.434      691.262        0.477        0.183       36.222       21.496        0.352      331.536       -0.385      872.853
01/05/2014  09:23:00       11.695       76.561       77.208       28.722       38.006       25.161      824.954     1444.445      633.065        0.743        0.145       77.449       19.955        0.066      331.307       -0.761      872.856
01/05/2014  09:24:00       24.544       60.719       63.944       31.449       32.918       22.060      989.039     1083.585      486.626        0.547        0.128       65.492       18.894        0.083      331.193       -0.950      872.858
01/05/2014  09:25:00       22.214       65.943       71.477       40.221       35.893       29.086     1617.756     1288.287      846.019        0.685        0.188       69.584       27.819        0.160      331.318       -0.744      872.864
01/05/2014  09:26:00       31.995       60.156       53.270       41.841       29.988       27.961     1750.684      899.265      781.833        0.546        0.172       68.135       23.764        0.122      331.470       -0.493      872.874
01/05/2014  09:27:00       72.931       80.463       14.923       24.560       29.598       30.218      603.211      876.034      913.101        0.720        0.120      108.597       12.917        0.014      331.138       -1.040      872.887
01/05/2014  09:28:00       43.783       55.621        5.365       36.565       29.611       25.486     1336.999      876.819      649.542        0.395        0.143       70.786       21.955        0.096      331.397       -0.614      872.888
01/05/2014  09:29:00       74.590       60.786       21.013       27.941       23.613       26.578      780.715      557.576      706.399        0.587        0.102       96.222       16.578        0.030      331.602       -0.276      872.887
01/05/2014  09:30:00       41.364       55.237        4.594       21.078       23.111       16.708      444.267      534.128      279.156        0.302        0.063       69.008       11.921        0.030      331.757       -0.021      872.890
01/05/2014  09:31:00       28.002       22.925       34.847       24.237       18.992       22.673      587.440      360.712      514.056        0.199        0.073       36.190       14.095        0.152      332.041        0.445      872.881
01/05/2014  09:32:00       -9.418       60.718       87.061       19.043       27.885       16.503      362.629      777.593      272.352        0.638        0.071       61.444       14.412        0.055      331.812        0.070      872.875
01/05/2014  09:33:00       14.600       81.844       83.378       36.169       28.052       22.769     1308.230      786.894      518.440        0.824        0.131       83.136       17.822        0.046      331.647       -0.203      872.871
01/05/2014  09:34:00       38.026       50.990       29.422       33.812       27.546       31.455     1143.257      758.778      989.409        0.390        0.145       63.608       21.588        0.115      331.335       -0.716      872.877
01/05/2014  09:35:00       45.789       56.405       49.772       33.647       32.136       36.857     1132.139     1032.696     1358.410        0.564        0.176       72.651       25.424        0.122      331.328       -0.727      872.872
01/05/2014  09:36:00       49.715       89.010       87.579       33.541       34.168       22.807     1125.013     1167.430      520.172        1.044        0.141      101.952       13.776        0.018      331.474       -0.486      872.874
01/05/2014  09:37:00       13.549       63.776       69.027       39.985       30.544       23.860     1598.834      932.921      569.312        0.606        0.155       65.199       16.884        0.067      331.569       -0.332      872.891
01/05/2014  09:38:00       22.148       46.172       50.033       25.906       20.839       16.343      671.102      434.262      267.107        0.325        0.069       51.209        8.731        0.029      331.536       -0.384      872.902
01/05/2014  09:39:00       60.249       66.427       55.607       27.815       23.893       26.831      773.680      570.891      719.876        0.660        0.103       89.680       12.946        0.021      331.424       -0.569      872.895
01/05/2014  09:40:00       79.103       74.480       54.730       21.885       15.087       20.149      478.943      227.628      405.982        0.796        0.056      108.648       12.004        0.012      331.339       -0.710      872.881
01/05/2014  09:41:00       46.060       55.969       66.377       34.015       41.933       21.915     1156.990     1758.402      480.259        0.653        0.170       72.484       16.633        0.053      331.703       -0.111      872.868
01/05/2014  09:42:00        1.862       63.582       81.114       24.640       52.038       26.223      607.120     2707.917      687.636        0.731        0.200       63.610       28.599        0.202      332.042        0.448      872.874
01/05/2014  09:43:00       28.995       25.401       49.216       42.363       40.790       30.229     1794.601     1663.805      913.805        0.414        0.219       38.548       27.466        0.508      332.016        0.406      872.904
01/05/2014  09:44:00       24.765       36.682       63.997       56.310       46.809       36.260     3170.787     2191.070     1314.755        0.636        0.334       44.259       36.910        0.695      332.016        0.405      872.919
01/05/2014  09:45:00       73.287       68.428       36.101       57.878       41.069       43.216     3349.838     1686.628     1867.609        0.913        0.345      100.266       36.597        0.133      331.770       -0.001      872.940
01/05/2014  09:46:00       92.448       76.797        3.824       46.583       31.540       30.292     2170.010      994.754      917.579        0.927        0.204      120.185       19.843        0.027      331.750       -0.034      872.956
01/05/2014  09:47:00       33.846       61.416       44.786       52.971       32.909       31.502     2805.883     1083.000      992.353        0.590        0.244       70.125       24.359        0.121      332.130        0.595      872.968
01/05/2014  09:48:00       31.403       51.684       71.815       40.605       35.287       35.338     1648.797     1245.173     1248.806        0.648        0.207       60.476       30.754        0.259      331.871        0.167      872.983
01/05/2014  09:49:00       42.421       18.400       34.831       37.521       28.130       22.813     1407.859      791.278      520.418        0.303        0.136       46.239        5.246        0.013      331.749       -0.035      872.993
01/05/2014  09:50:00        4.901       51.119       66.944       24.039       44.344       25.738      577.887     1966.426      662.450        0.516        0.160       51.354       12.446        0.059      332.152        0.629      872.977
01/05/2014  09:51:00       58.356       86.371       86.792       48.009       42.137       27.552     2304.890     1775.504      759.094        1.162        0.242      104.237       14.915        0.020      331.819        0.081      872.969
01/05/2014  09:52:00       45.376       21.818       31.651       27.521       52.883       26.349      757.423     2796.658      694.250        0.389        0.212       50.349       16.209        0.104      331.755       -0.024      872.969
01/05/2014  09:53:00       11.539       49.178       61.617       22.949       24.853       20.727      526.639      617.660      429.592        0.396        0.079       50.514       12.662        0.063      332.154        0.633      872.966
01/05/2014  09:54:00       66.374       46.025       33.379       43.268       44.157       35.190     1872.133     1949.856     1238.366        0.635        0.253       80.770       27.402        0.115      331.974        0.336      872.953
01/05/2014  09:55:00       31.012       24.300       49.685       38.665       38.618       30.320     1494.962     1491.365      919.298        0.396        0.195       39.398       28.858        0.536      332.010        0.395      872.945
01/05/2014  09:56:00       29.141       27.264       44.650       25.551       47.662       22.452      652.871     2271.665      504.083        0.351        0.171       39.907       27.094        0.461      331.922        0.250      872.942
01/05/2014  09:57:00        0.500       50.437       73.273       28.594       42.278       33.603      817.642     1787.409     1129.176        0.582        0.187       50.440       31.287        0.385      332.365        0.981      872.937
01/05/2014  09:58:00       78.090       81.673       52.301       82.645       42.974       38.932     6830.269     1846.762     1515.735        1.285        0.510      112.998       48.453        0.184      331.903        0.218      872.934
01/05/2014  09:59:00      127.911       93.661        6.201       34.789       21.642       29.333     1210.250      468.395      860.424        1.385        0.127      158.535       23.475        0.022      331.514       -0.424      872.932
01/05/2014  10:00:00       85.719       65.319        3.617       25.432       22.395       25.923      646.800      501.553      672.012        0.672        0.091      107.770       11.750        0.012      331.709       -0.102      872.932
01/05/2014  10:01:00       41.543       49.567       19.080       39.949       37.229       31.252     1595.907     1385.974      976.700        0.425        0.198       64.674       21.181        0.107      332.141        0.611      872.917
01/05/2014  10:02:00       74.766       73.341      -13.575       26.973       40.862       25.457      727.541     1669.742      648.053        0.710        0.152      104.732       19.743        0.036      331.836        0.107      872.914
01/05/2014  10:03:00       40.110       51.624       24.238       35.916       39.699       42.931     1289.964     1576.018     1843.072        0.478        0.235       65.375       19.369        0.088      332.132        0.595      872.895
01/05/2014  10:04:00        9.146       51.583       64.673       29.521       32.869       34.842      871.470     1080.380     1213.982        0.505        0.158       52.387       25.022        0.228      332.414        1.061      872.875
01/05/2014  10:05:00        9.971       52.749       72.688       21.337       31.095       17.492      455.255      966.897      305.960        0.495        0.086       53.683       18.162        0.114      332.220        0.740      872.868
01/05/2014  10:06:00       40.317       49.491       62.323       36.055       41.369       39.581     1299.954     1711.401     1566.631        0.627        0.229       63.834       36.523        0.327      332.191        0.692      872.862
01/05/2014  10:07:00       46.948       19.944       45.377       27.450       22.362       26.556      753.504      500.038      705.218        0.331        0.098       51.009       15.521        0.093      332.215        0.733      872.866
01/05/2014  10:08:00       41.878       60.715       64.257       38.524       28.990       26.555     1484.070      840.427      705.158        0.630        0.151       73.757       21.712        0.087      332.182        0.677      872.852
01/05/2014  10:09:00       23.154       15.475       44.834       24.097       28.134       20.022      580.642      791.519      400.884        0.228        0.089       27.850       11.460        0.169      332.412        1.058      872.834
01/05/2014  10:10:00       22.433       64.340       74.602       29.901       49.356       27.002      894.064     2435.987      729.101        0.713        0.203       68.139       19.504        0.082      332.280        0.840      872.807
01/05/2014  10:11:00       19.131       35.829       44.293       27.345       26.218       27.785      747.726      687.373      772.008        0.291        0.110       40.617       14.968        0.136      332.239        0.773      872.782
01/05/2014  10:12:00        4.783       45.180       59.866       22.977       30.079       16.040      527.938      904.725      257.288        0.367        0.084       45.432       13.515        0.088      332.350        0.954      872.775
01/05/2014  10:13:00       59.664       80.038       44.081       44.073       21.227       39.827     1942.462      450.580     1586.191        0.794        0.199       99.829       35.778        0.128      332.045        0.452      872.780
01/05/2014  10:14:00       63.019       67.045       -2.192       27.409       42.253       27.605      751.253     1785.301      762.024        0.588        0.165       92.013       18.934        0.042      331.930        0.261      872.776
01/05/2014  10:15:00       39.473       64.455       -4.294       35.677       34.496       32.294     1272.822     1189.972     1042.893        0.462        0.175       75.581       26.277        0.121      332.241        0.776      872.776
01/05/2014  10:16:00       -3.654       -3.983       19.852       24.967       28.720       20.897      623.366      824.813      436.694        0.115        0.094        5.405       22.843       17.861      332.431        1.090      872.771
01/05/2014  10:17:00       10.720       54.408       65.587       32.561       24.476       21.155     1060.201      599.068      447.553        0.474        0.105       55.454       20.838        0.141      332.621        1.403      872.763
01/05/2014  10:18:00       26.958       33.087       34.332       24.824       20.827       19.673      616.237      433.762      387.030        0.222        0.072       42.679       16.881        0.156      332.450        1.121      872.761
01/05/2014  10:19:00       15.593       49.243       58.387       32.619       28.752       23.639     1063.985      826.694      558.804        0.426        0.122       51.652       19.254        0.139      332.846        1.774      872.748
01/05/2014  10:20:00       65.921       67.755       19.550       29.509       22.132       26.411      870.763      489.813      697.561        0.569        0.103       94.532       11.079        0.014      332.415        1.064      872.728
01/05/2014  10:21:00        6.707       51.427       62.787       23.352       33.212       17.861      545.332     1103.039      319.019        0.430        0.098       51.863       10.514        0.041      332.913        1.886      872.714
01/05/2014  10:22:00       41.137       52.102       43.194       45.927       36.148       30.364     2109.271     1306.648      921.958        0.530        0.217       66.384       24.432        0.135      332.875        1.821      872.697
01/05/2014  10:23:00       38.832       69.748       49.896       52.490       42.569       35.804     2755.179     1812.149     1281.935        0.735        0.292       79.829       26.247        0.108      332.873        1.819      872.679
01/05/2014  10:24:00       98.255       73.657       14.033       25.956       17.508       23.723      673.735      306.529      562.797        0.841        0.077      122.799       12.809        0.011      332.327        0.917      872.672
01/05/2014  10:25:00       51.517       49.171       22.100       45.110       28.871       26.364     2034.896      833.532      695.062        0.456        0.178       71.216       19.098        0.072      332.704        1.541      872.655
01/05/2014  10:26:00       83.089       81.822       16.764       41.253       33.409       33.206     1701.780     1116.183     1102.615        0.890        0.196      116.613       28.670        0.060      332.837        1.759      872.633
01/05/2014  10:27:00       87.220       86.643        9.995       28.627       32.251       29.709      819.508     1040.136      882.640        0.898        0.137      122.941       16.920        0.019      332.656        1.459      872.617
01/05/2014  10:28:00       24.713       56.077      -13.189       38.028       31.029       19.118     1446.145      962.772      365.507        0.335        0.139       61.281       15.951        0.068      332.691        1.518      872.602
01/05/2014  10:29:00       13.224       69.970        4.105       50.984       38.129       29.193     2599.393     1453.784      852.237        0.500        0.245       71.209       16.897        0.056      332.941        1.933      872.595
01/05/2014  10:30:00       82.966       75.707      -11.446       40.603       27.095       27.312     1648.629      734.129      745.933        0.794        0.156      112.316       18.060        0.026      332.952        1.951      872.575
01/05/2014  10:31:00        4.461       65.410      -19.990       19.320       26.558       16.306      373.270      705.325      265.870        0.302        0.067       65.562       10.874        0.028      332.487        1.180      872.560
01/05/2014  10:32:00      -14.511       21.175       11.498       17.558       31.119       24.507      308.272      968.405      600.586        0.133        0.094       25.670       23.595        0.845      332.966        1.972      872.548
01/05/2014  10:33:00      -22.268       13.824       30.329       28.295       20.424       18.351      800.608      417.124      336.762        0.158        0.078       26.209       13.706        0.273      333.147        2.272      872.535
01/05/2014  10:34:00      -21.864       -6.736       22.987       23.450       20.207       14.143      549.918      408.304      200.027        0.110        0.058       22.878       11.852        0.268      333.073        2.149      872.521
01/05/2014  10:35:00      -12.087       13.463       41.783       16.851       20.874       16.855      283.943      435.740      284.077        0.154        0.050       18.092       14.258        0.621      333.578        2.985      872.508
01/05/2014  10:36:00       -0.328       17.256       36.776       19.723       26.380       27.899      388.984      695.897      778.358        0.176        0.093       17.259       16.856        0.954      333.489        2.838      872.502
01/05/2014  10:37:00       38.344       57.470       45.181       29.770       27.753       24.850      886.235      770.244      617.498        0.454        0.114       69.088       14.148        0.042      333.055        2.120      872.502
01/05/2014  10:38:00       -3.575        7.070       44.814       11.894       19.588       16.652      141.468      383.708      277.297        0.144        0.040        7.923       11.200        1.998      333.747        3.264      872.482
01/05/2014  10:39:00      -15.398       34.712       62.433       21.532       34.779       36.939      463.611     1209.571     1364.457        0.419        0.152       37.974       31.092        0.670      333.402        2.694      872.461
01/05/2014  10:40:00       -6.425      -39.446       21.022       29.682       58.533       27.487      880.992     3426.161      755.527        0.355        0.253       39.966       19.174        0.230      333.323        2.562      872.433
01/05/2014  10:41:00       40.593       -5.840       35.472       50.562       37.974       27.288     2556.560     1442.045      744.614        0.384        0.237       41.011       29.521        0.518      333.286        2.502      872.418
01/05/2014  10:42:00       16.265       -9.253       46.100       37.151       53.048       39.879     1380.185     2814.136     1590.345        0.413        0.289       18.713       39.368        4.426      333.598        3.019      872.385
01/05/2014  10:43:00       55.563       71.732       74.695       39.099       28.277       27.081     1528.716      799.562      733.381        0.844        0.153       90.735       18.498        0.042      333.016        2.056      872.359
01/05/2014  10:44:00       11.576       -4.421       52.297       65.511       76.289       37.254     4291.650     5819.947     1387.881        0.719        0.575       12.392       34.888        7.927      333.306        2.534      872.336
01/05/2014  10:45:00       49.161       23.028       67.885       45.599      101.253       36.991     2079.274    10252.137     1368.326        1.062        0.685       54.287       40.500        0.557      333.271        2.477      872.327
01/05/2014  10:46:00       36.059      116.941      108.144       53.432       44.057       37.919     2855.013     1941.042     1437.844        1.645        0.312      122.374       18.903        0.024      333.098        2.190      872.301
01/05/2014  10:47:00       64.492      103.985       96.238       40.284       33.152       26.885     1622.769     1099.054      722.821        1.384        0.172      122.361       19.606        0.026      332.995        2.020      872.296
01/05/2014  10:48:00       62.270      109.640       84.450       44.594       32.315       34.755     1988.640     1044.259     1207.884        1.363        0.212      126.089       23.413        0.034      333.091        2.179      872.281
01/05/2014  10:49:00       46.236      -10.399       30.850       49.738       63.535       45.809     2473.916     4036.661     2098.510        0.590        0.430       47.391       47.937        1.023      333.256        2.453      872.281
01/05/2014  10:50:00       41.069      -28.518       18.707       37.273       63.526       41.247     1389.301     4035.547     1701.305        0.499        0.356       49.999       36.847        0.543      333.194        2.349      872.268
01/05/2014  10:51:00      107.390       88.576       45.149       46.310       35.736       39.763     2144.629     1277.036     1581.104        1.321        0.250      139.206       32.298        0.054      333.042        2.098      872.251
01/05/2014  10:52:00       56.664       49.440       46.170       27.726       36.989       30.136      768.733     1368.207      908.154        0.542        0.152       75.201       24.943        0.110      333.101        2.196      872.233
01/05/2014  10:53:00       52.627       95.022       83.998       58.652       46.873       40.696     3440.036     2197.052     1656.199        1.307        0.365      108.623       38.041        0.123      333.210        2.376      872.219
01/05/2014  10:54:00       43.887       48.578       56.674       38.367       34.656       28.885     1472.051     1201.028      834.372        0.550        0.175       65.467       23.187        0.125      333.189        2.342      872.199
01/05/2014  10:55:00       31.264       75.190       78.040       55.260       51.500       40.392     3053.624     2652.282     1631.509        1.003        0.367       81.431       34.224        0.177      333.378        2.654      872.177
01/05/2014  10:56:00       53.621       73.949      113.443       65.714       77.779       46.377     4318.319     6049.513     2150.857        1.686        0.626       91.343       55.172        0.365      333.254        2.447      872.157
01/05/2014  10:57:00       88.384       29.506       24.691       50.817       42.870       44.436     2582.408     1837.855     1974.527        0.784        0.320       93.179       33.322        0.128      332.994        2.020      872.147
01/05/2014  10:58:00       23.477       18.205       39.274       30.595       39.282       39.749      936.039     1543.104     1579.961        0.324        0.203       29.709       19.338        0.424      333.343        2.596      872.119
01/05/2014  10:59:00       41.033      -19.306       52.279       66.850       74.968       52.571     4468.896     5620.211     2763.712        0.882        0.643       45.348       56.181        1.535      333.646        3.098      872.096
01/05/2014  11:00:00       53.866       -3.375       47.444       56.598       70.186       41.518     3203.358     4926.030     1723.767        0.751        0.493       53.971       45.267        0.703      333.469        2.805      872.087
01/05/2014  11:01:00       63.984       26.363       50.637       52.494       99.274       54.685     2755.625     9855.399     2990.460        1.147        0.780       69.203       61.115        0.780      333.408        2.704      872.066
01/05/2014  11:02:00       87.070       58.553       33.269       44.000       29.763       28.336     1935.965      885.813      802.953        0.787        0.181      104.927       25.220        0.058      333.160        2.292      872.055
01/05/2014  11:03:00       81.016       85.373       35.147       34.661       37.419       33.847     1201.412     1400.173     1145.590        0.942        0.187      117.695       22.544        0.037      333.253        2.447      872.046
01/05/2014  11:04:00      102.601      132.068      100.629       68.521       60.003       46.933     4695.091     3600.350     2202.737        2.429        0.525      167.239       37.067        0.049      333.260        2.457      872.023
01/05/2014  11:05:00      156.862      116.899       61.316       47.577       32.971       50.232     2263.537     1087.064     2523.253        2.395        0.294      195.630       29.571        0.023      333.020        2.060      872.017
01/05/2014  11:06:00       60.206       97.733      104.593       54.301       54.021       38.667     2948.580     2918.294     1495.108        1.574        0.368      114.789       38.227        0.111      333.299        2.523      872.001
01/05/2014  11:07:00       92.268      124.445      108.256       79.665       50.163       56.590     6346.486     2516.317     3202.381        2.389        0.603      154.920       54.352        0.123      333.345        2.597      871.986
01/05/2014  11:08:00       84.162       53.228       16.531       59.964       41.160       37.940     3595.695     1694.185     1439.473        0.846        0.336       99.582       20.627        0.043      333.299        2.523      871.968
01/05/2014  11:09:00       82.418       75.676       65.383       67.533       61.257       58.566     4560.732     3752.403     3429.971        1.427        0.587      111.891       40.629        0.132      333.616        3.048      871.940
01/05/2014  11:10:00      106.456      122.917      118.829       67.317       50.712       51.504     4531.611     2571.743     2652.712        2.516        0.488      162.608       39.858        0.060      333.293        2.512      871.916
01/05/2014  11:11:00       71.449       68.262       84.134       62.099       53.074       42.367     3856.270     2816.825     1794.998        1.265        0.423       98.816       33.892        0.118      333.457        2.784      871.899
01/05/2014  11:12:00      140.793       98.021       39.627       33.395       32.011       39.092     1115.259     1024.702     1528.174        1.733        0.183      171.554       23.706        0.019      333.001        2.030      871.902
01/05/2014  11:13:00       96.067       45.116       58.101       45.592       46.730       32.526     2078.657     2183.666     1057.929        0.998        0.266      106.134       24.768        0.054      333.307        2.535      871.878
01/05/2014  11:14:00       13.815       98.184      110.657       45.889       48.726       39.917     2105.820     2374.242     1593.371        1.407        0.304       99.151       35.423        0.128      333.588        3.001      871.869
01/05/2014  11:15:00       91.611       67.166       68.646       48.408       41.376       48.062     2343.295     1711.956     2309.965        1.199        0.318      113.595       28.508        0.063      333.258        2.454      871.856
01/05/2014  11:16:00       65.005      102.490       92.073       62.777       63.711       58.481     3940.899     4059.065     3420.054        1.731        0.571      121.367       53.787        0.196      333.474        2.811      871.830
01/05/2014  11:17:00       47.162       45.913       52.012       66.777       79.380       42.857     4459.138     6301.129     1836.753        0.981        0.630       65.820       33.753        0.263      333.617        3.051      871.827
01/05/2014  11:18:00      106.205      101.717        8.835       44.023       35.157       41.558     1937.999     1236.033     1727.071        1.330        0.245      147.057       13.892        0.009      333.314        2.546      871.802
01/05/2014  11:19:00       61.031       76.635       30.721       46.373       45.528       48.671     2150.478     2072.816     2368.885        0.857        0.330       97.968       25.055        0.065      333.715        3.211      871.788
01/05/2014  11:20:00       23.207       67.076       69.002       58.874       41.157       42.593     3466.100     1693.896     1814.189        0.839        0.349       70.978       40.517        0.326      334.090        3.832      871.773
01/05/2014  11:21:00       93.769       63.379       11.016       60.867       37.189       40.821     3704.848     1383.037     1666.389        0.984        0.338      113.179       31.164        0.076      333.934        3.574      871.761
01/05/2014  11:22:00       79.569       68.638        7.499       51.746       38.090       41.074     2677.631     1450.840     1687.066        0.846        0.291      105.083       21.208        0.041      333.594        3.011      871.747
01/05/2014  11:23:00       59.998       56.029       14.009       52.088       29.403       38.260     2713.163      864.553     1463.849        0.599        0.252       82.091       22.544        0.075      333.579        2.986      871.741
01/05/2014  11:24:00      101.188       71.124        7.633       45.832       35.967       34.562     2100.590     1293.628     1194.549        0.997        0.229      123.683       16.962        0.019      333.456        2.783      871.722
01/05/2014  11:25:00      119.341       71.074       14.243       52.862       35.658       40.741     2794.377     1271.496     1659.818        1.261        0.286      138.902       25.908        0.035      333.814        3.375      871.702
01/05/2014  11:26:00       75.184       55.080       14.956       64.101       52.810       36.864     4108.999     2788.884     1358.939        0.858        0.413       93.201       24.935        0.072      333.759        3.284      871.707
01/05/2014  11:27:00      104.471       91.049       29.261       63.307       54.110       47.176     4007.837     2927.905     2225.591        1.461        0.458      138.579       29.879        0.046      333.886        3.495      871.706
01/05/2014  11:28:00      116.356       68.410       -0.312       57.366       52.503       31.324     3290.821     2756.555      981.209        1.262        0.351      134.976       20.930        0.024      333.663        3.123      871.697
01/05/2014  11:29:00       42.435       63.516       -3.900       44.588       36.001       30.904     1988.052     1296.103      955.051        0.504        0.212       76.387       19.067        0.062      333.838        3.417      871.689
01/05/2014  11:30:00       53.895       55.607       12.296       61.586       32.700       27.308     3792.835     1069.269      745.754        0.588        0.280       77.439       16.962        0.048      333.682        3.157      871.671
01/05/2014  11:31:00       27.748       58.173       11.605       32.631       39.608       32.397     1064.782     1568.767     1049.588        0.399        0.184       64.452       25.877        0.161      333.876        3.479      871.667
01/05/2014  11:32:00       33.156       46.887       -1.372       31.771       32.605       25.793     1009.391     1063.110      665.269        0.302        0.137       57.425       18.901        0.108      333.656        3.115      871.665
01/05/2014  11:33:00       74.433       88.322       -1.096       72.168       49.301       42.792     5208.279     2430.620     1831.153        1.140        0.474      115.503       27.299        0.056      333.754        3.275      871.644
01/05/2014  11:34:00       73.420       78.995       13.230       53.292       45.362       43.586     2840.017     2057.743     1899.737        0.930        0.340      107.846       17.737        0.027      333.864        3.459      871.633
01/05/2014  11:35:00       56.773       91.969       75.914       67.378       58.280       50.597     4539.777     3396.523     2560.019        1.397        0.525      108.081       42.222        0.153      334.107        3.861      871.611
01/05/2014  11:36:00      108.366      133.263      105.753       57.873       46.423       44.638     3349.286     2155.057     1992.590        2.409        0.375      171.762       34.305        0.040      333.845        3.424      871.586
01/05/2014  11:37:00       98.700      105.875       92.491       70.418       52.885       55.358     4958.685     2796.796     3064.468        2.016        0.541      144.745       46.458        0.103      333.957        3.612      871.581
01/05/2014  11:38:00       75.877       24.053       33.951       59.061       78.879       39.649     3488.239     6221.972     1572.015        0.938        0.564       79.598       36.332        0.208      333.748        3.266      871.560
01/05/2014  11:39:00       34.246       19.108       47.314       51.308       47.299       35.908     2632.493     2237.196     1289.391        0.497        0.308       39.216       35.706        0.829      334.064        3.790      871.536
01/05/2014  11:40:00       38.895       23.120       35.855       34.967       24.042       39.196     1222.711      578.002     1536.327        0.333        0.167       45.248       17.410        0.148      334.047        3.762      871.512
01/05/2014  11:41:00       20.687       23.340       24.831       27.890       27.571       19.441      777.861      760.173      377.960        0.175        0.096       31.188       15.477        0.246      334.389        4.330      871.487
01/05/2014  11:42:00       17.076       30.225       49.669       36.360       30.574       26.889     1322.052      934.748      723.029        0.333        0.149       34.715       20.897        0.362      334.305        4.190      871.471
01/05/2014  11:43:00       33.201       67.277       31.460       64.239       43.652       47.320     4126.615     1905.473     2239.174        0.744        0.414       75.024       28.354        0.143      334.212        4.036      871.447
01/05/2014  11:44:00       22.147       54.920       62.165       42.419       40.724       36.009     1799.379     1658.460     1296.673        0.606        0.238       59.217       32.078        0.293      334.500        4.514      871.435
01/05/2014  11:45:00       37.249      -33.394       20.808       53.864       74.686       41.795     2901.304     5578.064     1746.782        0.658        0.511       50.026       46.909        0.879      334.376        4.308      871.414
01/05/2014  11:46:00       99.854     -137.135      -32.323       67.702       54.816       37.778     4583.522     3004.807     1427.178        1.942        0.451      169.638       29.035        0.029      333.911        3.535      871.393
01/05/2014  11:47:00      104.384     -107.302      -13.920       50.139       47.705       30.402     2513.887     2275.802      924.255        1.416        0.286      149.699       23.177        0.024      333.917        3.547      871.384
01/05/2014  11:48:00       52.526      -82.137       14.265       39.812       57.586       27.609     1584.981     3316.154      762.264        0.769        0.283       97.496       29.835        0.094      334.011        3.702      871.369
01/05/2014  11:49:00       41.935       54.907       66.061       55.157       62.982       40.599     3042.251     3966.746     1648.267        0.890        0.433       69.090       40.566        0.345      334.355        4.273      871.355
01/05/2014  11:50:00       97.498       88.299       67.299       53.292       48.982       51.600     2840.046     2399.273     2662.566        1.487        0.395      131.540       43.394        0.109      334.049        3.765      871.339
01/05/2014  11:51:00       43.576      104.046      102.574       56.913       44.828       59.641     3239.087     2009.530     3557.071        1.602        0.440      112.803       51.123        0.205      334.121        3.884      871.338
01/05/2014  11:52:00       13.034       66.710       68.213       43.502       39.990       33.461     1892.383     1599.179     1119.617        0.694        0.231       67.971       22.053        0.105      334.569        4.628      871.325
01/05/2014  11:53:00       29.373      -59.684       27.058       42.464       89.503       34.156     1803.228     8010.730     1166.636        0.807        0.549       66.521       45.487        0.468      334.375        4.306      871.311
01/05/2014  11:54:00       60.245       10.701       37.509       35.553       79.647       41.592     1263.999     6343.697     1729.910        0.724        0.467       61.188       50.802        0.689      334.362        4.285      871.294
01/05/2014  11:55:00       15.622      -26.720       21.587       31.630       38.978       25.466     1000.431     1519.254      648.529        0.230        0.158       30.951       16.829        0.296      334.588        4.661      871.271
01/05/2014  11:56:00       62.970       35.045       15.311       53.270       35.997       33.214     2837.651     1295.782     1103.159        0.533        0.262       72.066       11.205        0.024      334.541        4.582      871.251
01/05/2014  11:57:00       73.929       59.359       10.967       45.863       36.713       23.925     2103.433     1347.818      572.410        0.657        0.201       94.810        6.864        0.005      334.106        3.858      871.212
01/05/2014  11:58:00       91.931       79.400       17.460       58.430       32.638       38.288     3414.116     1065.252     1465.947        1.050        0.297      121.473       23.436        0.037      334.153        3.937      871.182
01/05/2014  11:59:00       51.174       46.367       34.663       64.764       30.968       34.193     4194.393      958.990     1169.173        0.615        0.316       69.055       21.012        0.093      334.444        4.421      871.150
01/05/2014  12:00:00       22.068      122.411       -8.337       33.911       55.153       27.262     1149.957     3041.879      743.198        1.024        0.247      124.385       24.733        0.040      334.400        4.347      871.124
01/05/2014  12:01:00      107.287       86.169        1.830       57.440       46.569       35.247     3299.310     2168.656     1242.363        1.282        0.336      137.607       22.031        0.026      334.302        4.184      871.095
01/05/2014  12:02:00       53.240       47.777       -1.739       37.404       30.365       27.073     1399.057      922.007      732.922        0.409        0.153       71.535       22.875        0.102      334.319        4.214      871.078
01/05/2014  12:03:00        9.626       70.296        2.255       19.763       50.087       28.052      390.565     2508.681      786.923        0.436        0.184       70.952       29.643        0.175      334.507        4.526      871.082
01/05/2014  12:04:00       46.878       78.966        1.003       44.912       35.758       29.647     2017.067     1278.603      878.947        0.630        0.209       91.832       22.200        0.058      334.390        4.332      871.068
01/05/2014  12:05:00       39.666       60.177        8.770       37.417       37.351       29.208     1400.053     1395.105      853.088        0.446        0.182       72.074       26.223        0.132      334.380        4.316      871.066
01/05/2014  12:06:00       53.031       49.671        4.178       22.669       15.920       28.267      513.886      253.458      799.037        0.343        0.078       72.660       11.984        0.027      334.463        4.453      871.055
01/05/2014  12:07:00       -9.563       32.806        3.243       32.607       24.972       21.134     1063.209      623.591      446.663        0.166        0.107       34.171       13.315        0.152      334.845        5.088      871.034
01/05/2014  12:08:00        6.858       32.106       -2.166       33.713       27.369       23.075     1136.597      749.045      532.475        0.175        0.121       32.831       16.689        0.258      335.040        5.412      871.028
01/05/2014  12:09:00       -5.488       -5.854      -20.391       17.558       23.696       17.718      308.268      561.523      313.944        0.083        0.059        8.024       11.461        2.040      334.856        5.105      871.011
01/05/2014  12:10:00        2.369        3.312       13.275       17.716       15.147       27.963      313.850      229.445      781.936        0.076        0.066        4.072       14.023       11.860      335.131        5.562      871.011
01/05/2014  12:11:00       -2.681       19.608       51.038       19.103       30.511       16.165      364.910      930.930      261.314        0.228        0.078       19.790       15.927        0.648      335.119        5.542      871.001
01/05/2014  12:12:00        5.075       36.021       52.545       29.682       27.697       18.809      881.012      767.102      353.761        0.304        0.100       36.376       14.135        0.151      335.124        5.550      871.007
01/05/2014  12:13:00       21.214       37.632        1.159       38.787       31.344       20.959     1504.399      982.437      439.281        0.240        0.146       43.200       15.823        0.134      334.846        5.089      870.996
01/05/2014  12:14:00       -1.597        0.074       34.656       26.683       45.771       33.221      712.001     2094.967     1103.616        0.256        0.196        1.598       32.255      407.247      335.418        6.040      870.992
01/05/2014  12:15:00       19.042     -110.189        3.672       59.961       52.972       37.662     3595.359     2806.014     1418.415        1.017        0.391      111.822       28.420        0.065      334.917        5.205      870.962
01/05/2014  12:16:00       60.573        3.140       58.823       52.060      105.575       60.756     2710.269    11146.174     3691.264        1.234        0.877       60.654       73.171        1.455      334.932        5.232      870.953
01/05/2014  12:17:00       27.490     -117.134       -5.092       58.453       65.977       41.465     3416.761     4352.972     1719.312        1.199        0.474      120.317       45.835        0.145      334.653        4.767      870.947
01/05/2014  12:18:00       62.991     -145.985      -18.339       50.517       53.905       30.702     2551.946     2905.787      942.615        1.601        0.320      158.995       26.350        0.027      334.401        4.348      870.924
01/05/2014  12:19:00       65.060      -60.244        0.485       39.231       34.943       26.859     1539.103     1220.987      721.381        0.567        0.174       88.668       23.311        0.069      334.466        4.457      870.905
01/05/2014  12:20:00       17.734        8.123       49.911       31.977       74.803       35.083     1022.539     5595.456     1230.799        0.536        0.392       19.506       44.386        5.178      334.807        5.024      870.865
01/05/2014  12:21:00        7.711       47.934       67.519       43.960       40.140       28.284     1932.509     1611.229      799.990        0.563        0.217       48.550       19.740        0.165      334.975        5.303      870.846
01/05/2014  12:22:00       55.030       75.458       75.840       66.733       40.438       44.130     4453.285     1635.215     1947.467        1.125        0.402       93.392       43.275        0.215      334.752        4.932      870.823
01/05/2014  12:23:00       93.259       82.724       59.211       26.955       37.200       39.573      726.571     1383.834     1566.034        1.136        0.184      124.662       26.677        0.046      334.447        4.426      870.818
01/05/2014  12:24:00       76.081       27.388       17.716       52.962       57.140       38.706     2804.939     3264.969     1498.158        0.721        0.378       80.861       33.332        0.170      334.475        4.473      870.789
01/05/2014  12:25:00       48.753       58.867       16.046       55.217       50.534       38.623     3048.968     2553.699     1491.729        0.660        0.355       76.434       35.118        0.211      334.866        5.123      870.763
01/05/2014  12:26:00       65.050       63.383        2.245       33.714       26.965       34.022     1136.663      727.108     1157.470        0.564        0.151       90.824       19.695        0.047      334.599        4.678      870.744
01/05/2014  12:27:00       56.962       30.173       11.372       26.516       23.458       29.134      703.091      550.299      848.787        0.319        0.105       64.460       17.285        0.072      334.576        4.641      870.717
01/05/2014  12:28:00      -11.545       80.488       -0.559       34.541       56.295       24.516     1193.101     3169.132      601.024        0.579        0.248       81.312       22.288        0.075      334.761        4.945      870.700
01/05/2014  12:29:00      114.423       80.763        1.807       95.557       43.113       34.104     9131.095     1858.725     1163.070        1.588        0.608      140.054       23.207        0.027      334.653        4.766      870.679
01/05/2014  12:30:00      126.199       94.587       32.104       67.591       44.007       54.706     4568.552     1936.621     2992.779        1.770        0.475      157.711       24.865        0.025      334.816        5.037      870.665
01/05/2014  12:31:00       95.016       62.378       17.807       79.082       66.576       45.564     6253.994     4432.298     2076.077        1.300        0.638      113.662       16.187        0.020      334.940        5.243      870.650
01/05/2014  12:32:00       21.242       48.948       96.403       38.450       91.866       47.418     1478.379     8439.283     2248.494        1.215        0.608       53.358       53.560        1.008      335.174        5.634      870.621
01/05/2014  12:33:00      119.102       68.835       39.320       46.244       57.320       61.459     2138.554     3285.608     3777.269        1.483        0.460      137.563       52.118        0.144      334.629        4.727      870.620
01/05/2014  12:34:00        3.359       -2.877       28.960       23.419       18.974       14.001      548.470      360.007      196.035        0.098        0.055        4.423       11.134        6.337      335.317        5.871      870.599
01/05/2014  12:35:00       42.055       37.415       30.971       23.063       22.570       19.164      531.918      509.402      367.240        0.277        0.070       56.289       10.579        0.035      334.975        5.302      870.577
01/05/2014  12:36:00       26.882       52.239       64.741       30.325       31.000       17.511      919.589      960.999      306.651        0.491        0.109       58.750       14.151        0.058      334.997        5.339      870.570
01/05/2014  12:37:00       51.315       68.734       82.484       69.031       60.826       44.256     4765.252     3699.846     1958.575        1.229        0.521       85.777       40.193        0.220      335.174        5.634      870.552
01/05/2014  12:38:00       46.128       19.773       40.216       47.727       66.787       46.374     2277.895     4460.535     2150.573        0.651        0.444       50.187       33.389        0.443      335.124        5.549      870.546
01/05/2014  12:39:00       11.774       17.094       45.777       30.204       76.667       46.397      912.304     5877.790     2152.665        0.573        0.447       20.756       43.848        4.463      335.279        5.805      870.525
01/05/2014  12:40:00       22.689      -31.384       32.688       53.170       61.402       36.533     2827.036     3770.197     1334.647        0.525        0.397       38.727       28.081        0.526      335.472        6.129      870.494
01/05/2014  12:41:00      121.225     -108.897       -3.340       59.593       75.373       41.891     3551.317     5681.023     1754.882        1.877        0.549      162.954       48.613        0.089      334.878        5.140      870.476
01/05/2014  12:42:00      101.572     -144.545       -9.391       46.757       40.671       32.535     2186.209     1654.171     1058.495        1.810        0.245      176.664       25.476        0.021      334.668        4.792      870.457
01/05/2014  12:43:00       75.954     -164.447      -14.966       48.795       50.452       37.274     2380.963     2545.403     1389.342        1.967        0.316      181.140       25.589        0.020      334.738        4.906      870.445
01/05/2014  12:44:00       52.578       21.625       68.098       71.029      104.322       56.898     5045.114    10883.075     3237.368        1.351        0.958       56.851       71.721        1.592      335.119        5.541      870.447
01/05/2014  12:45:00      118.589       62.579       45.352       55.003       49.882       50.801     3025.328     2488.195     2580.780        1.406        0.405      134.087       33.696        0.063      334.701        4.847      870.463
01/05/2014  12:46:00       78.084       66.808       58.882       56.031       40.489       34.526     3139.428     1639.386     1192.069        1.000        0.299      102.764       31.396        0.093      334.898        5.175      870.443
01/05/2014  12:47:00       95.640       89.846       70.801       62.664       52.865       52.592     3926.791     2794.672     2765.921        1.586        0.474      131.223       47.087        0.129      334.885        5.153      870.431
01/05/2014  12:48:00       99.884       75.388       33.559       36.783       37.981       46.181     1352.998     1442.553     2132.660        1.086        0.246      125.141       29.963        0.057      334.812        5.032      870.421
01/05/2014  12:49:00        3.742       -2.480       11.441       26.451       43.430       22.370      699.638     1886.126      500.400        0.162        0.154        4.489       12.024        7.174      335.216        5.702      870.398
01/05/2014  12:50:00       27.577      -85.833      -13.086       53.993       31.190       23.468     2915.292      972.839      550.768        0.637        0.222       90.155       16.674        0.034      335.112        5.531      870.386
01/05/2014  12:51:00       58.717     -105.152      -23.132       38.606       42.350       36.106     1490.455     1793.484     1303.663        0.981        0.229      120.435       22.814        0.036      335.046        5.419      870.373
01/05/2014  12:52:00       99.909     -119.702       -7.040       62.854       82.909       52.867     3950.659     6873.966     2794.934        1.899        0.681      155.917       56.384        0.131      335.127        5.554      870.356
01/05/2014  12:53:00      100.117      -92.845       -5.443       44.595       66.070       47.385     1988.745     4365.224     2245.380        1.363        0.430      136.541       40.000        0.086      334.995        5.337      870.336
01/05/2014  12:54:00       23.851      -11.780       26.980       51.396       42.743       36.074     2641.564     1827.002     1301.334        0.360        0.288       26.602       25.349        0.908      335.410        6.024      870.316
01/05/2014  12:55:00       36.056      -98.755      -11.207       52.789       34.706       26.858     2786.662     1204.505      721.378        0.794        0.236      105.131       17.166        0.027      335.174        5.633      870.301
01/05/2014  12:56:00       25.051      -18.505       33.184       52.159       62.605       39.633     2720.539     3919.394     1570.735        0.514        0.411       31.145       34.192        1.205      335.515        6.200      870.270
01/05/2014  12:57:00       56.068      -66.443       43.735       46.135       83.714       46.218     2128.465     7008.048     2136.102        1.037        0.564       86.939       43.747        0.253      335.379        5.974      870.237
01/05/2014  12:58:00       25.239       44.207       69.150       56.542       48.014       39.075     3197.033     2305.338     1526.865        0.720        0.351       50.905       24.159        0.225      335.522        6.213      870.211
01/05/2014  12:59:00       18.290      -68.862        7.117       44.377       56.746       51.777     1969.307     3220.136     2680.894        0.650        0.394       71.250       32.583        0.209      335.532        6.229      870.196
01/05/2014  13:00:00       58.865      -46.395        5.278       49.443       58.164       46.433     2444.653     3383.059     2156.040        0.681        0.399       74.951       43.486        0.337      335.295        5.833      870.186
01/05/2014  13:01:00       53.073      -25.082       31.002       47.134       56.073       50.014     2221.636     3144.133     2501.356        0.614        0.393       58.701       50.075        0.728      335.370        5.958      870.167
01/05/2014  13:02:00       29.530      -19.500       34.012       27.892       52.626       30.265      777.990     2769.540      915.981        0.344        0.223       35.388       27.485        0.603      335.336        5.902      870.164
01/05/2014  13:03:00       47.013       41.170       31.791       27.833       29.282       29.248      774.654      857.442      855.470        0.370        0.124       62.491       17.238        0.076      335.281        5.809      870.166
01/05/2014  13:04:00       61.744       88.486       -8.448       46.440       46.249       28.545     2156.688     2138.982      814.845        0.841        0.256      107.899       16.201        0.023      335.187        5.656      870.167
01/05/2014  13:05:00       11.520       83.774       -8.969       28.969       42.633       22.853      839.216     1817.552      522.279        0.520        0.159       84.563       16.254        0.037      335.203        5.680      870.156
01/05/2014  13:06:00      -17.164      104.161        6.718       31.418       47.813       24.758      987.071     2286.111      612.938        0.754        0.194      105.565       23.638        0.050      335.437        6.072      870.140
01/05/2014  13:07:00       45.795       66.738        7.820       42.949       38.313       25.934     1844.643     1467.875      672.552        0.530        0.199       80.939       14.933        0.034      335.367        5.953      870.124
01/05/2014  13:08:00       56.581       76.229       88.230       54.761       54.639       49.610     2998.755     2985.367     2461.169        1.262        0.422       94.933       41.964        0.195      335.232        5.730      870.118
01/05/2014  13:09:00       63.068       75.854       76.202       71.276       47.042       44.866     5080.200     2212.934     2012.917        1.242        0.465       98.648       46.605        0.223      335.324        5.882      870.113
01/05/2014  13:10:00       48.749       65.721       73.196       53.243       56.883       47.075     2834.796     3235.677     2216.027        1.017        0.414       81.828       40.473        0.245      335.493        6.163      870.116
01/05/2014  13:11:00       40.754       51.004        0.080       36.661       28.463       25.538     1344.007      810.138      652.205        0.353        0.140       65.286       15.730        0.058      335.522        6.212      870.110
01/05/2014  13:12:00       30.693       11.310       13.720       28.817       24.277       20.010      830.398      589.392      400.399        0.154        0.091       32.711       11.586        0.125      335.550        6.260      870.097
01/05/2014  13:13:00       -3.271       -1.476       31.701       40.955       40.203       21.806     1677.347     1616.252      475.493        0.239        0.188        3.589       19.463       29.408      335.828        6.722      870.084
01/05/2014  13:14:00       41.110        6.170        2.094       28.855       58.116       29.368      832.615     3377.481      862.479        0.340        0.254       41.571       17.656        0.180      335.551        6.261      870.080
01/05/2014  13:15:00       28.514       34.447       -2.004       35.097       36.940       23.019     1231.799     1364.540      529.875        0.256        0.156       44.718       20.482        0.210      335.677        6.469      870.065
01/05/2014  13:16:00       81.159       37.522       37.179       65.653       41.670       39.427     4310.281     1736.351     1554.490        0.849        0.380       89.413       36.781        0.169      335.394        5.998      870.056
01/05/2014  13:17:00       71.716       59.755        3.963       43.765       25.574       24.320     1915.403      654.042      591.471        0.594        0.158       93.348       20.795        0.050      335.115        5.536      870.051
01/05/2014  13:18:00       43.622       43.347       48.599       45.716       47.236       58.470     2089.945     2231.272     3418.717        0.694        0.387       61.497       42.534        0.478      335.448        6.087      870.054
01/05/2014  13:19:00      101.067       46.548       28.207       37.903       44.064       34.150     1436.674     1941.631     1166.195        0.886        0.227      111.271       16.538        0.022      335.144        5.584      870.067
01/05/2014  13:20:00       29.552      -10.755       16.199       36.985       34.272       20.611     1367.859     1174.596      424.818        0.211        0.148       31.449       21.537        0.469      335.553        6.264      870.048
01/05/2014  13:21:00       -0.998        6.933       11.218       11.719       12.285       16.541      137.330      150.930      273.618        0.037        0.028        7.004       10.744        2.353      335.959        6.941      870.026
01/05/2014  13:22:00       -6.116       32.566       -8.721       13.934       22.014       15.832      194.161      484.597      250.640        0.105        0.046       33.135        6.413        0.037      335.574        6.298      870.012
01/05/2014  13:23:00       29.827      -65.293       -8.537       41.586       76.142       24.629     1729.435     5797.632      606.588        0.668        0.407       71.784       20.002        0.078      335.587        6.320      869.993
01/05/2014  13:24:00       67.010       27.757       31.510       39.202       52.050       36.551     1536.811     2709.193     1335.943        0.592        0.279       72.531       21.669        0.089      335.606        6.352      869.979
01/05/2014  13:25:00       25.478       47.581        6.230       62.134       81.633       44.837     3860.665     6663.942     2010.348        0.774        0.627       53.973       39.906        0.547      335.864        6.782      869.954
01/05/2014  13:26:00      114.412       64.213       28.597       51.691       46.516       33.778     2671.973     2163.720     1140.975        1.200        0.299      131.200       17.556        0.018      335.804        6.681      869.944
01/05/2014  13:27:00      138.199       83.795       33.499       61.023       41.174       45.898     3723.848     1695.320     2106.619        1.738        0.376      161.619       33.691        0.043      335.722        6.544      869.935
01/05/2014  13:28:00       92.469       82.390       14.602       34.894       27.900       34.411     1217.590      778.435     1184.088        0.937        0.159      123.849       17.081        0.019      335.542        6.245      869.936
01/05/2014  13:29:00       50.466       51.218        7.219       56.096       37.005       31.790     3146.800     1369.342     1010.605        0.537        0.276       71.903       21.992        0.094      335.594        6.332      869.943
01/05/2014  13:30:00       41.830       76.283       -3.334       35.589       56.976       39.141     1266.588     3246.276     1531.983        0.681        0.302       86.999       35.120        0.163      335.581        6.310      869.949
01/05/2014  13:31:00       27.884       84.241      -11.004       23.437       40.123       25.584      549.287     1609.875      654.535        0.540        0.141       88.736       22.478        0.064      335.516        6.202      869.947
01/05/2014  13:32:00       -3.832       61.330        5.067       23.656       42.314       26.563      559.591     1790.447      705.596        0.343        0.153       61.449       19.821        0.104      335.703        6.513      869.945
01/05/2014  13:33:00       31.327       16.853        6.298       22.842       21.230       20.510      521.776      450.709      420.670        0.135        0.070       35.572       14.713        0.171      335.773        6.630      869.941
01/05/2014  13:34:00       19.842       48.948       51.111       29.041       42.078       37.256      843.387     1770.561     1388.011        0.470        0.200       52.817       34.142        0.418      335.737        6.571      869.939
01/05/2014  13:35:00       64.553       69.128       39.274       25.667       22.014       30.730      658.776      484.608      944.328        0.629        0.104       94.582       19.780        0.044      335.460        6.108      869.926
01/05/2014  13:36:00       50.113       46.353       22.234       37.021       26.875       24.405     1370.535      722.279      595.590        0.392        0.134       68.263       10.451        0.023      335.638        6.405      869.919
01/05/2014  13:37:00      -15.665        1.816       20.031       19.200       13.972       16.952      368.640      195.227      287.376        0.075        0.043       15.770       13.586        0.742      336.204        7.350      869.915
01/05/2014  13:38:00      -16.807       -9.792        1.003       20.593       22.138       14.664      424.081      490.073      215.022        0.075        0.056       19.451       11.942        0.377      336.123        7.214      869.899
01/05/2014  13:39:00       26.047      -51.640       13.881       31.115       57.536       19.567      968.125     3310.429      382.864        0.410        0.233       57.837       23.238        0.161      336.188        7.323      869.891
01/05/2014  13:40:00       51.792      -53.478        2.002       38.260       62.534       34.889     1463.864     3910.511     1217.238        0.607        0.330       74.446       40.185        0.291      336.002        7.012      869.894
01/05/2014  13:41:00       22.847       18.875       33.424       31.194       34.259       29.809      973.047     1173.686      888.555        0.251        0.152       29.635       19.498        0.433      336.040        7.075      869.879
01/05/2014  13:42:00       10.469       19.354       51.006       40.076       54.426       36.141     1606.061     2962.167     1306.208        0.448        0.294       22.004       34.433        2.449      336.106        7.184      869.873
01/05/2014  13:43:00       73.733       37.570       33.120       74.565       39.442       40.954     5559.937     1555.694     1677.199        0.837        0.440       82.753       43.158        0.272      335.768        6.621      869.876
01/05/2014  13:44:00       15.343       22.012       41.663       41.288       57.315       44.589     1704.666     3285.011     1988.216        0.472        0.349       26.832       42.892        2.555      336.100        7.175      869.868
01/05/2014  13:45:00      146.511       93.402       55.667       74.425       40.698       54.115     5539.105     1656.362     2928.472        2.170        0.506      173.751       55.211        0.101      335.762        6.610      869.866
01/05/2014  13:46:00       99.675        5.574       27.145       59.284       36.663       40.289     3514.537     1344.162     1623.186        0.859        0.324       99.830       25.320        0.064      335.718        6.539      869.874
01/05/2014  13:47:00       72.267       10.967       24.130       23.807       33.482       36.495      566.769     1121.061     1331.879        0.447        0.151       73.094       21.866        0.089      335.712        6.529      869.882
01/05/2014  13:48:00       13.229       54.249        3.424       21.799       21.476       20.829      475.184      461.212      433.866        0.225        0.069       55.838       12.687        0.052      335.856        6.768      869.878
01/05/2014  13:49:00       42.159       12.262        3.022       16.834       17.045       17.013      283.369      290.522      289.433        0.140        0.043       43.906        6.361        0.021      335.826        6.718      869.863
01/05/2014  13:50:00       12.177      -24.138       -1.783       15.621       18.250       14.851      244.002      333.076      220.550        0.077        0.040       27.036       10.696        0.157      336.022        7.045      869.866
01/05/2014  13:51:00        2.289      -23.370        9.607       20.518       21.536       21.220      420.978      463.788      450.287        0.099        0.067       23.482       13.454        0.328      336.385        7.650      869.876
01/05/2014  13:52:00       18.402      -97.654      -16.920       62.443       43.196       28.144     3899.080     1865.929      792.087        0.836        0.328       99.373       32.904        0.110      336.023        7.048      869.873
01/05/2014  13:53:00       35.918      -72.870       -4.537       61.799       73.099       48.380     3819.090     5343.431     2340.586        0.906        0.575       81.241       51.892        0.408      336.137        7.237      869.852
01/05/2014  13:54:00       10.398       22.351       76.332       47.129      108.827       50.597     2221.134    11843.272     2560.012        1.153        0.831       24.652       58.929        5.714      336.255        7.433      869.848
01/05/2014  13:55:00       45.431      -77.555        8.974       41.591       96.633       40.930     1729.777     9337.959     1675.256        1.045        0.637       89.882       55.557        0.382      335.992        6.995      869.854
01/05/2014  13:56:00       36.753      -85.669       24.354       60.800       80.971       49.638     3696.683     6556.321     2463.961        1.100        0.636       93.220       34.506        0.137      336.285        7.483      869.848
01/05/2014  13:57:00       47.088       29.707       47.773       47.402       40.226       44.213     2246.941     1618.149     1954.812        0.560        0.291       55.676       32.865        0.348      336.091        7.160      869.862
01/05/2014  13:58:00       59.267     -109.457       -2.045       64.240       68.585       30.201     4126.810     4703.910      912.077        1.262        0.487      124.473       35.562        0.082      336.144        7.247      869.853
01/05/2014  13:59:00      114.927     -130.399      -32.939       31.004       52.211       26.368      961.278     2725.953      695.289        1.784        0.219      173.817       17.950        0.011      335.868        6.788      869.867
01/05/2014  14:00:00       69.041      -12.369       23.795       49.726       75.084       50.360     2472.661     5637.561     2536.108        0.806        0.532       70.141       50.023        0.509      336.180        7.309      869.868
01/05/2014  14:01:00       49.001      -14.171       52.350       55.715       89.574       52.955     3104.160     8023.436     2804.266        0.963        0.697       51.009       56.749        1.238      336.282        7.479      869.865
01/05/2014  14:02:00       52.383       -5.316       36.252       37.387       59.731       37.584     1397.801     3567.753     1412.540        0.523        0.319       52.652       36.305        0.475      336.190        7.325      869.872
01/05/2014  14:03:00       35.192       50.389       46.983       42.211       30.713       44.202     1781.799      943.286     1953.815        0.533        0.234       61.461       26.020        0.179      336.207        7.353      869.873
01/05/2014  14:04:00       58.928       35.248       38.449       29.960       20.456       29.878      897.585      418.468      892.702        0.420        0.110       68.665       19.271        0.079      336.127        7.220      869.862
01/05/2014  14:05:00       30.393       81.860       -6.623       32.453       29.881       20.415     1053.175      892.904      416.762        0.502        0.118       87.320       17.603        0.041      336.092        7.163      869.865
01/05/2014  14:06:00       47.014       19.980       20.122       27.921       37.419       24.984      779.582     1400.167      624.201        0.291        0.140       51.084       19.842        0.151      336.212        7.363      869.858
01/05/2014  14:07:00       21.763       19.747       30.738       35.721       49.336       31.470     1275.968     2434.012      990.384        0.325        0.235       29.386       27.986        0.907      336.371        7.628      869.856
01/05/2014  14:08:00       73.923     -136.277      -14.557       91.036       73.206       38.189     8287.508     5359.186     1458.409        1.967        0.755      155.036       51.306        0.110      336.334        7.563      869.850
01/05/2014  14:09:00       58.756      -22.699       51.375       69.820       62.707       45.155     4874.809     3932.148     2038.984        0.872        0.542       62.988       56.017        0.791      336.317        7.539      869.850
01/05/2014  14:10:00       46.336       85.218       94.057       83.383       64.142       51.746     6952.780     4114.187     2677.645        1.600        0.687       97.001       51.575        0.283      336.371        7.626      869.853
01/05/2014  14:11:00      104.985       11.411       39.035       51.197       55.771       47.858     2621.159     3110.425     2290.357        1.035        0.401      105.604       29.316        0.077      336.096        7.168      869.870
01/05/2014  14:12:00       57.389       36.654       29.919       51.485       34.106       33.177     2650.689     1163.225     1100.724        0.522        0.246       68.095       21.663        0.101      336.350        7.592      869.873
01/05/2014  14:13:00       22.555      -30.054        6.788       44.327       62.768       41.922     1964.887     3939.821     1757.421        0.456        0.383       37.577       33.116        0.777      336.395        7.667      869.879
01/05/2014  14:14:00       42.632      -47.931       -4.667       43.477       50.196       27.723     1890.266     2519.618      768.574        0.466        0.259       64.147       24.682        0.148      336.254        7.433      869.893
01/05/2014  14:15:00       18.563       -0.079       35.112       30.639       52.579       25.571      938.729     2764.602      653.884        0.297        0.218       18.563       29.177        2.470      336.674        8.133      869.903
01/05/2014  14:16:00       47.599       -1.322       12.449       51.772       87.232       38.415     2680.315     7609.466     1475.704        0.709        0.588       47.618       44.683        0.881      336.402        7.680      869.912
01/05/2014  14:17:00       63.545      -64.153       -2.792       58.180       44.842       33.674     3384.906     2010.833     1133.926        0.734        0.326       90.297       29.910        0.110      336.111        7.192      869.900
01/05/2014  14:18:00       55.882      -33.855       13.370       55.057       71.998       52.571     3031.250     5183.738     2763.741        0.771        0.549       65.337       52.843        0.654      336.281        7.476      869.889
01/05/2014  14:19:00       69.770      -23.994        9.557       45.936       52.106       42.021     2110.092     2715.062     1765.761        0.606        0.330       73.780       39.818        0.291      336.122        7.211      869.894
01/05/2014  14:20:00       52.700     -103.523      -12.363       37.046       66.256       27.305     1372.427     4389.877      745.538        1.008        0.325      116.165       20.630        0.032      336.226        7.384      869.897
01/05/2014  14:21:00       81.160      -92.907       12.685       50.811       62.760       41.360     2581.758     3938.810     1710.670        1.180        0.412      123.364       39.093        0.100      336.463        7.782      869.896
01/05/2014  14:22:00      102.547     -133.214       -1.427       43.789       63.794       31.238     1917.515     4069.736      975.800        1.761        0.348      168.113       29.076        0.030      336.191        7.326      869.915
01/05/2014  14:23:00       80.035     -101.135       12.609       45.763       59.994       42.928     2094.225     3599.251     1842.821        1.216        0.377      128.973       44.826        0.121      336.196        7.335      869.915
01/05/2014  14:24:00       48.919       21.052       60.355       50.851       51.845       40.098     2585.826     2687.942     1607.845        0.668        0.344       53.256       40.107        0.567      336.329        7.557      869.914
01/05/2014  14:25:00       47.320       -3.625       25.057       45.529       29.844       36.751     2072.904      890.635     1350.651        0.360        0.216       47.459       23.009        0.235      336.445        7.752      869.892
01/05/2014  14:26:00       24.831       34.623       21.948       40.224       25.744       33.966     1618.007      662.737     1153.710        0.287        0.172       42.606       20.383        0.229      336.513        7.865      869.886
01/05/2014  14:27:00       38.772      -76.790      -13.081       54.368       55.334       30.980     2955.837     3061.797      959.788        0.727        0.349       86.023       25.949        0.091      336.498        7.840      869.884
01/05/2014  14:28:00       69.600      -53.650       10.808       57.063       61.506       46.491     3256.174     3782.946     2161.387        0.852        0.460       87.878       50.084        0.325      336.476        7.804      869.872
01/05/2014  14:29:00       12.927      -19.682       12.771       35.699       37.661       29.323     1274.441     1418.358      859.865        0.213        0.178       23.547       19.548        0.689      336.706        8.188      869.864
01/05/2014  14:30:00      -25.754        1.231       14.655       36.191       28.229       24.536     1309.768      796.863      601.993        0.179        0.135       25.783       22.562        0.766      336.785        8.320      869.849
01/05/2014  14:31:00      -27.658      -40.192        2.857       38.710       29.601       27.312     1498.495      876.209      745.962        0.275        0.156       48.788       20.294        0.173      336.747        8.256      869.839
01/05/2014  14:32:00       -6.783      -69.242       -7.174       30.261       52.901       28.173      915.731     2798.521      793.745        0.470        0.225       69.574       28.148        0.164      336.749        8.260      869.822
01/05/2014  14:33:00       -6.289      -57.108        9.228       29.339       46.406       33.412      860.761     2153.512     1116.344        0.376        0.207       57.453       15.970        0.077      336.652        8.098      869.820
01/05/2014  14:34:00       15.904      -82.227       -4.065       34.480       43.392       29.177     1188.850     1882.874      851.301        0.548        0.196       83.751       15.055        0.032      336.593        8.000      869.816
01/05/2014  14:35:00       -8.577      -63.138       19.654       41.607       41.764       29.140     1731.115     1744.251      849.129        0.438        0.216       63.718       23.170        0.132      336.769        8.293      869.823
01/05/2014  14:36:00       90.056      -55.162       28.386       74.430      111.326       55.903     5539.837    12393.452     3125.129        1.650        1.053      105.608       74.079        0.492      336.475        7.800      869.826
01/05/2014  14:37:00      122.267     -116.757      -12.797       63.258       69.715       34.016     4001.570     4860.251     1157.112        1.938        0.501      169.061       29.653        0.031      336.416        7.702      869.820
01/05/2014  14:38:00       79.610      -57.713       -1.249       55.161       54.490       51.917     3042.778     2969.190     2695.372        0.919        0.435       98.329       31.875        0.105      336.434        7.733      869.834
01/05/2014  14:39:00      115.044      -79.714       -8.466       62.364       57.393       48.151     3889.213     3293.928     2318.484        1.458        0.475      139.962       43.085        0.095      336.361        7.610      869.836
01/05/2014  14:40:00       67.083     -140.101        1.269       51.615       52.774       34.573     2664.093     2785.080     1195.283        1.539        0.332      155.333       33.333        0.046      336.366        7.619      869.829
01/05/2014  14:41:00       73.600     -111.900       -2.978       33.077       55.610       26.008     1094.093     3092.423      676.402        1.140        0.243      133.935       21.038        0.025      336.308        7.523      869.831
01/05/2014  14:42:00       64.977      -59.067       15.260       33.460       64.952       34.378     1119.586     4218.703     1181.840        0.723        0.326       87.812       37.859        0.186      336.538        7.908      869.836
01/05/2014  14:43:00      101.496       -6.593       23.101       74.604       48.861       39.418     5565.799     2387.407     1553.781        1.019        0.475      101.710       32.739        0.104      336.663        8.115      869.841
01/05/2014  14:44:00       72.037      -69.733       -0.136       59.032       69.991       45.312     3484.776     4898.725     2053.207        1.024        0.522      100.260       49.523        0.244      336.647        8.087      869.854
01/05/2014  14:45:00      129.222     -190.145      -26.619       54.144       57.948       39.476     2931.571     3357.957     1558.377        3.070        0.392      229.899       36.228        0.025      336.414        7.697      869.855
01/05/2014  14:46:00       94.507       -2.169       42.355       81.304       80.241       58.543     6610.285     6438.646     3427.318        1.360        0.824       94.532       60.244        0.406      336.506        7.852      869.859
01/05/2014  14:47:00       98.249       55.591        8.929       52.128       27.909       32.111     2717.364      778.899     1031.112        0.867        0.226      112.886       13.808        0.015      336.257        7.436      869.861
01/05/2014  14:48:00        2.752      -54.701       -2.180       22.689       51.600       18.267      514.777     2662.602      333.695        0.326        0.176       54.770       19.451        0.126      336.626        8.055      869.852
01/05/2014  14:49:00       66.665      -81.210       15.260       42.839       80.079       38.565     1835.198     6412.644     1487.288        1.050        0.487      105.068       47.930        0.208      336.529        7.893      869.856
01/05/2014  14:50:00      103.842       89.874       55.856       63.634       37.712       34.999     4049.344     1422.178     1224.959        1.434        0.335      137.333       21.379        0.024      336.473        7.798      869.857
01/05/2014  14:51:00       96.716       71.253       37.798       69.488       43.240       53.236     4828.565     1869.729     2834.102        1.269        0.477      120.129       41.531        0.120      336.432        7.729      869.853
01/05/2014  14:52:00       88.026       84.969       63.742       40.460       34.901       35.476     1637.015     1218.086     1258.520        1.157        0.206      122.345       24.082        0.039      336.523        7.883      869.848
01/05/2014  14:53:00       77.137       27.713        3.664       54.424       70.175       39.131     2961.952     4924.552     1531.226        0.807        0.471       81.964       36.845        0.202      336.440        7.743      869.847
01/05/2014  14:54:00       77.994     -117.453      -21.680       35.280       38.316       24.692     1244.656     1468.113      609.697        1.183        0.166      140.990       21.282        0.023      336.501        7.845      869.847
01/05/2014  14:55:00        9.199       -7.227       43.430       33.426       70.606       39.557     1117.319     4985.275     1564.728        0.484        0.383       11.699       43.748       13.984      336.763        8.285      869.850
01/05/2014  14:56:00        9.107       26.064       59.354       28.875       39.713       34.538      833.775     1577.154     1192.903        0.394        0.180       27.610       28.197        1.043      336.739        8.243      869.852
01/05/2014  14:57:00      -64.218      -38.998       12.593       59.219       51.446       36.575     3506.853     2646.692     1337.759        0.665        0.375       75.132       38.407        0.261      336.670        8.128      869.840
01/05/2014  14:58:00      -18.772      -24.748        8.483       44.618       25.695       22.913     1990.739      660.227      525.024        0.211        0.159       31.062       14.005        0.203      336.696        8.172      869.833
01/05/2014  14:59:00       47.803      -49.294        8.054       55.292       52.304       39.143     3057.198     2735.668     1532.192        0.605        0.366       68.666       38.096        0.308      336.541        7.912      869.820
01/05/2014  15:00:00      -31.162      -41.920      -12.714       37.044       26.145       22.044     1372.291      683.559      485.926        0.272        0.127       52.234       17.196        0.108      336.631        8.062      869.800
01/05/2014  15:01:00      119.900     -144.028      -16.043      114.083       77.847       42.206    13014.866     6060.127     1781.333        2.811        1.043      187.403       41.081        0.048      336.607        8.021      869.790
01/05/2014  15:02:00      -12.873      -38.139       -2.316       46.814       46.182       34.932     2191.537     2132.756     1220.259        0.358        0.277       40.253       31.984        0.631      336.762        8.282      869.787
01/05/2014  15:03:00       13.911      -32.994       39.896       35.356       57.537       35.012     1250.073     3310.550     1225.823        0.433        0.289       35.807       31.091        0.754      336.824        8.386      869.795
01/05/2014  15:04:00       16.426      -69.595       -1.457       54.531       43.613       36.080     2973.589     1902.052     1301.741        0.565        0.309       71.507       25.804        0.130      336.812        8.365      869.805
01/05/2014  15:05:00        7.606      -66.270      -22.501       39.995       41.339       27.338     1599.563     1708.950      747.357        0.451        0.203       66.705       16.680        0.063      336.958        8.609      869.797
01/05/2014  15:06:00       16.118      -64.755        4.995       60.524       45.431       23.430     3663.103     2063.968      548.977        0.538        0.314       66.731       23.045        0.119      336.861        8.447      869.794
01/05/2014  15:07:00      -28.310      -20.756       10.707       45.605       43.713       23.156     2079.839     1910.790      536.222        0.294        0.226       35.104       19.723        0.316      336.855        8.438      869.790
01/05/2014  15:08:00       -9.323      -34.901        9.420       26.097       53.113       18.808      681.060     2820.971      353.724        0.262        0.193       36.125       17.191        0.226      336.865        8.454      869.792
01/05/2014  15:09:00       70.499      -38.356       26.694       77.167      125.318       51.355     5954.801    15704.493     2637.324        1.572        1.215       80.258       74.586        0.864      336.504        7.848      869.795
01/05/2014  15:10:00       14.055      -49.188        3.257       29.143       61.143       21.841      849.333     3738.519      477.019        0.385        0.253       51.157       28.293        0.306      336.656        8.105      869.792
01/05/2014  15:11:00       -8.287      -20.509       46.751       24.056       70.760       27.099      578.707     5006.956      734.365        0.450        0.316       22.120       22.583        1.042      336.820        8.378      869.770
01/05/2014  15:12:00       -8.946       28.947       60.425       18.650       39.782       31.826      347.835     1582.610     1012.889        0.376        0.147       30.298       32.309        1.137      336.804        8.353      869.759
01/05/2014  15:13:00       12.359      -28.703        2.367       21.062       23.603       19.368      443.618      557.096      375.123        0.118        0.069       31.251       15.806        0.256      336.859        8.443      869.761
01/05/2014  15:14:00       -7.594      -14.463       21.634       29.127       42.007       28.592      848.353     1764.563      817.515        0.208        0.172       16.335       27.538        2.842      336.969        8.628      869.754
01/05/2014  15:15:00      -17.737       -5.270       12.890       30.905       30.941       15.877      955.120      957.319      252.090        0.134        0.108       18.504       14.185        0.588      336.933        8.567      869.747
01/05/2014  15:16:00       -1.573       11.044       54.536       21.913       38.840       17.049      480.170     1508.512      290.685        0.269        0.114       11.155       15.733        1.989      337.040        8.745      869.741
01/05/2014  15:17:00       92.733      -58.282       27.317       79.109       95.633       56.630     6258.201     9145.644     3206.960        1.567        0.931      109.527       62.342        0.324      336.767        8.288      869.731
01/05/2014  15:18:00       74.036     -105.513       10.462       52.206       62.633       56.418     2725.485     3922.906     3182.946        1.328        0.492      128.897       46.348        0.129      336.650        8.092      869.732
01/05/2014  15:19:00       85.831      -29.568       29.100       73.082      118.856       67.194     5340.911    14126.634     4514.988        1.653        1.199       90.781       87.494        0.929      336.556        7.936      869.730
01/05/2014  15:20:00       90.491       79.308      100.827       58.168       73.511       43.919     3383.572     5403.881     1928.889        1.768        0.536      120.326       43.098        0.128      336.576        7.970      869.725
01/05/2014  15:21:00      -24.297      -45.752       30.505       38.845       65.429       42.158     1508.959     4280.937     1777.323        0.559        0.378       51.804       34.687        0.448      336.766        8.289      869.729
01/05/2014  15:22:00       44.676      -94.565        7.061       61.508       55.337       35.612     3783.221     3062.136     1268.219        0.955        0.406      104.588       37.405        0.128      336.734        8.235      869.744
01/05/2014  15:23:00       58.372      -63.153       32.745       67.013      114.581       72.902     4490.772    13128.881     5314.714        1.570        1.147       85.998       82.980        0.931      336.719        8.209      869.737
01/05/2014  15:24:00       57.569        9.489       69.353       59.619       55.046       45.926     3554.417     3030.109     2109.183        0.845        0.435       58.346       29.165        0.250      336.690        8.163      869.737
01/05/2014  15:25:00       79.531      -39.522       25.582       61.920       77.735       49.786     3834.091     6042.697     2478.597        1.045        0.618       88.810       55.859        0.396      336.581        7.980      869.738
01/05/2014  15:26:00       65.077      -49.333       41.624       60.695       95.555       63.498     3683.852     9130.802     4031.997        1.262        0.842       81.662       62.528        0.586      336.579        7.975      869.733
01/05/2014  15:27:00       98.587      -61.578        4.569       61.374       83.188       55.054     3766.717     6920.257     3030.975        1.362        0.686      116.238       59.175        0.259      336.435        7.734      869.737
01/05/2014  15:28:00      104.237      -49.617       30.604       78.448      139.322       61.437     6154.091    19410.488     3774.446        2.180        1.467      115.444       89.354        0.599      336.508        7.856      869.741
01/05/2014  15:29:00      135.650      -86.285        4.918       69.978       90.162       54.006     4896.979     8129.141     2916.595        2.090        0.797      160.767       56.441        0.123      336.522        7.878      869.724
01/05/2014  15:30:00       85.830      -32.310       36.328       76.912       70.160       51.537     5915.406     4922.402     2656.041        1.161        0.675       91.710       57.813        0.397      336.544        7.916      869.731
01/05/2014  15:31:00      126.503      -58.692       22.189       74.247      102.809       53.916     5512.604    10569.732     2906.887        1.946        0.949      139.455       64.323        0.213      336.519        7.872      869.719
01/05/2014  15:32:00       48.519      -17.984       44.529       65.406      118.833       64.279     4277.969    14121.243     4131.807        1.359        1.127       51.745       80.626        2.428      336.592        7.997      869.727
01/05/2014  15:33:00       79.282       39.569       68.010       56.170      104.719       56.534     3155.041    10966.104     3196.121        1.489        0.866       88.607       61.844        0.487      336.540        7.910      869.734
01/05/2014  15:34:00       35.501       -7.173       47.406       46.583       48.524       48.128     2169.991     2354.533     2316.323        0.520        0.342       36.219       40.810        1.270      336.690        8.162      869.758
01/05/2014  15:35:00       89.389     -125.691        2.068       90.657      112.202       49.121     8218.722    12589.388     2412.872        2.350        1.161      154.235       69.368        0.202      336.560        7.940      869.766
01/05/2014  15:36:00       65.290      -85.674       31.867       72.219      121.885       55.679     5215.565    14855.899     3100.139        1.789        1.159      107.716       75.382        0.490      336.472        7.795      869.773
01/05/2014  15:37:00       52.538       25.260       48.676       56.723       39.430       34.372     3217.484     1554.700     1181.435        0.586        0.298       58.295       30.065        0.266      336.547        7.922      869.780
01/05/2014  15:38:00        7.839        8.516       36.319       36.749       52.917       27.658     1350.488     2800.185      764.979        0.318        0.246       11.575       23.833        4.240      336.635        8.071      869.791
01/05/2014  15:39:00       56.863      -31.127       44.004       73.694      121.128       66.156     5430.816    14672.080     4376.678        1.530        1.224       64.825       88.629        1.869      336.617        8.039      869.810
01/05/2014  15:40:00       66.570      -87.862        1.373       53.243       68.338       29.564     2834.778     4670.107      874.051        1.026        0.419      110.233       24.068        0.048      336.609        8.026      869.820
01/05/2014  15:41:00       35.630      -44.690       12.696       34.442       53.765       31.423     1186.250     2890.724      987.387        0.425        0.253       57.155       28.649        0.251      336.645        8.087      869.826
01/05/2014  15:42:00       22.580        9.175       37.300       30.813       24.143       30.936      949.414      582.885      957.009        0.224        0.124       24.373       12.466        0.262      336.679        8.143      869.831
01/05/2014  15:43:00       12.857       38.302       64.512       34.574       42.012       28.210     1195.376     1764.990      795.784        0.477        0.188       40.403       25.621        0.402      336.711        8.194      869.856
01/05/2014  15:44:00       62.753       79.817       70.916       57.147       48.077       52.815     3265.747     2311.423     2789.407        1.185        0.418      101.532       41.877        0.170      336.479        7.807      869.859
01/05/2014  15:45:00      101.113       58.256       31.894       69.871       55.354       52.915     4881.938     3064.026     2799.944        1.269        0.537      116.694       33.258        0.081      336.401        7.676      869.857
01/05/2014  15:46:00       83.617       52.267       44.898       64.418       54.847       39.774     4149.721     3008.146     1581.939        1.024        0.437       98.609       34.250        0.121      336.415        7.701      869.853
01/05/2014  15:47:00       32.488       14.391       35.150       37.385       61.133       31.547     1397.612     3737.211      995.219        0.431        0.307       35.532       35.756        1.013      336.455        7.770      869.861
01/05/2014  15:48:00      109.580       70.990       56.860       78.382       65.632       48.470     6143.718     4307.624     2349.323        1.654        0.640      130.566       31.851        0.060      336.313        7.528      869.864
01/05/2014  15:49:00      173.151      114.044       42.830       71.149       40.000       47.369     5062.225     1599.980     2243.801        2.686        0.445      207.333       34.784        0.028      336.295        7.498      869.857
01/05/2014  15:50:00       26.285       -2.022       39.247       47.431       53.387       38.095     2249.708     2850.187     1451.255        0.439        0.328       26.362       39.606        2.257      336.490        7.828      869.860
01/05/2014  15:51:00       73.051       -6.063       44.085       82.850       89.591       57.444     6864.146     8026.488     3299.762        1.275        0.910       73.302       70.455        0.924      336.388        7.655      869.855
01/05/2014  15:52:00       83.694      -52.387       24.886       66.784       98.927       55.695     4460.165     9786.537     3101.970        1.386        0.867       98.738       68.841        0.486      336.411        7.694      869.850
01/05/2014  15:53:00       63.359      -70.345       16.336       48.508       92.582       44.676     2352.991     8571.363     1995.948        1.107        0.646       94.672       57.240        0.366      336.372        7.629      869.847
01/05/2014  15:54:00       54.164      -41.780       22.887       41.814       64.462       27.271     1748.421     4155.292      743.732        0.592        0.332       68.406       35.861        0.275      336.441        7.745      869.831
01/05/2014  15:55:00       92.701       63.273       59.470       75.087       94.702       55.764     5638.107     8968.517     3109.649        1.692        0.886      112.236       54.228        0.233      336.371        7.627      869.826
01/05/2014  15:56:00      128.210     -102.131        7.365       57.611       73.160       39.455     3319.034     5352.323     1556.704        1.857        0.511      163.916       41.577        0.064      336.379        7.639      869.833
01/05/2014  15:57:00       54.791      -21.327       27.849       64.020       52.575       40.405     4098.532     2764.150     1632.527        0.636        0.425       58.796       33.676        0.328      336.456        7.770      869.825
01/05/2014  15:58:00       47.214       18.375       72.623       58.192       81.343       46.856     3386.353     6616.760     2195.450        1.002        0.610       50.664       52.398        1.070      336.353        7.598      869.825
01/05/2014  15:59:00       65.548       50.107       74.906       53.978       60.550       32.625     2913.593     3666.274     1064.388        1.003        0.382       82.506       34.629        0.176      336.393        7.663      869.827
01/05/2014  16:00:00       82.964       52.376       56.457       90.613       50.222       44.944     8210.748     2522.212     2019.986        1.278        0.638       98.114       40.269        0.168      336.386        7.650      869.829
01/05/2014  16:01:00       96.530       48.542       56.492       64.811       35.755       44.852     4200.500     1278.434     2011.687        1.118        0.375      108.048       28.327        0.069      336.315        7.534      869.820
01/05/2014  16:02:00       97.549       27.736       59.383       55.008       48.852       48.729     3025.871     2386.524     2374.562        1.080        0.389      101.415       44.292        0.191      336.336        7.570      869.819
01/05/2014  16:03:00      101.053       76.321       66.814       69.398       55.180       53.029     4816.022     3044.852     2812.110        1.558        0.534      126.636       46.674        0.136      336.280        7.475      869.823
01/05/2014  16:04:00       56.480       76.003       87.632       77.509       67.925       61.116     6007.605     4613.782     3735.136        1.550        0.718       94.691       60.724        0.411      336.297        7.503      869.818
01/05/2014  16:05:00       99.482       90.096       94.754       71.973       68.962       49.138     5180.175     4755.704     2414.508        1.967        0.618      134.216       51.710        0.148      336.242        7.411      869.819
01/05/2014  16:06:00      123.763       80.747       87.840       54.139       57.477       43.023     2931.032     3303.634     1850.984        1.882        0.404      147.774       24.367        0.027      336.204        7.348      869.826
01/05/2014  16:07:00      111.329       76.551       45.458       68.943       64.211       56.657     4753.113     4123.029     3210.057        1.620        0.604      135.108       48.643        0.130      336.192        7.329      869.823
01/05/2014  16:08:00      101.474       89.996       62.378       55.251       43.880       45.979     3052.709     1925.440     2114.045        1.469        0.355      135.633       32.114        0.056      336.218        7.372      869.818
01/05/2014  16:09:00       50.925       44.084       44.552       44.875       34.810       33.898     2013.794     1211.768     1149.099        0.545        0.219       67.355       20.132        0.089      336.254        7.432      869.828
01/05/2014  16:10:00      118.297       55.823       27.451       51.834       32.046       32.549     2686.727     1026.974     1059.434        1.132        0.239      130.807       18.983        0.021      336.251        7.426      869.821
01/05/2014  16:11:00      113.941       39.646       53.681       75.861       55.741       48.893     5754.873     3107.069     2390.484        1.434        0.563      120.642       40.505        0.113      336.221        7.379      869.816
01/05/2014  16:12:00       77.448       70.384       86.029       67.938       48.975       42.266     4615.521     2398.588     1786.441        1.358        0.440      104.652       43.008        0.169      336.230        7.392      869.821
01/05/2014  16:13:00       85.808       81.013       84.152       59.585       57.291       39.740     3550.319     3282.215     1579.240        1.471        0.421      118.009       39.684        0.113      336.219        7.373      869.816
01/05/2014  16:14:00       68.297      101.613       86.888       57.138       39.504       36.529     3264.759     1560.540     1334.399        1.435        0.308      122.432       33.654        0.076      336.223        7.379      869.828
01/05/2014  16:15:00      123.545      101.493       78.499       49.337       39.174       44.129     2434.156     1534.624     1947.402        1.882        0.296      159.888       31.602        0.039      336.157        7.269      869.822
01/05/2014  16:16:00       52.783       89.300       85.542       61.726       52.155       45.403     3810.111     2720.137     2061.437        1.333        0.430      103.733       44.926        0.188      336.171        7.293      869.813
01/05/2014  16:17:00       68.864       74.756       78.718       64.905       61.845       49.054     4212.693     3824.808     2406.247        1.348        0.522      101.640       31.364        0.095      336.115        7.200      869.815
01/05/2014  16:18:00      107.711       50.576       45.665       78.853       66.640       57.806     6217.869     4440.864     3341.479        1.512        0.700      118.994       39.227        0.109      336.052        7.093      869.807
01/05/2014  16:19:00      107.655       98.210       83.378       57.679       48.947       47.154     3326.850     2395.790     2223.547        1.806        0.397      145.722       33.812        0.054      336.030        7.058      869.817
01/05/2014  16:20:00       99.936       62.940       46.352       65.536       51.013       51.089     4295.005     2602.276     2610.088        1.280        0.475      118.104       43.200        0.134      336.030        7.058      869.811
01/05/2014  16:21:00       89.063       68.416       85.235       64.100       47.812       42.906     4108.834     2285.972     1840.960        1.406        0.412      112.307       32.375        0.083      336.039        7.071      869.822
01/05/2014  16:22:00       88.785       88.840       50.708       64.266       54.804       61.349     4130.113     3003.461     3763.695        1.462        0.545      125.600       42.654        0.115      336.006        7.019      869.830
01/05/2014  16:23:00      119.052       89.323       63.975       69.263       54.344       54.865     4797.345     2953.274     3010.131        1.850        0.538      148.835       42.179        0.080      336.034        7.064      869.829
01/05/2014  16:24:00      104.273       75.061       70.103       62.165       51.768       43.491     3864.539     2679.902     1891.486        1.493        0.422      128.480       27.418        0.046      336.008        7.021      869.840
01/05/2014  16:25:00       79.141       48.881       56.099       47.899       44.533       40.356     2294.286     1983.196     1628.604        0.885        0.295       93.019       32.440        0.122      335.988        6.987      869.837
01/05/2014  16:26:00       90.830       21.991       50.301       68.007       53.329       44.275     4624.925     2843.966     1960.250        1.034        0.471       93.455       36.643        0.154      335.951        6.925      869.828
01/05/2014  16:27:00      131.569       67.162       44.506       71.415       65.289       48.017     5100.053     4262.701     2305.625        1.773        0.583      147.719       39.387        0.071      335.950        6.924      869.812
01/05/2014  16:28:00      101.378       24.818       37.703       63.808       42.879       44.892     4071.503     1838.616     2015.281        1.012        0.396      104.371       37.222        0.127      335.906        6.851      869.812
01/05/2014  16:29:00      111.000       48.824       39.183       56.156       47.265       35.310     3153.538     2233.950     1246.780        1.144        0.332      121.264       23.933        0.039      335.881        6.810      869.801
01/05/2014  16:30:00       89.457       71.035       77.266       53.051       51.129       39.504     2814.412     2614.171     1560.556        1.300        0.349      114.230       29.853        0.068      335.880        6.809      869.796
01/05/2014  16:31:00       99.116       44.374       58.535       39.147       35.678       38.690     1532.509     1272.950     1496.886        0.976        0.215      108.595       21.882        0.041      335.852        6.761      869.795
01/05/2014  16:32:00       89.449       66.641       59.012       45.534       41.804       30.113     2073.319     1747.563      906.775        1.033        0.236      111.544       23.117        0.043      335.865        6.783      869.791
01/05/2014  16:33:00       81.260       61.962       69.163       57.527       43.927       37.293     3309.340     1929.541     1390.794        1.093        0.331      102.188       23.182        0.051      335.854        6.764      869.791
01/05/2014  16:34:00       74.568       60.325       60.268       58.617       38.633       31.091     3435.941     1492.482      966.628        0.936        0.295       95.914       30.013        0.098      335.845        6.749      869.796
01/05/2014  16:35:00      140.289       51.561       45.926       78.110       57.025       46.621     6101.193     3251.839     2173.486        1.799        0.576      149.464       44.199        0.087      335.860        6.773      869.797
01/05/2014  16:36:00       87.055       50.252       45.465       59.796       40.617       34.436     3575.585     1649.762     1185.858        0.929        0.321      100.518       24.323        0.059      335.802        6.678      869.805
01/05/2014  16:37:00       92.482       49.762       50.298       43.796       40.338       35.090     1918.051     1627.114     1231.332        0.917        0.239      105.020       26.902        0.066      335.757        6.602      869.811
01/05/2014  16:38:00      125.698       66.570       23.450       47.025       38.663       28.292     2211.335     1494.833      800.459        1.264        0.225      142.238       18.422        0.017      335.727        6.554      869.818
01/05/2014  16:39:00      116.765       63.776       33.872       42.156       28.987       30.083     1777.117      840.234      904.972        1.118        0.176      133.047       23.857        0.032      335.667        6.453      869.826
01/05/2014  16:40:00      137.530       68.491       26.096       51.156       40.363       34.896     2616.921     1629.154     1217.751        1.487        0.273      153.641       18.331        0.014      335.702        6.511      869.835
01/05/2014  16:41:00      151.488       75.726       44.196       37.494       37.872       26.869     1405.774     1434.310      721.950        1.710        0.178      169.361       16.415        0.009      335.652        6.427      869.838
01/05/2014  16:42:00       94.017       40.299       24.022       48.732       40.549       37.859     2374.791     1644.229     1433.270        0.825        0.273      102.290       26.727        0.068      335.566        6.284      869.841
01/05/2014  16:43:00      144.849       74.091       21.948       45.791       36.383       28.472     2096.770     1323.724      810.652        1.559        0.212      162.699       20.039        0.015      335.595        6.333      869.850
01/05/2014  16:44:00      127.170       73.015       23.540       41.653       33.782       31.126     1735.002     1141.223      968.848        1.295        0.192      146.640       26.631        0.033      335.561        6.276      869.857
01/05/2014  16:45:00       89.851       52.558       25.534       60.693       50.523       33.553     3683.665     2552.579     1125.775        0.942        0.368      104.094       35.173        0.114      335.569        6.291      869.852
01/05/2014  16:46:00      133.329       69.020       31.870       54.278       38.671       40.482     2946.140     1495.417     1638.797        1.482        0.304      150.135       12.526        0.007      335.546        6.250      869.855
01/05/2014  16:47:00       88.723       62.522       23.710       37.490       33.327       27.196     1405.530     1110.683      739.636        0.780        0.163      108.539       20.726        0.036      335.459        6.106      869.865
01/05/2014  16:48:00      121.789       72.406       23.922       61.651       44.997       34.296     3800.794     2024.774     1176.195        1.382        0.350      141.687       13.508        0.009      335.387        5.986      869.872
01/05/2014  16:49:00      165.196      111.298       37.069       72.563       48.333       35.236     5265.443     2336.064     1241.550        2.495        0.442      199.191       32.854        0.027      335.428        6.053      869.878
01/05/2014  16:50:00      165.892      115.910        9.101       51.159       38.495       32.007     2617.220     1481.869     1024.423        2.308        0.256      202.374        8.932        0.002      335.398        6.004      869.889
01/05/2014  16:51:00      114.118       78.835       11.263       43.485       40.864       25.018     1890.988     1669.897      625.917        1.177        0.209      138.701       13.455        0.009      335.266        5.783      869.899
01/05/2014  16:52:00      122.614       67.842       15.741       43.440       46.289       31.156     1887.042     2142.694      970.702        1.244        0.250      140.131       21.604        0.024      335.275        5.798      869.909
01/05/2014  16:53:00      116.794       81.338       14.104       53.044       25.825       30.506     2813.700      666.914      930.610        1.243        0.221      142.326       20.216        0.020      335.207        5.687      869.911
01/05/2014  16:54:00       84.974       51.100        8.050       53.174       37.322       21.390     2827.458     1392.932      457.514        0.729        0.234       99.155       10.998        0.012      335.147        5.588      869.917
01/05/2014  16:55:00       64.803       50.208       18.079       44.162       34.058       27.117     1950.306     1159.947      735.311        0.545        0.192       81.977       17.133        0.044      335.101        5.512      869.926
01/05/2014  16:56:00       98.858       70.431       22.336       64.735       45.963       31.484     4190.599     2112.567      991.273        1.126        0.365      121.381       14.442        0.014      335.114        5.533      869.927
01/05/2014  16:57:00      105.404       76.478       19.660       58.918       36.107       33.024     3471.327     1303.710     1090.557        1.160        0.293      130.226       26.825        0.042      335.084        5.484      869.932
01/05/2014  16:58:00       72.101       83.517        6.285       49.306       38.580       40.000     2431.048     1488.416     1600.038        0.887        0.276      110.334       29.004        0.069      335.049        5.425      869.935
01/05/2014  16:59:00       95.612       68.375       21.685       53.148       31.621       28.452     2824.714      999.860      809.536        0.946        0.232      117.545       17.686        0.023      335.015        5.369      869.930
01/05/2014  17:00:00      102.154       71.790       14.347       41.113       32.677       32.933     1690.314     1067.804     1084.555        0.982        0.192      124.857       14.998        0.014      334.947        5.257      869.935
01/05/2014  17:01:00       91.722       65.261       19.136       57.990       38.696       37.596     3362.832     1497.406     1413.453        0.965        0.314      112.570       24.256        0.046      334.935        5.236      869.929
01/05/2014  17:02:00      109.150       76.943       13.130       59.035       37.797       39.463     3485.156     1428.591     1557.331        1.224        0.324      133.544       24.596        0.034      334.952        5.264      869.928
01/05/2014  17:03:00      123.262       81.042       19.722       62.196       44.753       39.209     3868.326     2002.812     1537.308        1.478        0.370      147.517       22.163        0.023      334.943        5.249      869.927
01/05/2014  17:04:00      120.613       82.636       19.073       42.228       44.703       50.096     1783.188     1998.403     2509.649        1.401        0.315      146.206       32.905        0.051      334.913        5.198      869.941
01/05/2014  17:05:00       99.238       71.901       12.486       58.064       37.456       31.789     3371.485     1402.928     1010.522        1.048        0.289      122.548       20.645        0.028      334.841        5.080      869.947
01/05/2014  17:06:00       98.572       82.269        1.914       54.671       35.005       33.938     2988.962     1225.376     1151.797        1.093        0.268      128.392       24.117        0.035      334.846        5.088      869.954
01/05/2014  17:07:00       79.903       70.990       20.580       48.810       48.813       40.586     2382.378     2382.731     1647.193        0.913        0.321      106.884       26.006        0.059      334.795        5.003      869.960
01/05/2014  17:08:00      104.669       77.951       11.879       61.615       42.960       41.609     3796.440     1845.545     1731.290        1.227        0.369      130.506       30.008        0.053      334.825        5.052      869.965
01/05/2014  17:09:00       71.165       60.631        4.823       39.544       30.376       28.083     1563.691      922.708      788.677        0.602        0.164       93.491       15.083        0.026      334.723        4.885      869.964
01/05/2014  17:10:00       53.466       61.257       11.241       51.325       40.313       36.795     2634.245     1625.164     1353.847        0.617        0.281       81.308       29.256        0.129      334.691        4.831      869.980
01/05/2014  17:11:00       66.167       69.850        8.288       56.408       45.724       39.528     3181.852     2090.653     1562.483        0.808        0.342       96.214       30.498        0.100      334.684        4.819      869.988
01/05/2014  17:12:00      105.463       64.737        4.176       45.974       33.264       26.823     2113.586     1106.505      719.460        0.963        0.197      123.747       23.031        0.035      334.667        4.790      869.997
01/05/2014  17:13:00       73.398       90.466       -1.385       58.961       43.869       35.483     3476.456     1924.477     1259.079        1.012        0.333      116.496       27.733        0.057      334.629        4.727      869.996
01/05/2014  17:14:00       56.981       54.898        4.341       54.722       46.932       37.641     2994.445     2202.604     1416.840        0.645        0.331       79.124       28.563        0.130      334.607        4.690      870.001
01/05/2014  17:15:00       33.239       81.631       -7.293       44.872       51.182       36.490     2013.505     2619.625     1331.555        0.689        0.298       88.139       30.677        0.121      334.591        4.663      870.003
01/05/2014  17:16:00       37.962       64.728       -1.329       27.139       46.102       26.834      736.540     2125.349      720.049        0.461        0.179       75.039       24.804        0.109      334.549        4.595      870.013
01/05/2014  17:17:00       17.619       47.993        4.898       37.945       37.381       29.163     1439.829     1397.352      850.506        0.316        0.184       51.125       27.267        0.284      334.478        4.478      870.032
01/05/2014  17:18:00       54.977       54.843        6.406       50.953       53.660       46.095     2596.167     2879.342     2124.777        0.683        0.380       77.655       37.158        0.229      334.543        4.584      870.036
01/05/2014  17:19:00       34.089       97.229      -10.259       32.327       51.243       26.760     1045.013     2625.822      716.094        0.755        0.219      103.032       30.181        0.086      334.532        4.566      870.052
01/05/2014  17:20:00       36.097       79.541       -8.438       30.164       35.224       22.502      909.848     1240.712      506.355        0.518        0.133       87.348       21.477        0.060      334.511        4.532      870.066
01/05/2014  17:21:00        7.352       97.510      -13.414       34.644       39.806       22.074     1200.217     1584.533      487.247        0.651        0.164       97.787       22.425        0.053      334.498        4.511      870.082
01/05/2014  17:22:00       43.317       81.309       -4.048       39.349       30.896       21.817     1548.338      954.569      475.973        0.574        0.149       92.128       18.098        0.039      334.481        4.481      870.099
01/05/2014  17:23:00       26.269       85.105       -8.140       25.971       31.003       21.876      674.507      961.207      478.566        0.506        0.106       89.067       23.013        0.067      334.472        4.469      870.111
01/05/2014  17:24:00       19.797      107.852      -17.842       24.182       33.128       19.575      584.792     1097.486      383.179        0.720        0.103      109.653       18.719        0.029      334.428        4.396      870.124
01/05/2014  17:25:00        6.845      111.755       -5.841       23.774       25.962       20.770      565.214      674.023      431.377        0.712        0.084      111.965       13.428        0.014      334.468        4.460      870.140
01/05/2014  17:26:00       25.096      126.244      -17.468       46.522       48.030       24.872     2164.320     2306.902      618.609        1.098        0.254      128.715       25.039        0.038      334.507        4.523      870.152
01/05/2014  17:27:00       36.521      147.818      -22.788       32.450       46.021       22.666     1053.003     2117.935      513.745        1.369        0.184      152.263       18.783        0.015      334.464        4.452      870.173
01/05/2014  17:28:00       26.313       96.379      -12.311       26.991       26.091       19.312      728.529      680.724      372.958        0.596        0.089       99.906       17.043        0.029      334.399        4.347      870.198
01/05/2014  17:29:00       13.129      103.178       -9.449       25.283       21.303       16.122      639.229      453.800      259.917        0.613        0.068      104.010       10.259        0.010      334.427        4.393      870.219
01/05/2014  17:30:00       16.469      100.651       -7.130       16.684       24.965       18.966      278.351      623.251      359.714        0.586        0.063      101.989       14.453        0.020      334.398        4.344      870.232
01/05/2014  17:31:00       18.514       92.579       -7.829       20.961       33.763       20.405      439.368     1139.930      416.363        0.548        0.100       94.412       21.049        0.050      334.392        4.335      870.248
01/05/2014  17:32:00       27.957      141.807      -16.315       21.858       33.138       15.644      477.756     1098.130      244.733        1.149        0.091      144.537       11.971        0.007      334.410        4.363      870.269
01/05/2014  17:33:00       26.617      136.103      -18.941       24.292       25.886       20.029      590.090      670.079      401.156        1.063        0.083      138.681       17.013        0.015      334.349        4.264      870.285
01/05/2014  17:34:00       25.936      100.254       -9.043       34.583       47.179       25.095     1195.981     2225.854      629.773        0.743        0.203      103.555       20.776        0.040      334.285        4.157      870.294
01/05/2014  17:35:00       17.946      105.186      -15.469       23.758       21.675       15.805      564.421      469.819      249.812        0.645        0.064      106.706       10.207        0.009      334.301        4.185      870.303
01/05/2014  17:36:00       25.157      123.961      -22.013       23.487       19.650       12.052      551.622      386.131      145.257        0.878        0.054      126.488       10.574        0.007      334.324        4.221      870.324
01/05/2014  17:37:00       16.450      134.810      -21.435       27.356       23.493       20.128      748.367      551.905      405.145        1.030        0.085      135.810       16.123        0.014      334.278        4.145      870.337
01/05/2014  17:38:00       35.097      138.408      -20.037       33.563       28.651       21.321     1126.447      820.879      454.575        1.160        0.120      142.789       17.003        0.014      334.273        4.136      870.350
01/05/2014  17:39:00       15.441      127.194      -13.013       28.394       31.335       23.492      806.217      981.853      551.868        0.946        0.117      128.128       16.917        0.017      334.255        4.107      870.366
01/05/2014  17:40:00       23.812      121.057      -12.873       23.708       23.946       22.121      562.085      573.413      489.346        0.851        0.081      123.376       14.417        0.014      334.262        4.119      870.373
01/05/2014  17:41:00       21.026      139.496      -22.075       18.205       16.280        9.826      331.421      265.044       96.556        1.054        0.035      141.071        8.331        0.003      334.289        4.165      870.392
01/05/2014  17:42:00       15.940      130.317      -24.643       17.567       15.977        9.736      308.595      255.275       94.792        0.925        0.033      131.288        8.774        0.004      334.228        4.062      870.399
01/05/2014  17:43:00        8.583      136.783      -20.744       14.240       17.009        9.136      202.770      289.298       83.467        0.989        0.029      137.052        7.884        0.003      334.248        4.098      870.395
01/05/2014  17:44:00        1.359      143.243      -22.595       16.049       20.368        8.610      257.571      414.835       74.124        1.089        0.037      143.250        4.853        0.001      334.226        4.059      870.404
01/05/2014  17:45:00       18.885      154.721      -24.623       26.585       20.649       14.109      706.776      426.401      199.057        1.312        0.067      155.869       11.142        0.005      334.233        4.070      870.405
01/05/2014  17:46:00       35.391      145.017      -18.544       26.688       31.478       21.218      712.251      990.881      450.196        1.239        0.108      149.273       15.452        0.011      334.153        3.936      870.414
01/05/2014  17:47:00       22.141      145.143      -16.882       24.736       30.471       29.201      611.854      928.459      852.692        1.212        0.120      146.822       19.735        0.018      334.116        3.876      870.419
01/05/2014  17:48:00       10.341      143.493      -19.966       18.801       28.120       20.214      353.468      790.739      408.613        1.132        0.078      143.865       17.459        0.015      334.095        3.841      870.415
01/05/2014  17:49:00        3.338      146.880      -20.085       19.372       21.384       17.274      375.293      457.285      298.381        1.156        0.057      146.918       10.511        0.005      334.082        3.820      870.424
01/05/2014  17:50:00        4.611      169.800      -19.519       21.265       30.487       21.122      452.180      929.466      446.124        1.553        0.091      169.862       16.353        0.009      334.082        3.820      870.427
01/05/2014  17:51:00       24.572      162.231      -27.620       24.229       24.146       12.667      587.041      583.036      160.447        1.451        0.067      164.081       10.010        0.004      334.023        3.721      870.436
01/05/2014  17:52:00       28.304      148.680      -24.547       21.697       30.125       18.983      470.755      907.511      360.373        1.262        0.087      151.350       17.262        0.013      333.968        3.630      870.456
01/05/2014  17:53:00        9.667      198.050      -30.919       22.033       34.302       14.509      485.472     1176.645      210.520        2.107        0.094      198.286        7.700        0.002      333.917        3.545      870.466
01/05/2014  17:54:00       26.606      184.801      -26.377       29.276       40.626       25.756      857.061     1650.489      663.383        1.936        0.159      186.706       25.539        0.019      333.889        3.499      870.479
01/05/2014  17:55:00       24.566      174.179      -16.211       42.615       52.696       32.181     1815.998     2776.896     1035.630        1.842        0.281      175.903       33.721        0.037      333.863        3.457      870.493
01/05/2014  17:56:00       19.738      223.961      -30.455       30.742       38.175       23.276      945.050     1457.343      541.787        2.721        0.147      224.829       16.970        0.006      333.891        3.501      870.500
01/05/2014  17:57:00       23.449      232.810      -33.467       28.981       31.632       21.519      839.912     1000.568      463.047        2.909        0.115      233.988       15.984        0.005      333.863        3.453      870.514
01/05/2014  17:58:00       23.816      233.140      -35.210       37.279       39.552       22.709     1389.761     1564.384      515.692        2.981        0.173      234.353       15.789        0.005      333.864        3.452      870.515
01/05/2014  17:59:00       24.045      173.322      -14.996       36.534       45.523       32.990     1334.699     2072.364     1088.366        1.767        0.225      174.982       26.680        0.023      333.800        3.351      870.527
01/05/2014  18:00:00       26.847      136.833       -4.611       43.017       78.829       42.340     1850.453     6214.085     1792.681        1.466        0.493      139.442       48.618        0.122      333.779        3.316      870.520
01/05/2014  18:01:00       36.212      209.665      -26.155       43.377       53.254       29.561     1881.557     2835.946      873.845        2.577        0.280      212.769       23.038        0.012      333.796        3.341      870.522
01/05/2014  18:02:00        3.899      181.280      -14.004       39.230       65.415       41.032     1538.986     4279.165     1683.657        2.029        0.375      181.322       43.723        0.058      333.755        3.275      870.510
01/05/2014  18:03:00       41.701      146.559       -5.431       48.953       82.678       46.509     2396.422     6835.571     2163.104        1.732        0.570      152.376       52.976        0.121      333.791        3.333      870.505
01/05/2014  18:04:00       42.374      153.071      -14.155       53.262       57.035       36.330     2836.816     3252.978     1319.891        1.642        0.370      158.827       32.980        0.043      333.729        3.235      870.510
01/05/2014  18:05:00       29.642      143.166      -11.240       46.651       65.798       34.574     2176.330     4329.328     1195.379        1.460        0.385      146.203       39.430        0.073      333.700        3.186      870.513
01/05/2014  18:06:00       29.198      174.568      -24.279       34.643       39.722       30.535     1200.111     1577.808      932.390        1.781        0.186      176.993       20.842        0.014      333.706        3.194      870.512
01/05/2014  18:07:00        4.832      181.520      -22.187       33.173       34.138       20.081     1100.480     1165.398      403.262        1.807        0.133      181.585       15.251        0.007      333.662        3.122      870.516
01/05/2014  18:08:00       12.257      166.664      -21.158       28.664       47.617       26.793      821.607     2267.334      717.873        1.609        0.190      167.115       28.391        0.029      333.633        3.075      870.518
01/05/2014  18:09:00       28.813      167.479      -24.633       32.938       35.619       24.347     1084.899     1268.701      592.769        1.622        0.147      169.939       18.387        0.012      333.603        3.026      870.535
01/05/2014  18:10:00       20.240      113.289      -11.235       28.709       45.570       27.512      824.187     2076.631      756.894        0.851        0.183      115.083       26.128        0.052      333.550        2.938      870.545
01/05/2014  18:11:00       10.806      147.412      -21.026       34.045       39.196       21.593     1159.073     1536.331      466.264        1.272        0.158      147.808       17.312        0.014      333.558        2.951      870.557
01/05/2014  18:12:00       21.565      160.263      -17.271       34.755       47.568       32.229     1207.935     2262.729     1038.726        1.548        0.225      161.708       29.975        0.034      333.548        2.935      870.557
01/05/2014  18:13:00        6.050      182.177      -23.933       49.519       42.094       22.183     2452.110     1771.872      492.072        1.926        0.236      182.278       19.540        0.011      333.551        2.939      870.559
01/05/2014  18:14:00       11.725      169.965      -25.840       46.615       38.980       20.115     2172.935     1519.416      404.619        1.689        0.205      170.369       13.276        0.006      333.581        2.988      870.578
01/05/2014  18:15:00        4.478      152.802      -17.259       35.787       38.783       19.823     1280.731     1504.137      392.965        1.342        0.159      152.867       20.019        0.017      333.584        2.994      870.591
01/05/2014  18:16:00       20.312      161.964      -15.563       42.844       69.913       34.154     1835.574     4887.768     1166.496        1.739        0.394      163.232       37.681        0.053      333.535        2.912      870.617
01/05/2014  18:17:00       18.049      147.243      -21.725       35.033       36.885       19.128     1227.323     1360.525      365.877        1.272        0.148      148.346       17.291        0.014      333.523        2.892      870.628
01/05/2014  18:18:00       20.671      164.129      -17.817       38.629       59.621       33.286     1492.163     3554.715     1107.962        1.692        0.308      165.426       28.794        0.030      333.549        2.935      870.641
01/05/2014  18:19:00       18.752      177.525      -27.130       44.270       44.264       25.334     1959.830     1959.333      641.826        1.858        0.228      178.513       23.061        0.017      333.539        2.920      870.650
01/05/2014  18:20:00       30.734       94.696        5.781       48.808       47.670       40.131     2382.221     2272.460     1610.488        0.810        0.313       99.558       35.393        0.126      333.510        2.872      870.659
01/05/2014  18:21:00       10.043      173.665      -20.476       27.180       23.505       15.634      738.770      552.508      244.436        1.611        0.077      173.955       12.951        0.006      333.573        2.976      870.666
01/05/2014  18:22:00       11.364      169.467      -22.768       38.248       39.457       21.831     1462.928     1556.838      476.607        1.643        0.175      169.848       16.008        0.009      333.578        2.983      870.672
01/05/2014  18:23:00       20.689      208.130      -33.143       33.432       39.147       22.751     1117.692     1532.473      517.619        2.401        0.158      209.156       17.580        0.007      333.589        3.002      870.665
01/05/2014  18:24:00       24.932      184.365      -30.826       32.657       41.336       25.603     1066.458     1708.631      655.531        1.950        0.172      186.043       21.915        0.014      333.600        3.020      870.672
01/05/2014  18:25:00       -7.629      174.584      -19.454       48.403       41.417       27.534     2342.818     1715.337      758.120        1.787        0.241      174.751       24.721        0.020      333.603        3.025      870.670
01/05/2014  18:26:00        6.369      179.444      -27.224       29.732       47.595       17.007      883.986     2265.259      289.252        1.821        0.172      179.557       16.809        0.009      333.643        3.092      870.673
01/05/2014  18:27:00       21.032      157.481      -14.754       37.804       68.073       28.588     1429.127     4633.907      817.274        1.617        0.344      158.880       31.901        0.040      333.546        2.931      870.678
01/05/2014  18:28:00       14.190      186.390      -16.235       47.676       43.810       33.564     2272.964     1919.281     1126.511        2.026        0.266      186.929       30.161        0.026      333.606        3.029      870.694
01/05/2014  18:29:00       21.977      143.003      -14.022       44.848       72.726       39.712     2011.376     5289.088     1577.064        1.500        0.444      144.682       45.148        0.097      333.537        2.916      870.697
01/05/2014  18:30:00       18.957      118.312       -5.850       32.709       34.214       30.660     1069.906     1170.617      940.034        0.879        0.159      119.821       27.294        0.052      333.557        2.949      870.701
01/05/2014  18:31:00       34.640      131.166      -23.195       39.004       39.662       18.810     1521.291     1573.076      353.831        1.119        0.172      135.663       16.635        0.015      333.534        2.913      870.713
01/05/2014  18:32:00        3.320      165.447      -23.054       34.942       30.434       15.594     1220.968      926.204      243.161        1.515        0.120      165.480       10.167        0.004      333.536        2.915      870.712
01/05/2014  18:33:00       15.383      165.495      -27.902       27.817       32.737       18.564      773.776     1071.684      344.628        1.530        0.110      166.209       14.857        0.008      333.570        2.972      870.713
01/05/2014  18:34:00       15.176      164.804      -26.192       24.973       37.182       15.496      623.670     1382.491      240.128        1.516        0.112      165.501       14.160        0.007      333.571        2.972      870.716
01/05/2014  18:35:00      -15.346      193.487      -26.323       39.013       28.757       16.849     1522.021      826.953      283.884        2.050        0.132      194.095        9.115        0.002      333.608        3.034      870.736
01/05/2014  18:36:00       -6.969      178.728      -22.911       33.943       28.461       18.963     1152.152      810.039      359.579        1.742        0.116      178.863        9.614        0.003      333.664        3.126      870.748
01/05/2014  18:37:00       12.042      156.387      -24.202       23.302       22.145       18.250      542.973      490.393      333.065        1.328        0.068      156.850       10.313        0.004      333.602        3.025      870.771
01/05/2014  18:38:00       15.658      147.290      -21.283       24.786       40.238       17.601      614.351     1619.097      309.811        1.247        0.127      148.120       15.954        0.012      333.524        2.893      870.785
01/05/2014  18:39:00        7.598      166.922      -23.668       30.521       26.659       16.542      931.526      710.679      273.647        1.520        0.096      167.095       14.009        0.007      333.515        2.880      870.793
01/05/2014  18:40:00       -9.471      156.528      -21.844       22.496       26.289       15.050      506.091      691.103      226.499        1.325        0.071      156.814        7.901        0.003      333.555        2.945      870.811
01/05/2014  18:41:00       -8.640      152.516      -17.423       34.005       28.057       17.153     1156.353      787.182      294.212        1.294        0.112      152.761        9.885        0.004      333.555        2.945      870.814
01/05/2014  18:42:00       -8.108      163.473      -19.150       51.952       45.755       25.030     2698.963     2093.522      626.505        1.629        0.271      163.674       27.177        0.028      333.487        2.832      870.831
01/05/2014  18:43:00        3.287      145.016      -13.998       33.285       30.480       20.768     1107.914      929.039      431.323        1.185        0.123      145.053        9.563        0.004      333.496        2.850      870.844
01/05/2014  18:44:00       10.046      120.607      -19.187       30.208       35.804       18.325      912.506     1281.950      335.798        0.877        0.127      121.025       18.953        0.025      333.471        2.806      870.841
01/05/2014  18:45:00        9.455      172.727      -18.814       41.782       39.399       22.160     1745.705     1552.297      491.081        1.703        0.189      172.986       18.119        0.011      333.538        2.917      870.855
01/05/2014  18:46:00        2.612      166.511      -26.349       40.888       41.400       19.978     1671.854     1713.978      399.112        1.611        0.189      166.531       25.126        0.023      333.600        3.020      870.862
01/05/2014  18:47:00       17.804      148.983      -22.860       27.000       34.507       20.613      729.024     1190.707      424.894        1.269        0.117      150.043       16.884        0.013      333.499        2.854      870.868
01/05/2014  18:48:00       25.257      170.103      -28.935       36.068       36.732       20.281     1300.881     1349.226      411.321        1.674        0.153      171.968       20.833        0.015      333.538        2.917      870.888
01/05/2014  18:49:00       32.320      162.850      -21.173       33.370       37.534       24.971     1113.527     1408.790      623.570        1.558        0.157      166.027       15.249        0.008      333.463        2.794      870.896
01/05/2014  18:50:00       15.977      148.237      -15.117       28.933       34.391       19.090      837.122     1182.729      364.430        1.242        0.119      149.096       18.098        0.015      333.432        2.742      870.897
01/05/2014  18:51:00       11.753      181.263      -25.113       25.946       34.289       19.954      673.200     1175.748      398.158        1.794        0.112      181.644       11.515        0.004      333.443        2.760      870.899
01/05/2014  18:52:00       21.596      147.702      -21.304       28.333       45.413       24.580      802.756     2062.309      604.171        1.310        0.173      149.272       24.605        0.027      333.445        2.762      870.896
01/05/2014  18:53:00       17.610      173.201      -24.599       35.070       58.914       28.485     1229.890     3470.889      811.423        1.821        0.276      174.094       29.648        0.029      333.522        2.892      870.899
01/05/2014  18:54:00       26.082      139.819      -16.354       31.767       41.399       27.040     1009.119     1713.855      731.184        1.197        0.173      142.231       24.010        0.028      333.440        2.757      870.909
01/05/2014  18:55:00       32.265      166.497      -25.495       30.467       29.175       19.528      928.261      851.196      381.336        1.579        0.108      169.595       13.696        0.007      333.489        2.836      870.910
01/05/2014  18:56:00       37.713       55.797        1.553       41.484       41.614       31.053     1720.964     1731.738      964.266        0.448        0.221       67.347       26.964        0.160      333.443        2.760      870.911
01/05/2014  18:57:00       29.865       80.278       -8.345       35.223       44.475       33.743     1240.636     1978.003     1138.560        0.588        0.218       85.653       29.443        0.118      333.422        2.726      870.926
01/05/2014  18:58:00       38.393      121.112      -15.458       31.228       42.960       22.778      975.159     1845.530      518.858        0.986        0.167      127.052       20.546        0.026      333.446        2.765      870.925
01/05/2014  18:59:00       41.529      119.442      -12.699       36.532       51.483       34.662     1334.554     2650.453     1201.456        1.067        0.259      126.456       32.584        0.066      333.427        2.734      870.926
01/05/2014  19:00:00       38.792      119.495       -8.289       39.753       51.775       30.831     1580.302     2680.609      950.521        1.053        0.261      125.634       27.007        0.046      333.407        2.702      870.937
01/05/2014  19:01:00       24.037       74.984       -1.370       36.623       51.883       31.610     1341.277     2691.806      999.176        0.562        0.252       78.742       32.185        0.167      333.378        2.654      870.940
01/05/2014  19:02:00       35.216       96.335      -10.066       29.048       40.503       27.543      843.760     1640.457      758.611        0.693        0.162      102.570       25.976        0.064      333.338        2.587      870.944
01/05/2014  19:03:00       27.556       89.498       -4.705       33.271       50.166       28.870     1106.950     2516.643      833.495        0.662        0.223       93.644       26.209        0.078      333.357        2.620      870.967
01/05/2014  19:04:00       41.849      118.392      -21.165       34.374       50.657       22.891     1181.569     2566.167      523.991        1.024        0.214      125.570       25.042        0.040      333.368        2.637      870.975
01/05/2014  19:05:00       39.836       77.475        1.058       43.062       41.445       34.277     1854.299     1717.677     1174.935        0.617        0.237       87.116       28.334        0.106      333.323        2.563      870.976
01/05/2014  19:06:00       41.945       63.829       -4.180       33.211       36.739       27.456     1102.946     1349.761      753.848        0.453        0.160       76.378       22.937        0.090      333.312        2.544      870.967
01/05/2014  19:07:00       24.206       87.404       -5.812       26.169       39.116       25.565      684.828     1530.081      653.551        0.556        0.143       90.694       20.875        0.053      333.325        2.565      870.966
01/05/2014  19:08:00       40.376      113.026      -14.305       27.693       34.305       26.411      766.922     1176.844      697.541        0.862        0.132      120.021       21.075        0.031      333.338        2.587      870.967
01/05/2014  19:09:00       38.318      133.230      -12.297       34.251       57.542       29.112     1173.156     3311.035      847.504        1.235        0.267      138.631       32.466        0.055      333.384        2.663      870.971
01/05/2014  19:10:00       33.987      124.002       -7.813       32.080       53.923       34.518     1029.150     2907.708     1191.498        1.086        0.256      128.576       29.478        0.053      333.336        2.581      870.993
01/05/2014  19:11:00       41.222      137.542      -20.795       34.912       46.710       29.286     1218.848     2181.781      857.645        1.265        0.213      143.586       28.894        0.040      333.310        2.541      871.004
01/05/2014  19:12:00       34.678       98.407        3.822       36.373       57.421       37.398     1323.000     3297.228     1398.603        0.846        0.301      104.339       39.678        0.145      333.236        2.418      871.016
01/05/2014  19:13:00       15.372      135.659       -9.959       33.202       52.755       25.759     1102.359     2783.074      663.550        1.164        0.227      136.527       19.399        0.020      333.292        2.511      871.019
01/05/2014  19:14:00       32.495       83.943       -7.090       36.049       52.790       24.194     1299.518     2786.736      585.345        0.641        0.234       90.013       24.632        0.075      333.294        2.514      871.026
01/05/2014  19:15:00       49.932       42.750       17.188       39.602       37.081       32.560     1568.348     1374.983     1060.152        0.431        0.200       65.732       24.351        0.137      333.344        2.597      871.038
01/05/2014  19:16:00       33.850       55.941        2.108       43.430       40.148       33.045     1886.129     1611.836     1091.974        0.443        0.229       65.385       19.720        0.091      333.327        2.568      871.044
01/05/2014  19:17:00       38.633       92.373      -14.251       31.525       43.232       24.330      993.840     1869.044      591.952        0.684        0.173      100.127       24.029        0.058      333.286        2.501      871.048
01/05/2014  19:18:00       30.462      100.530       -9.129       30.091       33.774       25.416      905.477     1140.681      645.974        0.690        0.135      105.043       21.584        0.042      333.252        2.444      871.055
01/05/2014  19:19:00       48.543       88.858       -8.942       24.656       47.642       28.813      607.937     2269.728      830.160        0.702        0.185      101.253       32.952        0.106      333.263        2.461      871.072
01/05/2014  19:20:00       31.226      114.424      -17.567       27.120       39.782       20.282      735.485     1582.602      411.363        0.855        0.136      118.608       20.376        0.030      333.260        2.458      871.096
01/05/2014  19:21:00       17.091       78.399       -2.667       32.782       35.814       21.506     1074.677     1282.663      462.524        0.463        0.141       80.240       18.946        0.056      333.203        2.364      871.106
01/05/2014  19:22:00       30.712      109.235      -16.449       21.023       28.354       17.091      441.953      803.922      292.114        0.734        0.077      113.470       14.243        0.016      333.216        2.385      871.106
01/05/2014  19:23:00       32.162      121.431      -16.721       29.921       31.472       18.733      895.244      990.481      350.920        0.915        0.112      125.618       14.946        0.014      333.237        2.421      871.108
01/05/2014  19:24:00       20.838      150.400      -19.980       20.993       23.377       14.233      440.696      546.479      202.567        1.232        0.059      151.837       11.557        0.006      333.286        2.500      871.129
01/05/2014  19:25:00       32.282      127.333      -15.490       21.980       28.074       17.391      483.099      788.162      302.454        0.953        0.079      131.361       11.906        0.008      333.265        2.467      871.134
01/05/2014  19:26:00       26.739       86.623      -11.913       22.209       23.614       20.097      493.241      557.631      403.891        0.491        0.073       90.656       16.007        0.031      333.203        2.363      871.139
01/05/2014  19:27:00       27.299       97.808       -9.155       29.515       31.910       21.241      871.147     1018.243      451.164        0.637        0.117      101.546       19.213        0.036      333.227        2.403      871.144
01/05/2014  19:28:00       35.249      103.511       -9.986       29.162       29.446       22.612      850.406      867.069      511.291        0.714        0.111      109.348       17.687        0.026      333.225        2.398      871.160
01/05/2014  19:29:00       37.131       99.065      -10.967       21.686       28.098       17.658      470.276      789.492      311.802        0.644        0.079      105.795       16.386        0.024      333.247        2.437      871.162
01/05/2014  19:30:00       33.565      105.694      -11.163       20.977       29.038       16.986      440.019      843.206      288.517        0.700        0.079      110.896       14.458        0.017      333.266        2.468      871.157
01/05/2014  19:31:00       40.484       59.434        0.030       26.024       35.182       24.088      677.237     1237.756      580.213        0.383        0.125       71.912       19.199        0.071      333.203        2.363      871.155
01/05/2014  19:32:00       53.874       49.108        0.414       36.219       29.189       24.320     1311.850      851.998      591.485        0.403        0.138       72.897       16.185        0.049      333.244        2.431      871.172
01/05/2014  19:33:00       50.457       31.841        9.549       19.430       19.492       10.410      377.514      379.921      108.373        0.226        0.043       59.664        3.574        0.004      333.201        2.360      871.183
01/05/2014  19:34:00       50.573       31.888        9.089       17.051       13.346       12.278      290.733      178.124      150.741        0.214        0.031       59.787        5.723        0.009      333.191        2.343      871.196
01/05/2014  19:35:00       35.886       35.216        1.334       17.090       13.115       13.807      292.081      171.997      190.640        0.159        0.033       50.279       11.419        0.052      333.170        2.309      871.201
01/05/2014  19:36:00       66.782       41.233        5.877       26.823       16.251       16.272      719.461      264.097      264.787        0.372        0.062       78.486        9.158        0.014      333.230        2.408      871.213
01/05/2014  19:37:00       35.782       36.854        4.659       24.935       18.689       16.014      621.735      349.292      256.464        0.194        0.061       51.367       12.839        0.062      333.148        2.273      871.222
01/05/2014  19:38:00       45.546       46.218        5.318       37.687       15.296       14.466     1420.283      233.959      209.278        0.305        0.093       64.888        9.415        0.021      333.232        2.412      871.222
01/05/2014  19:39:00       31.342       28.605        0.312       13.377       19.460       12.407      178.955      378.689      153.926        0.126        0.036       42.433       12.601        0.088      333.228        2.404      871.222
01/05/2014  19:40:00       17.575       45.904       -4.010       12.746       15.730       10.250      162.451      247.438      105.071        0.147        0.026       49.154        7.638        0.024      333.233        2.412      871.224
01/05/2014  19:41:00       21.570       62.292       -8.194       13.967       15.744       10.729      195.075      247.886      115.117        0.249        0.028       65.921       10.288        0.024      333.258        2.456      871.232
01/05/2014  19:42:00       15.170       69.391       -8.201       13.207       15.679        8.908      174.412      245.846       79.350        0.281        0.025       71.030        6.326        0.008      333.244        2.431      871.255
01/05/2014  19:43:00       29.268       65.916        0.098       32.080       22.945       18.459     1029.140      526.483      340.738        0.355        0.095       72.122       16.340        0.051      333.206        2.368      871.258
01/05/2014  19:44:00       22.029       98.699      -14.167       23.869       23.945       18.553      569.741      573.351      344.218        0.596        0.074      101.128       18.774        0.034      333.271        2.477      871.254
01/05/2014  19:45:00       16.741       62.602       -3.750       22.859       26.712       15.451      522.522      713.536      238.743        0.284        0.074       64.802       15.131        0.055      333.207        2.370      871.253
01/05/2014  19:46:00        4.668       95.337      -11.640       12.967       19.530        8.350      168.154      381.431       69.725        0.493        0.031       95.451        8.007        0.007      333.271        2.476      871.252
01/05/2014  19:47:00       -0.469       97.551      -13.710       10.613       18.803        9.889      112.635      353.553       97.783        0.513        0.028       97.552        8.913        0.008      333.228        2.403      871.256
01/05/2014  19:48:00      -16.033       92.719      -13.996       14.873       20.369       13.493      221.212      414.915      182.061        0.493        0.041       94.095       12.156        0.017      333.236        2.417      871.250
01/05/2014  19:49:00       -2.337       86.542       -5.179       22.206       24.504       14.569      493.126      600.422      212.267        0.441        0.065       86.573       13.545        0.024      333.225        2.398      871.250
01/05/2014  19:50:00       22.865       76.649       -5.479       17.040       21.779       16.773      290.349      474.345      281.348        0.374        0.052       79.987       11.902        0.022      333.187        2.336      871.259
01/05/2014  19:51:00        9.449       95.034      -12.166       12.268       14.400        8.293      150.497      207.365       68.776        0.485        0.021       95.502        4.092        0.002      333.131        2.245      871.257
01/05/2014  19:52:00       -2.439      116.663      -14.967       16.668       17.117        9.473      277.834      292.994       89.734        0.725        0.033      116.689        6.479        0.003      333.133        2.248      871.259
01/05/2014  19:53:00        6.950      135.287      -18.618       16.769       22.705        9.678      281.197      515.539       93.657        0.979        0.045      135.466       10.098        0.006      333.120        2.226      871.259
01/05/2014  19:54:00        9.121      127.763      -20.974       20.506       17.151        8.562      420.480      294.147       73.304        0.882        0.039      128.088        7.062        0.003      333.104        2.201      871.260
01/05/2014  19:55:00        9.158      129.168      -22.943       15.422       22.174        9.976      237.850      491.687       99.516        0.906        0.041      129.492       10.947        0.007      333.123        2.232      871.264
01/05/2014  19:56:00       -7.153      120.270      -16.564       13.617       14.681        8.677      185.421      215.527       75.296        0.763        0.024      120.483        3.964        0.001      333.145        2.269      871.263
01/05/2014  19:57:00        6.129      113.099      -16.270       19.288       17.409        9.974      372.035      303.089       99.480        0.693        0.039      113.265        7.788        0.005      333.163        2.298      871.259
01/05/2014  19:58:00        3.296      107.103      -15.396       11.527       13.142        8.109      132.867      172.722       65.757        0.605        0.019      107.154        6.389        0.004      333.140        2.260      871.273
01/05/2014  19:59:00       11.233      113.558      -15.582       25.278       15.241        8.868      639.000      232.283       78.636        0.711        0.047      114.113        6.684        0.003      333.170        2.310      871.282
01/05/2014  20:00:00        8.283       92.001      -12.406       21.584       16.648        9.817      465.872      277.156       96.381        0.476        0.042       92.373        7.750        0.007      333.140        2.260      871.283
01/05/2014  20:01:00       15.997       72.655      -13.450       20.443       20.534        9.256      417.931      421.652       85.676        0.332        0.046       74.395        7.356        0.010      333.097        2.190      871.283
01/05/2014  20:02:00       -5.423       88.284       -8.353       18.913       19.138        9.668      357.700      366.276       93.471        0.436        0.041       88.450        7.271        0.007      333.176        2.319      871.289
01/05/2014  20:03:00        0.078       85.296      -15.525       11.015       17.333        9.893      121.328      300.421       97.862        0.402        0.026       85.296        7.634        0.008      333.208        2.372      871.301
01/05/2014  20:04:00       -0.137       82.150       -9.399       19.890       15.396       10.417      395.602      237.043      108.509        0.379        0.037       82.150        7.974        0.009      333.136        2.255      871.311
01/05/2014  20:05:00      -17.228       41.371        1.879       24.333       30.010       25.457      592.099      900.577      648.045        0.208        0.107       44.815       23.790        0.282      333.002        2.033      871.322
01/05/2014  20:06:00      -67.334      -18.052        4.319       12.012       15.204       15.151      144.279      231.149      229.542        0.274        0.030       69.712       10.682        0.023      332.420        1.072      871.323
01/05/2014  20:07:00      -76.199       -8.606      -12.764       17.973       17.824       10.064      323.026      317.699      101.290        0.339        0.037       76.683        4.453        0.003      332.244        0.781      871.323
01/05/2014  20:08:00      -45.207      -16.965       -7.940       26.306       15.844       12.752      691.989      251.027      162.603        0.175        0.055       48.285       14.153        0.086      332.350        0.955      871.327
01/05/2014  20:09:00      -20.948       -1.835       -8.707       39.275       25.687       20.101     1542.550      659.832      404.064        0.156        0.130       21.028        9.295        0.195      332.579        1.333      871.329
01/05/2014  20:10:00      -34.745       -7.623       -0.563       29.966       16.778       12.132      897.961      281.512      147.188        0.130        0.066       35.572        3.464        0.009      332.665        1.475      871.323
01/05/2014  20:11:00      -39.351      -19.587       -4.915       15.073       13.160        8.279      227.182      173.188       68.542        0.121        0.023       43.956        3.847        0.008      332.358        0.969      871.321
01/05/2014  20:12:00      -14.465       -8.828       -4.766       26.036       15.468       12.975      677.853      239.269      168.352        0.070        0.054       16.946       12.849        0.575      332.561        1.305      871.338
01/05/2014  20:13:00      -11.161        4.624        4.874       20.402       18.362       11.744      416.239      337.153      137.919        0.053        0.045       12.081        5.830        0.233      332.564        1.309      871.341
01/05/2014  20:14:00      -21.311      -26.291        8.776       21.718       17.145       20.607      471.663      293.966      424.666        0.121        0.060       33.843       17.455        0.266      332.425        1.079      871.339
01/05/2014  20:15:00      -49.297      -33.756       -4.546       14.386       11.820       12.548      206.956      139.711      157.448        0.205        0.025       59.747        7.491        0.016      332.171        0.660      871.342
01/05/2014  20:16:00      -73.386      -31.815      -14.573       11.232       12.501       10.426      126.156      156.287      108.702        0.350        0.020       79.986        7.895        0.010      332.030        0.429      871.347
01/05/2014  20:17:00      -75.709      -27.692      -10.699       20.138       14.565        9.648      405.553      212.129       93.093        0.366        0.036       80.615        8.134        0.010      332.040        0.445      871.361
01/05/2014  20:18:00      -91.223      -32.420      -22.420       11.857       12.812       10.010      140.593      164.144      100.203        0.514        0.020       96.813        6.216        0.004      332.029        0.426      871.365
01/05/2014  20:19:00     -103.965      -31.700      -16.259       12.682       10.486        8.213      160.832      109.954       67.456        0.621        0.017      108.691        6.369        0.003      332.019        0.409      871.370
01/05/2014  20:20:00      -98.421      -28.320      -14.872       11.896       11.900        9.565      141.514      141.599       91.486        0.554        0.019      102.414        4.414        0.002      332.050        0.461      871.389
01/05/2014  20:21:00      -79.190      -32.168      -14.467        8.298        7.330        6.454       68.860       53.732       41.654        0.384        0.008       85.474        4.299        0.003      331.982        0.348      871.399
01/05/2014  20:22:00      -73.404      -19.031      -13.733        8.762        8.751        7.744       76.774       76.587       59.976        0.308        0.011       75.831        5.416        0.005      332.087        0.524      871.411
01/05/2014  20:23:00      -79.667      -12.044      -11.930       13.067        9.355        8.050      170.751       87.514       64.808        0.348        0.016       80.573        7.217        0.008      332.141        0.610      871.419
01/05/2014  20:24:00      -87.084       -1.682      -16.301        8.108        8.149        5.489       65.743       66.412       30.129        0.401        0.008       87.100        2.469        0.001      332.131        0.593      871.424
01/05/2014  20:25:00      -75.850        0.190      -10.496       12.696       13.197        9.586      161.198      174.160       91.892        0.315        0.021       75.850        5.103        0.005      332.138        0.605      871.433
01/05/2014  20:26:00      -66.460       -3.556      -15.629       16.627       13.248        7.447      276.469      175.510       55.461        0.259        0.025       66.555        7.176        0.012      332.086        0.522      871.428
01/05/2014  20:27:00      -56.191       -3.332      -14.772       11.708       10.209        8.827      137.072      104.234       77.916        0.185        0.016       56.290        6.913        0.015      332.030        0.428      871.418
01/05/2014  20:28:00      -46.595       -6.907      -13.276        8.308        9.653        6.389       69.023       93.184       40.821        0.130        0.010       47.105        6.459        0.019      331.988        0.358      871.419
01/05/2014  20:29:00      -47.343       -3.316      -10.694       12.948        7.827        7.625      167.656       61.255       58.135        0.133        0.014       47.459        7.560        0.025      332.181        0.676      871.416
01/05/2014  20:30:00      -15.575        9.191       -5.630       23.788       17.026       15.288      565.852      289.884      233.728        0.072        0.054       18.084       14.177        0.615      332.242        0.777      871.419
01/05/2014  20:31:00      -12.073       15.450        2.068       20.990       27.045       17.484      440.595      731.429      305.707        0.093        0.074       19.608       18.493        0.890      332.286        0.850      871.420
01/05/2014  20:32:00       -8.298       31.432       -5.413       24.341       23.235       16.923      592.493      539.845      286.389        0.125        0.071       32.509       14.159        0.190      332.423        1.077      871.416
01/05/2014  20:33:00       -9.823       -2.924       -0.805       30.402       14.322       15.718      924.310      205.117      247.054        0.074        0.069       10.249       14.253        1.934      332.287        0.852      871.406
01/05/2014  20:34:00      -35.600       -6.176        0.459       25.618        8.706       13.249      656.278       75.788      175.535        0.111        0.045       36.132       15.688        0.189      332.121        0.577      871.395
01/05/2014  20:35:00      -29.998      -16.336       -4.570       21.674       12.325       15.637      469.742      151.915      244.527        0.103        0.043       34.158       11.023        0.104      332.164        0.649      871.394
01/05/2014  20:36:00      -43.421      -18.462      -10.460       11.384       14.333        6.905      129.604      205.448       47.677        0.136        0.019       47.183        5.221        0.012      331.977        0.341      871.398
01/05/2014  20:37:00      -40.294      -13.710      -18.498        7.748        9.610        6.127       60.024       92.358       37.534        0.117        0.009       42.562        5.218        0.015      331.884        0.187      871.395
01/05/2014  20:38:00      -57.627      -10.613      -12.931        8.729        7.022        7.472       76.190       49.302       55.828        0.189        0.009       58.596        5.508        0.009      331.799        0.046      871.381
01/05/2014  20:39:00      -67.818      -20.363       -9.457        9.895       10.585        9.406       97.919      112.050       88.467        0.270        0.015       70.809        7.214        0.010      331.728       -0.069      871.371
01/05/2014  20:40:00      -70.578       -8.333      -10.546        6.004        8.156        5.961       36.045       66.526       35.534        0.265        0.007       71.068        3.685        0.003      331.756       -0.026      871.372
01/05/2014  20:41:00      -64.738      -12.120      -12.362        5.015        7.968        5.465       25.148       63.494       29.861        0.230        0.006       65.863        2.360        0.001      331.792        0.035      871.395
01/05/2014  20:42:00      -88.280      -19.211      -15.045       13.512        9.522        7.005      182.571       90.659       49.074        0.436        0.016       90.346        6.859        0.006      331.858        0.142      871.398
01/05/2014  20:43:00      -93.254      -17.177      -14.276       17.306       10.378       10.396      299.495      107.696      108.081        0.486        0.026       94.823        9.773        0.011      331.895        0.206      871.400
01/05/2014  20:44:00      -87.577      -19.135      -13.476       17.573       11.886       10.914      308.799      141.281      119.116        0.439        0.028       89.643        9.122        0.010      331.923        0.251      871.400
01/05/2014  20:45:00      -99.737      -13.436      -14.727       15.677       11.493        9.626      245.771      132.098       92.662        0.541        0.024      100.638        7.787        0.006      331.934        0.268      871.400
01/05/2014  20:46:00      -99.887      -10.062      -13.698        8.877        7.647        6.122       78.794       58.471       37.473        0.522        0.009      100.392        2.958        0.001      331.790        0.033      871.407
01/05/2014  20:47:00      -63.937      -23.550       -6.928       13.716       11.421        7.797      188.140      130.434       60.796        0.253        0.019       68.136        5.571        0.007      331.906        0.224      871.405
01/05/2014  20:48:00      -70.119      -15.337       -8.339       12.309       12.627       10.021      151.509      159.437      100.422        0.282        0.021       71.777        7.622        0.011      331.907        0.225      871.393
01/05/2014  20:49:00      -81.711      -16.394      -15.297        9.773        8.241        9.396       95.503       67.910       88.277        0.372        0.013       83.339        2.782        0.001      331.861        0.148      871.377
01/05/2014  20:50:00      -75.872      -17.875      -18.228        8.478        9.361        7.175       71.871       87.625       51.479        0.331        0.011       77.949        3.120        0.002      331.837        0.108      871.382
01/05/2014  20:51:00      -73.125      -21.638      -15.138        5.823        8.008        5.305       33.911       64.121       28.143        0.309        0.006       76.259        4.763        0.004      331.849        0.129      871.383
01/05/2014  20:52:00      -71.119      -18.921      -13.263       10.545        9.693        7.233      111.200       93.945       52.323        0.292        0.013       73.592        4.875        0.004      331.765       -0.008      871.382
01/05/2014  20:53:00      -84.430       -1.549      -14.844       15.004       11.699        8.619      225.108      136.876       74.280        0.389        0.022       84.445        2.868        0.001      331.878        0.176      871.387
01/05/2014  20:54:00      -73.621       -9.019      -16.989       27.665       12.829       12.894      765.341      164.571      166.265        0.344        0.055       74.171       14.545        0.038      331.788        0.029      871.401
01/05/2014  20:55:00      -77.670      -13.815      -14.604       18.305       21.922       12.351      335.076      480.586      152.551        0.370        0.048       78.890        7.543        0.009      331.672       -0.162      871.418
01/05/2014  20:56:00      -92.935      -24.397      -10.285       23.903       25.713       15.217      571.372      661.181      231.572        0.540        0.073       96.084       13.121        0.019      331.590       -0.297      871.436
01/05/2014  20:57:00      -87.326      -33.168       -9.541       16.713       18.455       13.215      279.337      340.590      174.624        0.481        0.040       93.413        9.475        0.010      331.552       -0.360      871.442
01/05/2014  20:58:00     -119.306      -32.806      -15.047       22.590       10.281       11.187      510.324      105.703      125.152        0.814        0.037      123.734       12.041        0.009      331.591       -0.295      871.444
01/05/2014  20:59:00     -101.013      -32.674       -9.880       27.944       18.559       18.036      780.864      344.442      325.288        0.641        0.073      106.166       17.018        0.026      331.559       -0.350      871.451
01/05/2014  21:00:00     -108.854      -37.401      -13.615       15.640       13.833       10.614      244.618      191.358      112.647        0.699        0.027      115.100        9.186        0.006      331.627       -0.235      871.454
01/05/2014  21:01:00     -108.350      -31.068      -14.472       13.285        9.399        8.971      176.491       88.347       80.473        0.663        0.017      112.716        4.857        0.002      331.706       -0.104      871.441
01/05/2014  21:02:00     -101.229      -36.091      -12.900        9.469        9.275        8.008       89.667       86.021       64.123        0.598        0.012      107.471        4.288        0.002      331.726       -0.073      871.429
01/05/2014  21:03:00      -92.296      -35.231      -12.272        9.117        6.647        6.880       83.128       44.180       47.333        0.504        0.009       98.791        2.297        0.001      331.715       -0.090      871.430
01/05/2014  21:04:00      -78.294      -16.730       -7.366       12.939       12.580        9.261      167.410      158.261       85.759        0.344        0.021       80.062        5.424        0.005      331.778        0.012      871.424
01/05/2014  21:05:00      -83.130      -10.796      -15.929        7.771        7.855        8.396       60.394       61.706       70.487        0.374        0.010       83.828        4.778        0.003      331.681       -0.145      871.421
01/05/2014  21:06:00      -88.478       -2.290      -15.984        6.711        4.966        6.295       45.040       24.658       39.630        0.410        0.005       88.508        3.193        0.001      331.704       -0.109      871.426
01/05/2014  21:07:00      -85.601       -8.974      -15.715        7.892        6.859        6.154       62.285       47.049       37.869        0.390        0.007       86.070        3.594        0.002      331.690       -0.132      871.446
01/05/2014  21:08:00      -93.862       -7.734      -11.198       15.935       11.262       10.913      253.922      126.840      119.092        0.475        0.025       94.180        8.307        0.008      331.645       -0.205      871.451
01/05/2014  21:09:00      -74.230      -12.495      -13.563       15.252       14.369       12.877      232.613      206.471      165.806        0.323        0.030       75.274        9.415        0.016      331.644       -0.208      871.451
01/05/2014  21:10:00      -60.939      -12.344      -21.131       13.469        8.916        9.253      181.402       79.494       85.614        0.233        0.017       62.177        4.012        0.004      331.608       -0.267      871.453
01/05/2014  21:11:00      -70.594       -9.605      -17.420       17.835       13.542       11.256      318.071      183.383      126.699        0.300        0.031       71.245       11.171        0.025      331.537       -0.384      871.466
01/05/2014  21:12:00      -86.929      -15.142      -17.714       14.197       16.252       10.728      201.548      264.132      115.099        0.434        0.029       88.238        8.362        0.009      331.515       -0.420      871.468
01/05/2014  21:13:00      -84.503      -32.170      -15.475       16.342       17.424       13.692      267.048      303.611      187.472        0.459        0.038       90.420       10.606        0.014      331.462       -0.508      871.471
01/05/2014  21:14:00      -83.237      -24.391      -17.703       20.776       17.499       15.090      431.653      306.217      227.712        0.440        0.048       86.737       10.565        0.015      331.386       -0.633      871.489
01/05/2014  21:15:00      -89.275      -50.745      -10.277       15.341       20.275       13.455      235.343      411.066      181.039        0.574        0.041      102.689        6.509        0.004      331.360       -0.674      871.498
01/05/2014  21:16:00     -104.847      -15.344      -17.713       13.603       11.018       10.830      185.047      121.399      117.297        0.598        0.021      105.963        6.281        0.004      331.367       -0.664      871.498
01/05/2014  21:17:00     -110.838      -21.305      -20.209       11.544        8.492        7.364      133.262       72.121       54.235        0.670        0.013      112.867        4.327        0.001      331.450       -0.527      871.502
01/05/2014  21:18:00      -76.338      -21.158      -10.453       27.547       20.855       17.947      758.857      434.941      322.101        0.395        0.076       79.216       16.209        0.042      331.422       -0.575      871.509
01/05/2014  21:19:00     -106.039      -34.541      -14.795       24.889       19.892       12.192      619.475      395.683      148.641        0.691        0.058      111.523        8.970        0.006      331.395       -0.617      871.529
01/05/2014  21:20:00     -105.105      -34.585       -8.382       32.513       26.701       20.398     1057.069      712.956      416.098        0.725        0.109      110.649       18.197        0.027      331.338       -0.712      871.530
01/05/2014  21:21:00     -115.456      -41.017      -17.193       23.972       18.166       12.583      574.679      330.016      158.327        0.819        0.053      122.525        8.868        0.005      331.347       -0.696      871.532
01/05/2014  21:22:00     -103.950      -43.217      -18.544       21.787       25.028       15.171      474.662      626.389      230.159        0.717        0.067      112.576        9.704        0.007      331.333       -0.720      871.547
01/05/2014  21:23:00      -88.189      -41.694      -12.359       22.618       19.396       16.833      511.590      376.205      283.352        0.542        0.059       97.548        7.128        0.005      331.305       -0.766      871.556
01/05/2014  21:24:00      -83.516      -24.370      -13.005       22.242       18.112       13.044      494.706      328.047      170.154        0.437        0.050       86.999       11.574        0.018      331.343       -0.703      871.545
01/05/2014  21:25:00     -106.348      -21.661      -12.586       18.462       22.823       13.005      340.836      520.903      169.133        0.648        0.052      108.531        6.703        0.004      331.406       -0.599      871.542
01/05/2014  21:26:00     -105.615        7.808      -11.900       21.791       18.542       13.134      474.847      343.822      172.496        0.617        0.050      105.903        3.537        0.001      331.387       -0.631      871.539
01/05/2014  21:27:00     -114.822        8.371      -18.983       15.891       14.070       10.823      252.530      197.955      117.147        0.709        0.028      115.126        6.436        0.003      331.398       -0.613      871.523
01/05/2014  21:28:00      -97.775       -2.350      -18.515       22.277       12.147       13.270      496.261      147.551      176.087        0.536        0.041       97.803        8.807        0.008      331.353       -0.686      871.511
01/05/2014  21:29:00      -87.340      -11.866      -14.217       25.581       20.579       14.739      654.362      423.504      217.251        0.463        0.065       88.142       14.754        0.028      331.315       -0.748      871.513
01/05/2014  21:30:00      -99.514      -14.789      -16.298       28.964       17.337       13.099      838.899      300.555      171.583        0.585        0.066      100.607       13.342        0.018      331.297       -0.779      871.501
01/05/2014  21:31:00      -93.633      -19.329      -19.866       16.470       23.980       14.469      271.245      575.054      209.352        0.530        0.053       95.607       10.087        0.011      331.369       -0.661      871.494
01/05/2014  21:32:00      -74.980       -7.780      -10.966       28.927       18.715       13.809      836.785      350.242      190.699        0.359        0.069       75.382       13.084        0.030      331.421       -0.575      871.500
01/05/2014  21:33:00      -84.117      -18.740      -16.585       16.296       13.052       12.725      265.559      170.358      161.937        0.415        0.030       86.179       11.537        0.018      331.404       -0.604      871.509
01/05/2014  21:34:00      -73.846       -9.761      -14.794       16.461       15.357       13.357      270.950      235.850      178.418        0.323        0.034       74.488       11.524        0.024      331.425       -0.570      871.512
01/05/2014  21:35:00      -63.648        2.779      -16.172       15.707       16.650       12.588      246.714      277.238      158.454        0.250        0.034       63.709       10.010        0.025      331.631       -0.230      871.527
01/05/2014  21:36:00      -58.701       -4.813      -12.574       14.557       11.278        8.533      211.905      127.195       72.812        0.202        0.021       58.898        4.839        0.007      331.699       -0.117      871.537
01/05/2014  21:37:00      -54.707      -20.514      -16.361       11.267        9.652        7.222      126.939       93.168       52.160        0.198        0.014       58.426        5.280        0.008      331.562       -0.343      871.536
01/05/2014  21:38:00      -65.582      -15.961      -14.799       12.151       11.847        7.992      147.639      140.346       63.871        0.256        0.018       67.496        7.886        0.014      331.465       -0.502      871.552
01/05/2014  21:39:00      -62.034      -21.218      -14.599        8.287       11.759        9.226       68.673      138.280       85.114        0.240        0.015       65.563        5.901        0.008      331.506       -0.434      871.554
01/05/2014  21:40:00      -54.030      -27.712      -12.816       12.880       13.301        9.658      165.893      176.915       93.282        0.214        0.022       60.722        2.763        0.002      331.450       -0.526      871.553
01/05/2014  21:41:00      -50.308      -20.840      -15.472        9.702       13.466        7.419       94.120      181.339       55.037        0.177        0.017       54.453        5.503        0.010      331.439       -0.545      871.573
01/05/2014  21:42:00      -53.125      -27.126      -14.170       16.738       13.944        9.231      280.152      194.441       85.204        0.216        0.028       59.650        5.045        0.007      331.357       -0.679      871.578
01/05/2014  21:43:00      -83.862      -23.200      -13.364       12.345       11.263        8.674      152.387      126.866       75.232        0.405        0.018       87.012        5.350        0.004      331.347       -0.695      871.583
01/05/2014  21:44:00      -83.829      -16.064      -15.759       11.588       13.679       11.136      134.272      187.116      124.010        0.399        0.022       85.354        3.635        0.002      331.277       -0.810      871.589
01/05/2014  21:45:00      -79.451       -7.935      -17.712        7.934        8.087        7.539       62.953       65.396       56.836        0.344        0.009       79.847        3.111        0.002      331.347       -0.697      871.594
01/05/2014  21:46:00      -90.162      -11.752      -13.791       11.122       13.283       11.061      123.695      176.436      122.343        0.444        0.021       90.925        4.138        0.002      331.173       -0.983      871.608
01/05/2014  21:47:00     -101.199      -17.479      -12.705       22.040       14.228       11.785      485.751      202.445      138.891        0.577        0.041      102.697       11.945        0.014      331.169       -0.989      871.616
01/05/2014  21:48:00      -97.154      -40.722      -14.921       20.422       25.195       12.575      417.042      634.783      158.138        0.626        0.060      105.343        5.561        0.003      331.168       -0.991      871.623
01/05/2014  21:49:00      -71.278      -48.683       -6.962       22.780       18.184       24.749      518.920      330.656      612.521        0.448        0.073       86.317       17.568        0.041      331.225       -0.896      871.632
01/05/2014  21:50:00      -97.134      -46.189      -18.791       18.298       18.787       10.692      334.817      352.947      114.319        0.636        0.040      107.557        7.476        0.005      331.231       -0.887      871.651
01/05/2014  21:51:00     -141.675      -37.850      -17.008       12.358       16.227       10.764      152.725      263.326      115.862        1.116        0.027      146.644        6.881        0.002      331.221       -0.904      871.658
01/05/2014  21:52:00     -124.647      -26.032      -13.654       19.399       16.426       16.987      376.326      269.827      288.559        0.867        0.047      127.336       12.504        0.010      331.265       -0.830      871.659
01/05/2014  21:53:00     -127.278      -30.245      -10.369       19.887       14.506       16.005      395.495      210.414      256.175        0.904        0.043      130.822       13.223        0.010      331.244       -0.867      871.659
01/05/2014  21:54:00     -119.540      -24.069      -11.485       20.429       15.114       15.941      417.335      228.423      254.126        0.795        0.045      121.939       13.399        0.012      331.247       -0.860      871.662
01/05/2014  21:55:00      -94.837      -22.404      -13.967       24.377       22.513       13.998      594.215      506.857      195.953        0.549        0.065       97.447       11.049        0.013      331.185       -0.963      871.679
01/05/2014  21:56:00     -107.248      -22.149       -8.297       32.663       16.923       19.312     1066.841      286.404      372.956        0.689        0.086      109.512       19.544        0.032      331.137       -1.042      871.683
01/05/2014  21:57:00      -97.410       -9.403       -4.015       34.689       25.974       22.987     1203.297      674.641      528.411        0.600        0.120       97.863       20.784        0.045      331.140       -1.038      871.683
01/05/2014  21:58:00     -102.509      -12.402      -10.062       29.250       22.766       18.686      855.577      518.309      349.177        0.624        0.086      103.256       13.992        0.018      331.095       -1.111      871.684
01/05/2014  21:59:00      -71.875      -22.469       -7.020       21.027       20.016       13.490      442.149      400.627      181.970        0.337        0.051       75.305        6.768        0.008      331.062       -1.165      871.698
01/05/2014  22:00:00      -77.771      -38.763      -12.082       22.896       23.078       14.372      524.213      532.573      206.566        0.448        0.063       86.896       11.915        0.019      331.068       -1.156      871.715
01/05/2014  22:01:00      -28.263      -43.282       -7.832       28.696       32.709       19.150      823.485     1069.867      366.740        0.250        0.113       51.692       14.640        0.080      331.137       -1.041      871.725
01/05/2014  22:02:00      -71.718      -36.933      -13.527       29.515       28.622       20.344      871.124      819.232      413.873        0.440        0.105       80.669       16.359        0.041      331.122       -1.067      871.724
01/05/2014  22:03:00      -66.801      -40.637      -15.420       31.502       21.760       15.154      992.372      473.493      229.631        0.402        0.085       78.190        5.515        0.005      331.133       -1.047      871.725
01/05/2014  22:04:00      -53.201      -31.103       -3.217       34.502       31.846       18.726     1190.417     1014.159      350.674        0.318        0.128       61.626       14.958        0.059      331.134       -1.046      871.743
01/05/2014  22:05:00      -82.626      -58.438      -12.572       34.086       27.808       20.198     1161.823      773.261      407.954        0.637        0.117      101.203       15.838        0.024      331.104       -1.097      871.757
01/05/2014  22:06:00      -70.284      -45.203      -12.679       34.048       24.631       20.334     1159.251      606.676      413.482        0.466        0.109       83.565       16.560        0.039      331.135       -1.046      871.766
01/05/2014  22:07:00      -70.864      -40.810       -9.464       44.402       26.101       22.115     1971.578      681.257      489.077        0.496        0.157       81.775       15.051        0.034      331.144       -1.030      871.773
01/05/2014  22:08:00     -108.382      -28.783      -22.593       16.769       20.906       15.342      281.193      437.048      235.373        0.702        0.048      112.139       11.378        0.010      331.074       -1.145      871.787
01/05/2014  22:09:00      -98.454      -48.505      -18.116       19.795       15.212       14.080      391.860      231.396      198.259        0.660        0.041      109.754       10.426        0.009      331.105       -1.096      871.799
01/05/2014  22:10:00      -82.721      -37.788      -17.169       13.298       20.176       12.626      176.850      407.069      159.414        0.465        0.037       90.944       10.284        0.013      331.105       -1.093      871.806
01/05/2014  22:11:00      -79.126      -48.562      -14.208       12.116       16.986        9.743      146.791      288.512       94.934        0.468        0.027       92.840        7.828        0.007      331.095       -1.111      871.809
01/05/2014  22:12:00      -93.394      -41.632      -18.896       10.039       10.146        8.007      100.781      102.936       64.114        0.554        0.013      102.253        2.989        0.001      331.088       -1.124      871.808
01/05/2014  22:13:00      -99.657      -30.322      -15.506       12.320        9.624        9.254      151.784       92.616       85.643        0.571        0.017      104.168        4.762        0.002      331.068       -1.157      871.816
01/05/2014  22:14:00     -124.954      -12.564      -19.132        8.294        9.878        9.088       68.797       97.577       82.587        0.819        0.012      125.584        4.138        0.001      331.052       -1.182      871.822
01/05/2014  22:15:00     -120.986      -17.564      -20.143       13.774       10.464        8.285      189.729      109.495       68.634        0.786        0.018      122.254        1.339        0.000      331.062       -1.165      871.822
01/05/2014  22:16:00     -104.788      -19.454      -14.489       13.820       13.672       14.001      191.000      186.921      196.030        0.607        0.029      106.578        9.136        0.007      331.070       -1.153      871.824
01/05/2014  22:17:00     -113.176      -13.392      -16.675       12.485       11.798       11.107      155.887      139.197      123.366        0.684        0.021      113.966        6.762        0.004      331.082       -1.133      871.826
01/05/2014  22:18:00     -109.378      -28.131      -18.479       15.222       14.837       12.263      231.694      220.136      150.371        0.685        0.030      112.938        9.121        0.007      331.016       -1.241      871.832
01/05/2014  22:19:00      -72.982      -30.794      -11.029       16.928       23.155       19.149      286.558      536.177      366.691        0.379        0.059       79.213       12.792        0.026      331.030       -1.220      871.837
01/05/2014  22:20:00      -84.625      -23.163      -14.198       25.233       27.146       13.701      636.721      736.890      187.705        0.473        0.078       87.738       12.559        0.020      330.995       -1.276      871.838
01/05/2014  22:21:00     -100.457      -23.543      -20.202       17.696       23.551       15.867      313.165      554.669      251.777        0.609        0.056      103.179       13.791        0.018      331.004       -1.261      871.836
01/05/2014  22:22:00      -67.992      -53.003      -10.542       27.073       22.663       23.235      732.969      513.622      539.844        0.466        0.089       86.211       18.940        0.048      331.054       -1.179      871.838
01/05/2014  22:23:00      -80.725      -44.136       -6.664       19.206       24.898       15.746      368.873      619.888      247.951        0.487        0.062       92.003        8.219        0.008      330.981       -1.297      871.849
01/05/2014  22:24:00      -88.380      -15.704      -17.784       12.041       14.804       10.384      144.990      219.172      107.820        0.442        0.024       89.764        6.786        0.006      330.993       -1.279      871.848
01/05/2014  22:25:00      -76.740      -22.765      -17.185       26.500       18.443       15.718      702.271      340.157      247.066        0.400        0.064       80.046        2.323        0.001      331.066       -1.160      871.834
01/05/2014  22:26:00      -78.723      -26.317       -5.613       24.357       17.075       16.995      593.254      291.566      288.834        0.405        0.059       83.005       14.463        0.030      330.993       -1.281      871.820
01/05/2014  22:27:00      -78.954      -32.092      -14.677       17.727       17.191       10.376      314.249      295.516      107.651        0.410        0.036       85.227        6.059        0.005      330.999       -1.269      871.813
01/05/2014  22:28:00      -72.417      -31.724      -14.396        9.976        8.900        9.910       99.528       79.207       98.203        0.337        0.014       79.061        5.445        0.005      330.949       -1.349      871.807
01/05/2014  22:29:00     -109.986      -28.775      -14.853       11.573        9.330        9.550      133.944       87.057       91.212        0.673        0.016      113.688        4.935        0.002      330.997       -1.272      871.807
01/05/2014  22:30:00     -105.908      -25.653      -16.582       15.781       15.260       11.682      249.045      232.872      136.461        0.638        0.031      108.970        8.640        0.006      330.972       -1.313      871.802
01/05/2014  22:31:00      -88.069      -41.577      -17.623       10.994        7.590        6.004      120.872       57.605       36.052        0.500        0.011       97.390        5.684        0.003      330.964       -1.327      871.795
01/05/2014  22:32:00     -111.802      -39.058      -19.788       10.606        8.658        7.701      112.481       74.963       59.308        0.733        0.012      118.428        4.992        0.002      330.980       -1.299      871.788
01/05/2014  22:33:00      -94.890      -45.518      -14.803       23.106       19.092       14.577      533.893      364.509      212.477        0.620        0.056      105.242        9.564        0.008      330.927       -1.387      871.790
01/05/2014  22:34:00     -104.339      -51.230      -12.779       13.040       17.373       12.751      170.032      301.811      162.598        0.715        0.032      116.238        8.486        0.005      330.885       -1.454      871.801
01/05/2014  22:35:00     -112.210      -53.747      -15.586       13.057       13.488       11.463      170.492      181.934      131.399        0.810        0.024      124.418        6.204        0.002      330.876       -1.469      871.809
01/05/2014  22:36:00     -100.160      -25.317      -15.137       10.176       16.317        8.951      103.541      266.233       80.123        0.568        0.022      103.310        5.846        0.003      330.880       -1.462      871.815
01/05/2014  22:37:00     -101.817      -28.323      -17.804       14.016       12.383       10.990      196.448      153.345      120.772        0.598        0.024      105.683        5.010        0.002      330.927       -1.387      871.820
01/05/2014  22:38:00     -116.551      -26.479      -19.202       13.310       10.094        9.857      177.154      101.879       97.165        0.751        0.019      119.521        6.877        0.003      330.891       -1.446      871.822
01/05/2014  22:39:00     -103.625      -26.407      -15.537       11.707       12.055       10.963      137.062      145.332      120.181        0.604        0.020      106.937        5.166        0.002      330.848       -1.516      871.832
01/05/2014  22:40:00      -93.986      -33.155      -11.781       12.100       15.083        9.416      146.417      227.491       88.663        0.527        0.023       99.663        5.604        0.003      330.829       -1.547      871.830
01/05/2014  22:41:00      -88.317      -44.543      -19.966       14.217       15.879       11.529      202.127      252.150      132.912        0.538        0.029       98.913        6.993        0.005      330.820       -1.562      871.824
01/05/2014  22:42:00      -85.069      -29.406      -15.054       24.360       21.148       11.705      593.431      447.230      137.011        0.475        0.059       90.008        9.361        0.011      330.780       -1.630      871.825
01/05/2014  22:43:00      -88.911      -21.431      -11.080       19.797       15.867        9.374      391.903      251.760       87.871        0.461        0.037       91.457        7.181        0.006      330.768       -1.648      871.826
01/05/2014  22:44:00      -67.292      -30.072       -8.675       20.441       19.304       13.646      417.830      372.656      186.227        0.324        0.049       73.706       11.787        0.026      330.817       -1.567      871.827
01/05/2014  22:45:00      -63.768      -22.734       -9.818       19.667       18.251       11.951      386.804      333.105      142.833        0.277        0.043       67.700        8.569        0.016      330.823       -1.559      871.818
01/05/2014  22:46:00      -81.480      -22.974       -7.515       22.976       12.212       10.329      527.891      149.125      106.687        0.400        0.039       84.657        7.887        0.009      330.858       -1.500      871.819
01/05/2014  22:47:00      -90.519      -20.563      -12.129       20.618       23.447       12.676      425.082      549.739      160.676        0.495        0.057       92.825       10.716        0.013      330.867       -1.486      871.813
01/05/2014  22:48:00      -93.943      -16.056      -13.445       14.554       19.245        9.380      211.826      370.352       87.984        0.497        0.034       95.305        7.707        0.007      330.800       -1.595      871.819
01/05/2014  22:49:00      -70.057      -14.567       -8.297       20.686       22.377       13.860      427.902      500.752      192.108        0.315        0.056       71.556       11.050        0.024      330.791       -1.612      871.826
01/05/2014  22:50:00      -58.595      -17.546       -1.332       24.259       19.270       17.486      588.514      371.326      305.750        0.250        0.063       61.166       16.466        0.072      330.768       -1.649      871.838
01/05/2014  22:51:00      -49.061      -17.220       -3.361       22.982       20.534       14.312      528.156      421.647      204.821        0.193        0.058       51.995       12.375        0.057      330.801       -1.594      871.850
01/05/2014  22:52:00      -31.104      -27.150        4.724       24.472       17.250       15.238      598.860      297.557      232.182        0.143        0.056       41.287       14.021        0.115      330.810       -1.579      871.857
01/05/2014  22:53:00      -52.952      -28.061      -13.628       23.019       14.145        9.679      529.852      200.073       93.680        0.230        0.041       59.928        4.229        0.005      330.809       -1.581      871.866
01/05/2014  22:54:00      -74.541      -19.012      -13.824        8.478        8.170        7.391       71.880       66.743       54.625        0.315        0.010       76.927        4.339        0.003      330.828       -1.550      871.880
01/05/2014  22:55:00      -65.248      -21.837      -12.174       12.392       11.574        8.483      153.566      133.965       71.964        0.262        0.018       68.805        4.883        0.005      330.792       -1.609      871.889
01/05/2014  22:56:00      -70.447      -14.386      -13.846       14.282        8.520        8.720      203.967       72.593       76.031        0.286        0.018       71.901        5.823        0.007      330.826       -1.554      871.889
01/05/2014  22:57:00      -85.449      -12.862      -14.768       12.019        9.092        5.593      144.465       82.668       31.282        0.397        0.013       86.412        3.788        0.002      330.806       -1.588      871.897
01/05/2014  22:58:00      -88.723      -19.869      -13.009       15.160       10.591        9.974      229.832      112.168       99.485        0.444        0.022       90.920        3.121        0.001      330.799       -1.599      871.896
01/05/2014  22:59:00      -98.596      -11.207      -16.478       17.317       14.037       10.654      299.893      197.032      113.514        0.536        0.031       99.231        7.775        0.006      330.777       -1.635      871.902
01/05/2014  23:00:00      -97.369      -13.423      -14.444       18.436       18.090       13.409      339.871      327.259      179.798        0.536        0.042       98.290        4.490        0.002      330.704       -1.753      871.910
01/05/2014  23:01:00     -111.078      -18.188      -15.859       29.685       19.485       17.298      881.176      379.657      299.225        0.724        0.078      112.557       15.554        0.019      330.716       -1.733      871.907
01/05/2014  23:02:00      -97.722      -34.437       -4.257       23.681       20.134       17.841      560.774      405.381      318.307        0.602        0.064      103.612       14.649        0.020      330.650       -1.840      871.897
01/05/2014  23:03:00     -107.205      -15.460       -8.032       37.729       24.775       17.972     1423.472      613.813      322.997        0.708        0.118      108.314       15.328        0.020      330.603       -1.920      871.885
01/05/2014  23:04:00      -71.525       -3.551       -4.423       39.675       22.536       18.092     1574.097      507.882      327.328        0.378        0.120       71.613       16.893        0.056      330.639       -1.860      871.876
01/05/2014  23:05:00      -22.034      -25.224        8.846       32.791       19.908       14.049     1075.234      396.316      197.383        0.143        0.083       33.493       17.010        0.258      330.635       -1.866      871.873
01/05/2014  23:06:00      -52.229      -11.425       -3.805       36.541       23.766       18.600     1335.259      564.829      345.947        0.256        0.112       53.464       20.987        0.154      330.673       -1.803      871.863
01/05/2014  23:07:00      -58.451       -8.200       -5.536       13.203       15.118       10.556      174.328      228.565      111.419        0.201        0.026       59.023        7.338        0.015      330.648       -1.844      871.851
01/05/2014  23:08:00      -57.631        0.019       -8.563       17.322       12.616       11.243      300.037      159.161      126.397        0.199        0.029       57.631        9.048        0.025      330.815       -1.570      871.830
01/05/2014  23:09:00      -55.540       -3.369      -12.820       11.897        9.914        8.895      141.546       98.279       79.120        0.179        0.016       55.642        4.151        0.006      330.829       -1.549      871.817
01/05/2014  23:10:00      -45.024       -8.323      -13.020        7.566        9.617        6.205       57.237       92.480       38.503        0.123        0.009       45.787        5.431        0.014      330.864       -1.490      871.814
01/05/2014  23:11:00      -16.851        3.809       -3.974       11.715       10.880        8.522      137.231      118.366       72.624        0.032        0.016       17.276        6.267        0.132      331.035       -1.210      871.813
01/05/2014  23:12:00       10.804      -13.746        2.239       23.554       17.068       10.099      554.798      291.323      101.987        0.063        0.047       17.484       11.683        0.447      331.169       -0.989      871.827
01/05/2014  23:13:00      -14.616       -8.484        2.365        7.187       10.007        7.817       51.650      100.134       61.105        0.025        0.011       16.900        3.687        0.048      330.929       -1.382      871.842
01/05/2014  23:14:00      -22.486      -26.758       -6.368       10.187        8.801        9.944      103.774       77.457       98.882        0.077        0.014       34.952        3.812        0.012      330.992       -1.280      871.848
01/05/2014  23:15:00      -32.481      -20.181        4.811       17.231       10.281       13.936      296.920      105.708      194.218        0.104        0.030       38.240       10.292        0.072      330.822       -1.558      871.864
01/05/2014  23:16:00      -58.615      -14.924       -5.523        8.765        9.432        5.233       76.828       88.960       27.387        0.194        0.010       60.485        4.055        0.004      330.729       -1.713      871.864
01/05/2014  23:17:00      -66.512      -18.428       -9.714        9.462        9.231        8.232       89.520       85.206       67.763        0.255        0.012       69.018        3.169        0.002      330.743       -1.688      871.860
01/05/2014  23:18:00      -69.632      -29.953      -18.105        7.909       10.301        6.644       62.548      106.104       44.145        0.314        0.011       75.801        5.013        0.004      330.658       -1.829      871.860
01/05/2014  23:19:00      -75.819      -14.189      -14.518       13.682       12.962        9.078      187.197      168.026       82.410        0.330        0.022       77.135        6.808        0.008      330.671       -1.807      871.850
01/05/2014  23:20:00      -58.385       -4.530       -3.089       17.405       17.270       14.741      302.939      298.246      217.301        0.213        0.041       58.560       12.662        0.047      330.662       -1.821      871.842
01/05/2014  23:21:00      -64.857       -6.701      -10.677       12.733       16.477       12.117      162.138      271.481      146.813        0.247        0.029       65.203        9.115        0.020      330.641       -1.856      871.824
01/05/2014  23:22:00      -46.536      -20.111      -10.592       13.630       14.607        6.653      185.769      213.354       44.256        0.156        0.022       50.696        3.987        0.006      330.779       -1.630      871.814
01/05/2014  23:23:00      -19.477      -17.292       -4.619       12.575        8.103       11.500      158.121       65.655      132.242        0.053        0.018       26.045        8.476        0.106      330.780       -1.629      871.813
01/05/2014  23:24:00      -12.038      -17.095        7.858       15.266       13.257       14.703      233.061      175.757      216.177        0.056        0.031       20.909        8.398        0.161      330.719       -1.729      871.799
01/05/2014  23:25:00      -78.457      -23.524       -9.771       22.877       18.031       11.509      523.363      325.132      132.464        0.389        0.049       81.908       11.450        0.020      330.560       -1.989      871.791
01/05/2014  23:26:00      -75.115      -13.749      -14.065       13.590        8.780        8.479      184.694       77.085       71.901        0.318        0.017       76.363        3.859        0.003      330.511       -2.069      871.785
01/05/2014  23:27:00      -65.285      -24.615       -9.515       11.632       12.557        9.118      135.299      157.669       83.143        0.267        0.019       69.771        4.916        0.005      330.614       -1.899      871.787
01/05/2014  23:28:00      -95.870      -20.294      -18.019       15.346        6.994        6.066      235.505       48.920       36.793        0.512        0.016       97.994        2.928        0.001      330.543       -2.018      871.789
01/05/2014  23:29:00     -119.314      -31.157      -15.383       17.175       20.156       15.121      294.973      406.265      228.657        0.819        0.046      123.315       10.208        0.007      330.569       -1.973      871.782
01/05/2014  23:30:00     -101.888      -20.679       -7.536       20.208       21.290       15.108      408.368      453.257      228.265        0.598        0.054      103.965       11.985        0.013      330.625       -1.882      871.783
01/05/2014  23:31:00     -107.977      -21.167      -10.130       19.628       14.146       13.343      385.253      200.104      178.047        0.649        0.038      110.032        9.587        0.008      330.603       -1.917      871.773
01/05/2014  23:32:00      -98.731      -14.192      -18.653       10.540        8.167        7.553      111.102       66.706       57.045        0.527        0.012       99.746        3.373        0.001      330.496       -2.095      871.772
01/05/2014  23:33:00      -93.589       -4.743      -14.388       27.914       15.611       11.944      779.213      243.706      142.650        0.508        0.058       93.709        4.873        0.003      330.459       -2.156      871.772
01/05/2014  23:34:00     -125.674        8.280      -14.328       19.716       12.237       12.001      388.713      149.745      144.017        0.838        0.034      125.947        6.780        0.003      330.395       -2.261      871.771
01/05/2014  23:35:00     -103.116       -5.750      -20.815       18.250       12.234       12.463      333.078      149.660      155.321        0.587        0.032      103.276        6.620        0.004      330.410       -2.235      871.771
01/05/2014  23:36:00      -64.845      -28.917       -7.642       13.335       11.079       11.486      177.825      122.739      131.936        0.277        0.022       71.001        5.476        0.006      330.469       -2.139      871.767
01/05/2014  23:37:00      -75.928      -31.719      -14.611       12.391       12.475       12.327      153.528      155.617      151.959        0.372        0.023       82.287        7.305        0.008      330.478       -2.124      871.777
01/05/2014  23:38:00      -83.711      -36.074       -7.302       13.310       12.093        9.031      177.155      146.229       81.560        0.438        0.020       91.153        5.660        0.004      330.401       -2.250      871.777
01/05/2014  23:39:00      -76.940      -28.865      -10.599       11.527       10.867       10.251      132.867      118.102      105.087        0.361        0.018       82.177        5.488        0.004      330.356       -2.323      871.769
01/05/2014  23:40:00      -70.888      -24.321      -13.829       12.627        9.725        9.036      159.452       94.568       81.657        0.307        0.017       74.944        6.387        0.007      330.432       -2.200      871.745
01/05/2014  23:41:00      -63.726      -23.972       -5.381       14.988       15.643        9.567      224.647      244.698       91.524        0.261        0.028       68.086        5.030        0.005      330.458       -2.156      871.723
01/05/2014  23:42:00      -67.708      -34.663      -15.958       11.985       14.435       11.732      143.635      208.371      137.632        0.326        0.024       76.065        5.332        0.005      330.374       -2.296      871.716
01/05/2014  23:43:00      -76.440      -42.303      -15.669        6.548       11.237        6.388       42.871      126.262       40.810        0.404        0.010       87.365        3.617        0.002      330.353       -2.329      871.715
01/05/2014  23:44:00      -97.632      -29.541      -15.571       17.490       12.024        9.595      305.897      144.572       92.060        0.559        0.027      102.003        5.013        0.002      330.360       -2.316      871.712
01/05/2014  23:45:00     -123.989      -36.962      -17.770       12.421       16.502        8.100      154.286      272.329       65.615        0.877        0.025      129.381        6.168        0.002      330.403       -2.248      871.709
01/05/2014  23:46:00      -89.198      -49.835      -13.637       28.059       19.409       14.863      787.326      376.698      220.922        0.601        0.069      102.176       12.370        0.015      330.402       -2.248      871.709
01/05/2014  23:47:00      -90.745      -41.233       -9.027       19.178       17.198       10.854      367.784      295.768      117.811        0.540        0.039       99.674        4.471        0.002      330.366       -2.307      871.721
01/05/2014  23:48:00      -84.275      -39.355       -1.143       24.659       14.709       12.552      608.044      216.349      157.563        0.482        0.049       93.011        9.796        0.011      330.386       -2.276      871.739
01/05/2014  23:49:00      -80.127      -47.097       -3.674       23.896       17.794       15.618      571.038      316.621      243.928        0.489        0.057       92.943        9.648        0.011      330.348       -2.336      871.739
01/05/2014  23:50:00      -99.133      -40.792      -12.442       16.797       12.658        8.668      282.141      160.213       75.138        0.608        0.026      107.198        5.336        0.002      330.313       -2.393      871.732
01/05/2014  23:51:00     -107.595      -30.856      -11.083        8.672        9.382        8.035       75.200       88.020       64.556        0.644        0.011      111.932        4.269        0.001      330.334       -2.359      871.714
01/05/2014  23:52:00      -93.135      -26.224      -11.282       14.231       13.374       11.776      202.509      178.867      138.678        0.500        0.026       96.756        6.641        0.005      330.367       -2.305      871.703
01/05/2014  23:53:00      -95.950      -24.579      -11.630       15.582       15.502       11.051      242.786      240.313      122.123        0.528        0.030       99.048        5.928        0.004      330.376       -2.291      871.677
01/05/2014  23:54:00     -101.584      -40.014       -9.651       16.623       18.128        9.804      276.322      328.640       96.121        0.636        0.035      109.181        8.367        0.006      330.301       -2.415      871.663
01/05/2014  23:55:00     -105.024      -45.581       -8.548       13.215       18.768        8.899      174.625      352.219       79.185        0.689        0.030      114.489        7.484        0.004      330.320       -2.383      871.647
01/05/2014  23:56:00     -111.315      -33.960      -11.217       15.665       15.928       11.364      245.398      253.686      129.151        0.715        0.031      116.380        5.260        0.002      330.329       -2.369      871.642
01/05/2014  23:57:00     -101.253      -39.830      -10.589       10.004       17.232       10.541      100.089      296.932      111.107        0.623        0.025      108.805        3.944        0.001      330.290       -2.431      871.633
01/05/2014  23:58:00     -103.789      -65.178      -12.083       17.024       16.249       12.419      289.827      264.014      154.232        0.794        0.035      122.558        8.260        0.005      330.308       -2.401      871.627
01/05/2014  23:59:00     -102.675      -44.242      -13.656       15.241       17.478       10.578      232.297      305.464      111.901        0.667        0.032      111.802       10.627        0.009      330.241       -2.512      871.630
